GFSNW_850_rhum_000.txt.gz
RH
56 52 46 40 41 42 41 51 46 40 30 34 66 52 57 45 31 28 33 34 30 35 44 51 51 49 46 48 46 35 41 53 62 34 32 36 32 36 41 57 44 85 82 56
54 52 46 42 40 41 39 39 62 50 31 59 82 47 47 42 30 31 32 36 38 45 56 57 57 56 46 36 42 43 42 56 70 50 37 34 33 46 55 59 72 70 76 55
54 52 48 44 39 39 44 37 88 73 55 30 41 37 37 41 34 34 33 41 41 50 58 63 64 59 49 39 46 48 42 57 49 57 42 43 34 44 47 45 69 63 70 40
54 52 52 43 38 40 45 38 68 64 88 76 50 37 42 42 38 34 33 37 39 48 56 59 64 58 48 45 50 60 48 51 50 58 60 44 34 35 54 47 46 51 47 52
52 56 52 44 39 42 56 46 51 51 59 50 65 64 50 46 39 39 36 39 48 43 57 47 64 56 46 38 64 67 62 69 57 62 70 66 46 41 45 50 46 58 54 55
53 57 52 46 41 46 57 51 45 40 72 70 74 78 55 50 44 47 44 44 55 51 55 54 55 51 56 58 63 74 69 87 56 43 74 60 50 46 49 46 47 52 65 51
53 58 55 49 42 44 48 45 47 44 84 75 68 58 52 51 45 48 54 46 54 61 54 52 51 57 67 72 83 65 93 86 79 73 68 44 35 41 46 47 53 63 61 66
50 58 57 47 41 43 44 46 49 45 89 56 51 60 70 62 62 68 67 59 51 47 43 73 62 75 62 74 90 80 68 85 94 68 73 45 30 62 64 57 49 72 66 72
50 57 53 42 38 43 40 43 47 51 62 75 34 64 59 80 76 76 73 64 51 46 73 75 72 68 54 62 76 79 80 81 70 89 52 41 36 43 46 42 69 65 63 72
57 54 48 39 36 40 40 41 44 49 57 62 45 61 61 53 66 87 70 58 57 46 88 88 76 63 60 66 85 92 98 98 76 100 74 63 45 47 42 63 57 66 56 55
56 55 49 43 39 38 37 39 45 50 57 62 49 45 43 52 52 81 66 68 62 76 73 78 87 92 84 76 67 87 90 91 98 96 88 53 41 49 59 54 36 36 47 49
54 53 58 51 40 44 41 48 53 49 45 59 55 48 44 41 39 46 63 50 60 54 86 91 97 96 94 89 76 69 70 64 75 67 68 43 41 48 39 41 36 36 40 38
44 50 57 50 45 41 42 44 45 43 58 64 58 61 50 41 39 41 45 46 51 48 41 82 97 75 97 92 94 79 70 59 78 66 48 55 41 36 39 40 40 42 44 45
30 39 52 58 49 44 39 39 40 40 42 58 61 61 55 48 41 36 33 33 38 40 48 72 98 80 80 90 79 84 69 67 69 76 62 50 41 40 39 44 48 48 50 56
27 28 38 53 46 46 45 38 36 36 28 62 60 60 62 57 52 45 43 41 36 47 57 88 86 75 92 98 96 96 65 68 79 75 35 42 38 38 42 45 48 48 63 71
29 25 25 40 47 43 38 39 42 31 27 39 84 66 65 55 52 49 48 49 48 52 53 62 62 64 70 98 97 58 45 41 38 41 38 46 52 56 54 55 53 60 75 77
32 29 26 25 24 26 22 29 49 41 29 32 90 85 71 65 58 57 64 63 62 66 64 73 70 89 76 96 97 41 41 40 42 47 57 60 53 56 58 58 66 80 85 78
37 33 30 28 27 27 34 39 46 48 34 39 94 98 74 76 74 73 71 73 79 85 89 94 98 100 99 100 82 60 58 60 59 60 61 65 69 70 72 83 86 82 58 66
42 38 36 34 32 36 57 55 49 46 39 65 95 84 79 82 96 89 88 95 100 97 96 99 98 100 99 95 88 79 75 76 72 66 65 76 83 83 80 76 65 63 88 98
50 46 44 52 58 59 58 57 56 64 75 78 100 94 99 92 100 100 92 98 96 95 94 100 100 100 94 87 81 79 71 70 75 76 76 73 68 68 65 77 92 95 98 93
60 57 72 83 77 61 59 80 86 96 95 99 99 100 98 96 100 100 99 100 100 98 91 100 99 98 91 74 81 83 82 82 82 80 76 80 81 93 99 100 100 84 67 54
71 74 86 74 77 77 92 100 100 92 90 100 99 100 99 100 98 98 100 99 100 95 96 100 98 90 70 88 100 100 98 94 97 96 97 100 99 98 92 87 74 51 39 29
81 82 83 82 94 98 91 98 100 100 100 100 100 100 99 100 97 98 100 100 99 97 100 99 99 86 99 100 100 99 99 98 98 96 73 73 55 43 54 55 50 29 24 26
92 93 98 99 98 99 99 99 99 100 100 100 100 99 98 100 99 100 100 100 100 99 99 97 100 100 100 94 85 85 98 99 72 60 58 55 43 33 29 28 30 31 32 36
80 81 97 98 100 100 99 100 99 100 100 100 99 99 99 100 99 99 98 97 97 96 96 99 100 100 98 70 54 57 53 50 68 62 71 65 53 44 45 47 51 57 62 64
90 86 98 100 98 100 100 100 100 100 100 100 99 99 98 98 99 97 97 96 96 96 100 100 100 100 99 95 75 73 76 63 68 75 63 60 61 61 64 65 74 75 73 69
88 99 100 99 96 99 100 100 100 100 100 99 98 97 94 96 98 98 99 98 98 100 100 93 87 85 75 73 70 69 64 53 56 63 68 74 74 77 76 60 57 56 58 58

GFSNW_850_rhum_006.txt.gz
RH
74 95 100 87 63 76 77 79 55 53 59 53 34 34 28 36 34 36 29 24 23 24 28 28 27 26 28 40 30 29 28 30 40 28 27 27 24 23 20 24 29 42 49 20
72 97 100 93 70 80 75 62 56 84 66 52 61 36 29 35 30 27 31 28 28 34 33 38 36 35 43 42 34 32 31 34 40 34 30 27 27 26 23 31 40 38 58 17
83 98 100 90 73 68 69 54 68 73 51 37 30 31 29 26 37 31 33 37 38 39 40 43 46 45 42 45 41 40 31 35 33 36 25 26 33 30 25 21 33 25 30 14
89 100 100 77 72 66 64 64 45 42 67 42 28 27 25 24 34 34 33 36 33 35 49 45 47 44 41 45 52 44 35 38 35 34 35 31 26 26 28 25 24 29 16 19
98 100 96 71 74 70 70 57 52 54 38 35 29 34 26 22 32 33 31 31 36 37 44 34 46 41 37 36 47 42 42 47 46 48 41 36 34 25 26 26 24 27 20 23
98 99 80 70 77 69 77 64 41 37 69 37 32 32 26 23 33 48 39 32 39 43 44 47 46 47 42 38 43 49 49 59 46 40 47 44 60 37 25 24 24 27 27 21
100 98 70 79 72 62 60 54 41 39 64 48 35 28 25 36 34 41 48 43 40 61 57 49 48 49 46 42 47 44 60 50 55 59 58 79 20 28 27 24 22 21 23 25
99 80 71 75 65 57 53 50 35 38 99 46 38 30 26 43 50 55 53 64 63 56 53 51 53 65 75 66 48 43 42 49 70 85 42 29 14 23 28 32 19 22 22 22
75 66 72 66 59 54 54 49 34 30 62 58 34 32 42 52 52 62 72 74 68 51 58 64 65 58 44 52 57 55 46 51 46 64 86 85 26 27 42 35 29 28 34 34
64 67 65 59 55 51 52 48 38 29 32 42 48 37 46 51 53 58 65 66 64 54 69 100 73 54 45 43 59 91 75 80 81 63 82 41 26 33 41 37 30 34 41 39
62 62 62 54 49 49 55 50 44 46 52 67 46 46 54 59 53 61 63 58 62 63 85 88 65 84 54 46 43 58 56 68 86 71 91 76 30 42 48 34 43 42 43 42
60 64 60 52 45 50 51 50 47 42 53 75 54 42 39 46 46 54 62 50 54 51 65 80 83 94 93 70 60 51 53 48 48 44 38 34 36 36 39 46 45 43 47 42
61 61 55 50 45 49 54 57 52 49 66 78 73 74 52 46 40 38 47 60 56 54 55 74 89 100 77 96 62 56 49 48 53 52 32 33 35 37 39 41 45 44 44 47
60 58 52 46 42 51 56 54 44 45 61 86 80 69 63 52 47 43 38 39 42 40 50 79 96 96 62 78 59 65 50 50 48 48 38 36 37 41 42 43 49 52 53 59
56 51 48 44 42 49 57 50 45 55 60 90 86 70 66 56 45 37 38 40 37 51 65 95 87 71 76 81 71 65 50 42 55 51 29 39 36 41 51 55 54 60 68 68
54 45 44 46 48 55 55 49 54 58 59 65 95 78 76 55 47 52 40 38 34 45 57 84 68 74 69 95 65 42 51 52 52 45 53 54 55 61 77 76 74 74 76 75
63 62 53 47 48 55 45 53 51 50 55 57 93 84 79 70 59 60 62 54 53 69 77 93 81 80 65 94 71 65 72 73 74 78 76 61 76 73 74 73 74 78 82 89
63 64 62 62 61 48 48 47 45 39 31 33 91 91 93 74 81 87 74 78 82 88 98 99 96 96 88 83 74 76 76 76 80 76 82 87 73 74 74 77 84 97 98 98
46 48 50 51 53 54 55 45 36 31 26 64 85 99 96 87 98 98 96 98 100 97 99 94 90 99 96 80 78 79 88 89 87 77 73 76 75 80 82 87 93 90 99 99
31 35 29 44 70 58 44 37 33 29 42 53 99 99 99 92 99 99 99 98 100 98 97 99 99 97 76 88 94 94 91 86 88 84 83 89 90 98 99 98 98 96 94 86
38 40 68 64 50 41 43 67 81 79 98 99 100 99 98 95 96 100 100 99 97 99 90 91 98 98 77 99 99 91 85 82 84 87 92 91 88 92 89 87 79 76 83 81
48 53 53 48 56 61 94 99 96 92 94 99 99 99 100 99 99 97 96 100 99 95 92 99 98 82 99 100 100 100 89 86 95 88 94 96 99 100 90 88 85 71 56 43
55 57 60 65 87 100 100 99 100 99 100 100 100 100 99 99 99 99 100 100 100 88 99 92 86 87 100 100 100 97 81 95 91 91 76 65 61 56 51 46 44 46 50 54
62 79 100 100 100 100 100 100 100 100 100 100 99 99 98 100 99 100 100 100 99 98 98 97 95 99 100 98 86 94 87 60 56 57 58 56 51 53 57 59 64 68 71 75
86 81 100 100 99 100 100 100 99 100 100 100 97 99 97 100 100 100 100 100 97 88 84 99 99 99 99 91 66 66 65 63 68 78 68 54 58 64 68 67 66 66 68 68
98 97 99 100 99 100 99 100 100 100 100 100 98 100 100 99 100 100 100 97 88 91 98 99 99 98 94 72 60 77 83 70 80 72 62 71 78 82 82 83 78 75 71 62
98 98 99 100 99 99 100 100 100 100 99 100 98 100 100 99 96 96 91 96 99 99 100 100 95 96 92 87 90 92 86 72 66 69 79 87 90 89 86 72 69 57 46 41

GFSNW_850_rhum_009.txt.gz
RH
75 68 79 87 100 93 81 88 60 99 54 54 53 47 28 19 23 27 20 20 15 18 17 19 17 16 16 22 20 18 16 21 37 24 21 20 20 20 20 30 26 30 39 22
80 82 82 91 100 98 89 76 58 99 81 62 69 33 22 21 24 23 23 19 16 15 18 21 18 17 38 35 26 20 24 24 36 29 25 21 19 18 18 17 31 25 49 21
77 89 90 91 99 92 88 55 58 91 97 47 37 33 25 27 27 21 20 17 19 24 24 22 26 26 35 37 29 35 29 22 26 34 24 20 26 18 18 20 30 26 23 15
77 91 99 91 100 85 89 53 41 45 74 50 35 28 24 22 27 25 25 26 22 22 26 28 30 30 37 38 42 31 30 33 25 24 24 20 18 18 18 18 18 24 18 10
90 98 99 93 100 74 98 50 36 39 45 40 34 34 23 22 22 25 28 24 20 20 25 27 26 30 33 34 37 35 33 37 37 44 27 26 25 19 15 16 17 14 12 14
86 98 99 96 100 79 93 63 41 37 48 42 34 31 22 20 22 36 24 20 25 25 32 37 37 34 30 28 37 40 40 51 46 36 38 36 58 37 22 16 15 16 21 16
82 98 94 99 100 80 71 62 46 44 58 41 33 24 21 20 22 31 32 27 26 48 43 39 37 35 33 32 38 36 58 47 48 46 64 79 18 18 16 19 16 14 14 14
85 78 98 100 100 80 70 63 52 45 98 35 27 23 19 20 30 35 38 50 46 44 38 43 51 56 66 47 32 32 33 44 57 82 37 23 16 15 19 21 18 16 18 14
87 94 98 100 88 70 70 80 53 39 50 40 24 23 20 38 41 54 62 58 52 52 47 56 48 48 36 48 48 36 36 47 42 50 80 84 30 23 30 25 22 20 20 21
83 97 99 97 79 67 76 78 44 33 28 26 26 26 26 23 33 42 58 62 58 54 67 94 53 45 34 41 51 87 65 71 74 56 72 42 21 24 29 30 33 26 29 24
98 100 95 78 74 72 85 79 40 32 28 42 35 25 28 27 29 58 53 54 58 56 74 81 52 74 48 42 34 50 50 62 80 64 90 77 21 29 38 37 30 28 31 30
88 70 71 73 69 67 68 72 38 38 34 67 62 54 40 36 35 36 54 32 46 46 47 68 72 90 93 56 58 38 48 39 44 37 36 28 26 24 26 33 34 33 34 34
67 68 70 66 61 64 76 75 45 59 67 68 64 63 57 46 39 54 41 49 44 48 55 69 80 96 70 93 55 44 36 36 42 41 22 23 25 26 29 32 34 37 39 42
68 68 66 62 55 64 75 83 52 48 58 77 72 70 80 48 43 46 52 51 50 55 54 76 94 94 49 71 50 47 38 38 34 36 26 23 27 30 35 38 42 46 47 50
61 63 63 60 53 68 98 66 48 50 47 88 78 80 73 62 50 58 44 55 48 53 70 90 80 58 63 68 59 50 37 28 48 45 32 39 33 42 51 54 58 67 67 63
64 64 63 58 54 72 86 64 60 54 53 78 81 87 85 77 67 62 60 58 53 47 60 84 53 63 53 89 52 37 44 50 54 44 52 54 53 58 64 63 62 62 63 61
62 62 60 56 52 65 72 51 51 47 55 66 84 80 86 90 76 84 74 73 69 50 59 83 67 61 51 94 56 53 58 61 66 67 67 57 63 62 66 72 81 91 95 96
60 62 64 65 69 72 65 51 52 51 62 72 85 91 89 83 86 88 84 88 71 78 81 90 79 74 75 71 60 61 65 66 71 65 69 65 67 70 80 91 95 94 97 97
65 66 68 78 68 61 56 64 60 71 67 67 88 96 96 85 93 94 94 84 94 85 94 84 75 90 87 67 66 68 74 74 73 69 68 72 79 89 99 98 95 89 97 100
75 78 70 66 64 65 66 64 73 87 88 85 99 88 97 80 98 100 90 98 93 95 89 81 95 83 69 76 79 77 75 70 75 78 78 82 90 98 100 98 93 98 97 92
44 59 75 71 65 62 51 76 73 64 87 91 95 93 89 98 91 99 99 97 95 99 86 86 96 94 74 84 88 95 89 82 83 85 91 95 98 100 99 98 97 96 84 76
48 58 63 58 53 59 94 99 95 87 91 98 97 98 96 99 94 88 93 98 93 94 76 97 84 84 95 100 99 99 94 91 93 94 96 93 93 96 87 76 56 46 44 48
46 49 49 72 92 100 94 100 99 98 99 100 100 100 99 99 95 97 89 99 98 76 98 82 80 91 100 100 99 92 84 79 78 76 71 72 58 49 44 49 57 62 69 68
66 82 100 100 100 100 100 100 100 100 100 100 99 99 99 100 99 100 100 100 95 100 100 93 89 100 100 99 91 77 81 78 68 70 56 52 52 54 61 66 68 68 65 67
89 92 100 100 98 100 100 100 99 100 100 100 99 99 92 100 100 99 100 100 99 94 96 97 100 100 99 99 87 86 68 65 90 91 62 62 66 70 67 67 68 70 70 64
99 98 100 99 99 99 99 100 100 100 100 99 99 100 100 100 100 100 100 98 90 99 99 100 100 100 100 84 75 88 78 81 98 74 62 69 77 80 75 79 76 68 58 46
97 98 100 100 99 100 100 100 100 100 97 100 98 100 100 100 100 100 100 100 100 99 100 100 99 97 96 81 85 76 80 97 89 64 71 81 87 88 87 76 65 53 52 44

GFSNW_850_rhum_012.txt.gz
RH
100 89 74 69 87 94 100 84 67 74 67 74 46 65 41 28 21 17 18 15 13 14 16 16 15 25 20 15 14 19 14 19 46 24 16 14 17 22 18 55 37 50 60 34
100 92 76 72 87 95 99 75 71 91 65 55 66 48 39 27 24 20 23 18 17 13 17 19 16 14 31 28 19 21 18 24 44 30 24 20 21 15 18 19 41 47 69 38
98 93 84 79 83 96 100 64 83 99 94 44 44 50 38 32 24 18 19 18 16 15 17 16 19 18 32 32 26 30 29 24 25 44 26 22 28 19 14 19 60 46 40 19
98 94 83 82 81 96 100 73 58 68 91 67 47 43 35 30 24 21 19 19 16 22 24 22 23 20 36 34 38 30 28 33 25 20 18 22 23 19 18 17 21 32 27 17
99 93 88 86 83 93 100 75 50 55 56 51 54 50 40 28 21 24 25 24 19 20 25 22 25 22 35 34 37 31 31 43 41 44 27 24 27 22 19 16 15 16 15 16
100 94 97 92 94 98 99 77 60 45 56 53 54 52 35 27 22 21 20 20 21 22 27 29 35 32 28 26 38 41 42 64 62 54 38 43 54 42 26 23 16 16 24 18
97 84 81 96 97 96 86 72 66 59 63 48 48 42 29 24 21 29 24 22 25 40 35 35 34 32 32 34 37 32 66 60 66 72 68 67 23 16 16 19 17 14 13 13
89 85 86 95 100 98 96 68 76 71 87 48 38 40 31 21 18 28 26 44 42 38 38 51 56 69 62 40 28 34 38 60 74 96 56 30 22 15 17 18 20 18 19 19
80 84 95 97 100 95 96 89 81 91 68 55 32 30 24 32 43 50 57 46 42 39 56 72 50 60 40 48 45 29 35 57 72 66 80 78 35 23 24 21 34 20 20 23
82 91 94 99 98 94 100 93 95 98 68 39 29 30 30 23 45 53 51 58 55 53 88 95 69 61 30 54 63 87 75 78 86 72 87 65 22 22 23 38 48 29 30 27
87 84 88 89 96 100 100 81 83 98 57 32 28 24 22 25 37 67 53 56 53 66 80 87 69 81 57 48 34 59 65 80 92 82 98 88 21 25 43 43 30 28 29 30
83 78 86 84 92 100 100 97 89 71 82 60 43 39 35 28 25 42 56 40 49 54 56 74 81 93 90 69 69 30 53 48 62 55 62 31 21 24 24 27 30 32 33 34
85 92 75 81 96 97 88 74 77 88 65 65 38 54 45 31 33 49 48 46 39 41 46 75 89 93 86 94 75 44 34 33 52 47 21 22 23 24 26 28 32 35 39 42
91 80 86 94 97 79 96 96 100 74 52 90 76 62 56 35 35 43 52 54 45 50 60 83 99 97 52 88 60 70 42 34 35 36 30 24 23 36 38 42 46 50 59 59
96 93 88 86 75 77 82 98 99 87 43 80 78 76 70 47 39 41 52 59 51 61 77 93 90 60 79 77 68 68 36 34 62 70 42 45 42 53 59 59 60 58 58 56
94 81 74 74 77 80 94 99 74 58 64 73 88 84 75 67 61 63 62 62 54 51 71 83 54 55 60 96 72 31 46 48 52 46 57 57 59 60 63 64 66 69 70 75
73 72 73 71 75 80 100 71 60 54 53 62 91 86 82 66 66 66 65 61 55 53 59 80 68 57 59 98 75 48 53 56 62 61 65 62 60 64 72 88 93 85 88 89
67 68 68 72 75 97 80 64 58 56 57 66 88 100 86 82 84 87 76 73 66 75 80 81 79 76 73 85 54 55 61 60 64 62 63 63 67 77 93 98 91 89 96 98
74 79 80 83 84 89 74 72 67 63 64 88 88 94 100 83 92 92 91 78 96 82 99 82 74 87 89 60 58 62 68 66 66 63 67 73 82 91 98 99 95 94 92 88
77 78 74 80 83 77 60 60 66 63 72 68 100 95 96 85 98 96 93 93 95 95 91 77 94 84 64 68 70 69 68 70 70 72 75 82 86 96 98 97 93 93 95 92
78 72 94 84 71 76 74 81 82 85 100 87 90 96 96 94 97 100 99 100 100 99 87 89 86 86 68 73 81 80 75 74 78 84 88 94 99 97 95 93 87 77 61 45
62 65 71 68 66 76 94 100 97 96 97 98 98 95 94 95 83 93 96 100 99 91 82 98 83 82 79 91 94 86 81 84 87 91 93 94 92 89 86 66 48 50 54 59
61 60 64 75 95 100 100 100 100 99 100 99 96 100 96 97 89 88 86 97 96 73 98 83 86 86 97 100 91 84 83 82 83 78 79 71 60 47 43 50 65 88 67 64
63 88 100 100 100 100 100 100 100 100 100 100 100 100 99 99 100 100 100 100 85 100 100 86 92 95 100 96 87 81 79 66 67 64 45 45 49 54 58 60 62 64 64 64
94 92 100 100 99 100 100 100 100 100 100 100 99 98 98 100 100 100 100 100 100 84 96 98 100 100 99 95 96 87 73 70 72 58 52 59 63 65 63 67 70 70 64 54
98 98 100 99 99 99 99 100 100 100 99 99 96 100 100 100 100 99 99 97 95 100 100 100 100 100 100 100 98 78 76 94 91 63 62 70 78 79 78 81 75 66 60 53
99 99 99 100 99 100 100 100 100 100 91 100 99 100 100 98 100 99 100 100 100 100 100 100 99 99 99 98 93 84 87 95 93 69 73 80 87 91 88 83 72 65 68 56

GFSNW_850_rhum_015.txt.gz
RH
72 92 98 90 90 75 99 100 93 66 62 96 82 87 65 47 39 35 35 20 21 22 23 24 25 27 36 25 20 34 47 57 76 50 25 20 20 24 35 63 36 72 76 53
64 97 98 99 84 78 99 94 81 86 53 75 89 56 55 53 46 42 30 27 23 22 27 42 23 35 31 26 28 27 32 34 61 42 35 31 23 21 20 40 62 51 66 51
72 99 98 100 84 79 100 92 86 98 97 53 58 57 54 60 44 43 32 27 28 27 28 31 30 47 36 31 36 28 30 35 43 57 41 32 32 27 23 31 67 54 62 36
99 99 98 100 94 80 100 94 69 73 95 91 71 50 48 54 55 37 29 30 30 30 24 24 27 48 46 38 36 31 39 41 30 34 36 29 26 29 29 22 35 45 38 34
99 99 96 100 96 86 100 94 58 67 72 71 79 55 55 50 43 38 34 36 29 27 28 34 30 40 46 46 43 37 38 61 43 42 39 42 38 35 32 31 25 22 24 26
86 85 83 100 93 98 98 97 58 59 74 75 74 54 54 44 39 33 22 32 33 33 37 33 36 34 45 43 52 50 52 68 69 58 49 45 53 37 33 32 29 26 29 24
76 79 80 98 98 98 98 92 76 68 83 71 58 47 48 44 42 45 26 24 38 39 33 33 34 38 62 62 73 49 65 66 77 76 67 51 39 24 20 27 26 27 29 32
73 80 99 99 97 99 98 87 86 77 99 63 51 51 48 44 37 37 44 43 33 32 36 75 62 78 44 56 48 62 67 78 84 72 79 49 33 25 27 24 32 30 34 32
89 98 98 98 96 98 97 93 95 97 96 71 44 47 44 62 53 70 60 50 40 36 90 77 62 79 53 62 44 54 49 69 72 82 80 64 51 28 23 23 52 36 32 37
98 100 99 96 90 99 97 98 100 100 93 58 44 46 51 44 61 85 80 66 54 51 99 97 76 73 48 74 73 73 86 81 80 94 88 74 44 26 23 43 54 32 31 35
98 100 93 86 86 96 100 96 99 100 100 59 54 36 41 40 52 83 70 84 68 89 86 87 86 95 70 69 64 71 74 92 97 98 99 83 28 27 36 55 34 32 32 33
99 97 88 85 95 92 98 100 86 100 100 83 66 41 33 33 37 46 53 47 60 62 86 96 98 99 96 74 75 48 74 73 82 73 81 50 24 28 30 29 30 33 37 44
84 78 77 88 84 75 91 89 99 99 99 75 83 55 44 40 38 34 49 55 43 50 42 88 100 91 93 92 88 54 42 38 72 51 32 34 23 24 30 34 43 49 54 53
79 80 80 90 81 77 89 97 97 100 97 100 82 66 48 55 52 49 41 43 46 43 41 92 99 100 74 93 72 79 60 41 48 51 36 50 54 53 52 52 55 60 60 59
72 80 85 79 87 88 94 99 97 90 98 98 80 63 65 45 48 46 45 49 46 52 64 93 94 83 82 90 86 79 45 53 70 79 53 64 64 60 58 57 58 57 57 57
87 89 88 92 89 91 99 98 89 97 92 93 98 75 66 48 43 35 44 54 54 56 62 86 65 60 63 94 90 56 52 51 48 62 59 58 62 60 60 59 63 63 62 71
92 83 99 94 93 100 96 100 96 94 93 75 97 97 73 65 63 62 63 57 60 61 74 79 69 62 71 98 88 58 59 60 60 64 62 67 66 86 76 73 79 77 77 75
98 98 96 96 99 89 92 93 78 74 65 64 99 100 88 77 82 79 75 71 70 78 84 79 87 78 83 90 65 59 63 61 62 61 65 72 86 84 88 86 81 81 88 94
100 94 96 100 99 97 94 70 63 54 53 94 99 100 100 87 94 90 83 83 100 88 100 94 79 99 97 73 67 64 66 66 66 70 74 80 85 96 94 92 90 88 87 83
77 82 87 94 93 72 63 54 52 54 67 69 100 92 100 91 97 98 91 90 100 100 98 78 100 96 70 70 69 69 70 64 67 75 90 90 96 95 94 92 89 83 80 79
91 88 99 94 80 64 64 76 86 83 100 93 98 89 100 99 99 98 98 100 99 99 93 94 98 100 78 76 74 72 73 71 72 74 83 87 94 94 90 88 83 78 58 42
75 80 82 72 69 67 96 100 99 97 97 97 100 99 96 93 90 98 97 100 97 100 88 98 93 92 86 81 80 82 81 84 87 88 92 97 93 86 82 69 52 47 50 57
62 59 65 72 96 100 95 99 99 97 100 99 100 100 98 93 86 99 100 100 99 84 100 96 98 94 89 85 83 86 85 86 87 91 86 86 87 69 46 47 55 60 61 62
62 87 98 100 99 98 99 99 99 100 100 100 99 99 100 100 100 100 95 100 97 100 99 95 99 100 94 89 85 88 88 83 83 83 69 47 43 48 58 66 70 64 62 56
86 90 99 98 100 100 100 100 99 100 100 99 99 100 97 100 100 100 99 98 93 91 98 100 100 96 97 89 86 76 74 70 54 48 49 53 55 56 58 66 69 68 61 55
94 98 98 100 99 99 99 99 100 99 99 100 99 100 100 99 100 98 100 96 99 100 100 100 100 100 100 98 88 92 97 94 58 57 60 66 70 71 70 76 72 67 64 60
99 99 99 100 99 100 100 100 100 100 99 100 100 98 99 100 100 99 99 99 100 100 100 100 100 100 100 100 100 98 98 88 66 61 74 83 91 88 85 80 76 75 73 67

GFSNW_850_rhum_018.txt.gz
RH
79 99 93 72 85 88 91 98 95 81 80 92 79 84 64 50 49 44 50 41 43 29 31 31 33 30 26 27 37 39 47 54 74 45 34 22 30 30 33 60 35 77 78 51
78 98 82 72 85 85 93 95 87 89 78 91 89 68 64 55 49 49 48 41 34 24 32 32 31 31 31 29 29 38 46 48 64 49 33 32 30 26 32 47 62 55 68 52
99 98 86 63 88 89 94 91 90 97 99 69 60 72 74 70 47 53 51 49 42 30 31 32 39 44 38 36 33 32 30 41 41 56 42 38 35 30 30 41 69 57 64 36
94 92 88 60 87 98 99 88 73 69 92 88 61 60 63 68 58 49 42 46 48 42 35 39 37 49 45 41 35 35 41 41 36 35 36 33 30 31 31 33 36 46 38 40
87 75 67 60 94 100 100 79 78 73 82 67 80 63 60 55 46 47 46 51 46 39 31 36 44 50 51 46 43 36 45 45 44 41 44 38 34 34 35 34 28 36 30 31
78 65 56 63 100 100 97 97 76 66 66 76 82 76 55 49 42 42 39 42 44 40 35 31 31 31 35 45 49 52 53 70 67 54 55 45 61 40 34 32 31 31 38 29
64 59 56 65 99 100 96 97 86 76 83 79 76 65 52 48 45 43 38 35 44 37 36 44 44 49 56 62 71 53 64 67 76 77 61 65 46 32 30 35 34 36 36 35
58 53 69 98 99 100 100 95 97 91 94 78 72 64 57 44 40 50 38 41 32 32 35 67 58 78 55 63 56 65 66 79 87 70 74 53 36 25 26 32 38 35 38 35
67 67 93 98 97 100 98 99 98 100 99 78 64 64 49 57 58 55 56 44 42 36 88 74 63 64 55 63 48 53 68 80 81 91 71 63 49 34 25 31 59 37 38 41
68 86 85 82 89 98 100 100 100 99 99 64 60 59 53 42 65 59 77 58 58 50 97 87 77 76 54 71 67 68 84 87 77 96 78 67 47 34 24 34 44 37 38 38
69 77 80 70 76 98 100 98 100 98 98 91 69 48 43 47 53 79 72 77 79 94 87 85 88 81 77 77 66 70 67 86 95 96 91 63 41 29 35 43 40 34 35 37
78 76 82 82 98 98 100 99 95 99 99 96 92 72 50 40 46 47 71 54 70 72 86 94 94 89 91 73 85 60 57 67 77 71 74 48 28 31 34 32 33 36 40 45
86 89 88 90 98 98 97 100 94 98 98 91 92 75 66 43 40 41 49 60 51 54 51 92 98 70 92 83 83 62 51 56 74 60 44 47 34 35 33 32 36 48 50 53
99 96 95 99 98 99 93 100 98 99 99 100 79 76 74 56 39 41 42 34 40 52 57 93 99 88 73 88 68 76 61 48 56 57 67 63 66 59 56 56 56 56 58 58
99 100 100 99 99 97 94 98 96 92 100 100 93 78 82 58 56 50 42 42 44 48 62 95 87 89 84 95 83 82 50 56 69 69 47 58 71 64 60 58 61 60 57 59
99 98 98 95 98 98 97 100 90 90 100 100 99 89 76 71 56 42 48 60 50 51 64 94 73 71 63 84 87 59 53 44 33 65 58 55 67 65 64 57 62 64 62 65
98 98 98 98 98 98 97 87 88 79 91 93 99 99 81 81 75 72 72 62 65 69 84 83 73 71 65 96 86 66 66 57 54 52 57 76 71 79 74 68 75 75 77 75
81 91 99 92 100 99 95 90 100 97 98 94 99 100 97 91 84 91 83 79 77 83 90 87 94 87 85 82 72 68 68 67 66 64 62 63 79 83 83 80 77 76 78 80
87 92 99 100 100 96 76 92 96 92 95 99 100 100 100 93 97 92 88 80 100 94 97 98 80 100 96 78 74 72 64 59 89 80 75 85 84 87 86 83 84 83 86 83
82 99 99 83 88 99 92 98 99 88 81 74 100 100 100 91 99 100 98 99 100 94 98 90 99 98 81 73 68 67 71 67 74 89 98 92 94 92 90 86 84 82 81 79
100 97 97 98 96 95 98 96 87 86 100 99 99 100 99 98 98 100 99 100 99 92 91 87 98 99 85 81 73 74 72 70 69 68 81 83 83 89 88 89 84 80 72 60
87 90 90 96 99 91 94 100 98 96 99 96 100 100 100 99 87 99 99 100 98 97 95 92 96 97 89 82 81 78 76 74 77 78 85 91 90 88 89 83 78 58 44 47
84 85 85 80 93 94 99 98 99 99 100 100 100 99 100 93 89 100 100 98 97 89 93 94 98 96 95 87 86 89 85 83 86 91 92 91 88 82 78 55 49 50 53 59
70 83 99 98 96 99 99 99 99 100 100 100 100 100 100 100 100 100 100 100 96 99 99 95 99 98 96 92 92 84 87 85 86 88 88 86 81 55 49 54 56 58 58 51
91 94 99 99 100 100 100 100 99 99 100 100 100 100 98 100 100 100 99 99 99 98 98 99 99 100 96 99 88 84 89 88 86 81 73 55 51 55 66 72 69 64 57 54
90 98 98 99 99 99 99 99 99 100 100 100 100 99 98 99 99 98 99 96 99 99 99 100 100 98 93 97 97 99 92 65 74 53 51 56 60 61 65 72 68 64 63 61
99 99 99 99 99 99 100 100 100 100 100 100 98 96 100 99 97 99 98 99 99 100 100 100 100 99 100 100 98 99 98 90 57 62 71 75 77 76 76 75 76 74 72 66

GFSNW_850_rhum_021.txt.gz
RH
63 100 100 98 84 83 98 98 96 87 76 99 85 84 63 49 43 46 54 54 55 39 33 33 34 32 25 21 36 35 42 46 58 34 32 31 31 34 36 62 39 78 78 53
79 100 100 99 82 90 96 94 90 84 78 94 91 70 66 55 46 51 54 55 46 34 37 34 36 36 26 32 36 44 47 49 64 47 36 35 34 31 40 50 63 60 69 48
76 98 99 98 89 75 100 84 96 97 93 77 68 75 73 74 56 55 53 58 51 44 33 32 43 42 40 37 36 28 31 47 43 47 43 42 39 35 35 42 71 57 64 36
84 89 99 94 72 72 99 97 71 73 92 88 76 63 65 70 67 56 45 57 61 57 48 39 40 48 46 43 42 45 40 41 36 35 32 37 33 34 38 38 38 47 40 48
95 85 96 81 70 76 100 87 80 67 77 71 76 74 68 64 61 59 57 48 46 45 60 44 45 50 49 46 42 39 47 48 41 47 43 42 37 36 38 38 33 39 35 34
95 87 89 81 87 92 99 93 82 69 66 76 77 72 64 59 57 56 48 46 52 56 51 37 29 38 38 42 51 53 51 67 65 50 54 46 61 46 39 34 33 33 40 34
89 90 92 96 90 75 97 97 98 92 76 79 72 62 58 58 54 55 45 39 49 44 38 45 45 50 59 65 75 54 65 64 74 72 64 69 42 36 34 36 37 36 39 43
84 89 94 90 75 76 82 98 99 97 98 65 71 64 64 54 50 53 43 39 28 35 43 65 66 75 59 59 64 73 63 78 83 73 76 53 39 32 39 37 36 36 48 53
87 86 82 72 67 77 82 99 98 100 100 80 61 68 60 68 62 58 51 39 34 46 82 83 67 74 66 68 59 60 66 76 77 88 70 69 53 37 28 36 58 36 42 51
86 83 69 60 75 69 82 100 100 99 97 73 65 72 67 58 57 59 61 68 66 52 98 88 79 72 57 70 73 68 84 88 84 96 80 66 45 35 26 42 48 37 37 38
80 68 60 58 62 70 98 98 100 100 96 87 85 66 61 61 54 65 63 71 80 93 80 87 85 84 77 73 62 66 75 89 95 92 77 58 37 36 35 42 42 34 38 38
81 80 58 66 83 83 100 100 100 98 99 93 87 88 72 81 51 50 64 53 72 64 88 96 95 92 92 77 83 62 56 68 77 70 68 46 39 31 25 31 33 36 35 37
83 98 100 98 99 98 97 98 97 100 100 96 81 69 67 76 58 45 59 66 63 60 50 90 96 78 90 82 84 69 57 60 68 62 51 51 41 38 34 33 33 36 38 46
70 73 90 84 83 82 96 99 96 98 96 100 87 94 88 80 60 51 41 42 51 51 59 87 97 85 75 85 70 77 66 63 67 70 73 68 58 43 36 36 39 43 52 55
70 78 75 80 84 88 91 94 99 100 91 100 96 77 85 90 59 46 48 47 48 54 80 95 85 89 85 97 84 85 59 62 74 76 60 51 63 58 52 50 58 59 58 58
81 72 72 75 96 99 98 99 97 98 100 99 100 86 78 89 70 47 49 46 48 52 51 95 82 76 64 85 88 56 46 42 36 44 48 52 62 66 63 58 60 60 58 60
78 80 91 99 100 87 99 91 74 68 96 96 99 95 92 96 93 78 82 77 66 60 80 85 81 82 60 93 80 57 57 52 44 44 48 79 72 73 69 64 66 66 67 70
99 94 99 99 83 85 92 74 98 90 87 92 100 99 99 97 97 99 85 83 92 92 99 88 95 94 87 72 72 77 71 66 68 65 56 57 72 74 76 76 78 77 78 79
99 100 99 100 99 98 92 95 98 100 94 100 100 100 100 89 100 99 98 89 100 99 100 100 86 100 90 83 81 82 77 67 83 77 70 78 76 85 84 79 76 74 81 80
99 99 99 99 88 77 76 88 94 100 94 96 100 100 100 97 99 100 100 99 100 97 99 95 97 97 85 84 77 76 75 72 76 87 100 95 94 87 85 82 81 80 81 82
100 99 92 99 90 96 90 99 100 99 100 100 98 100 100 96 98 100 99 100 99 90 97 96 99 99 90 89 77 71 69 70 73 66 72 77 75 84 85 85 82 80 77 73
94 100 92 93 93 98 100 100 100 98 99 98 100 100 100 100 92 98 96 99 96 93 95 93 98 96 97 91 86 83 79 78 75 76 82 85 85 84 83 84 82 76 68 48
100 91 92 97 100 99 99 99 100 99 100 100 100 100 99 92 87 99 99 96 99 88 96 97 97 100 100 96 91 90 86 80 81 88 87 86 88 88 84 82 75 53 46 52
93 98 99 99 98 99 99 99 99 99 100 100 100 100 100 98 100 100 99 100 97 98 98 97 99 100 100 99 89 85 91 90 88 92 92 91 90 84 76 53 48 51 53 50
98 99 98 99 100 100 100 100 100 100 100 99 95 99 94 100 99 99 100 99 99 98 98 100 100 100 98 99 99 95 97 99 99 99 99 97 82 62 59 65 65 59 51 47
87 98 98 99 97 98 99 100 100 100 100 99 96 99 99 99 99 99 98 97 99 99 99 100 100 100 97 96 98 100 100 100 99 99 98 84 63 62 66 71 66 59 57 59
92 99 100 100 100 100 100 100 99 100 98 99 98 98 98 97 95 97 100 98 99 99 100 100 100 99 100 100 100 100 99 98 97 94 70 72 76 71 68 66 67 68 70 68

GFSNW_850_rhum_024.txt.gz
RH
99 97 80 56 88 100 88 98 93 76 86 97 83 76 67 52 52 49 55 56 63 56 38 39 37 35 28 22 34 34 41 44 54 36 31 32 30 35 42 62 44 78 78 54
100 100 83 62 82 100 92 94 87 82 90 91 89 66 63 61 52 51 57 62 57 44 36 33 38 36 26 27 33 41 45 44 57 40 32 36 35 37 43 53 64 66 70 53
100 100 87 75 75 100 84 100 93 97 94 58 66 71 69 72 56 54 52 61 57 51 48 42 35 37 40 37 30 30 30 49 39 38 33 40 40 39 45 46 70 60 67 41
100 100 93 84 96 100 94 99 84 76 90 86 72 60 60 72 67 54 51 62 66 54 56 41 45 49 50 44 46 43 39 40 42 37 36 41 39 34 47 44 44 49 41 46
100 99 92 94 99 100 96 97 82 70 84 70 73 72 67 69 63 66 67 62 55 61 68 49 39 49 52 47 49 48 49 46 40 45 46 42 41 39 43 41 39 41 40 40
100 98 84 95 100 98 98 100 82 84 67 75 77 69 64 62 57 57 52 53 53 59 51 38 37 38 44 47 52 57 51 67 62 50 54 45 61 50 44 43 40 39 46 38
100 100 98 100 100 96 90 94 95 91 85 78 71 60 61 61 59 61 52 53 57 44 38 44 52 55 65 65 71 55 64 62 70 75 64 64 41 38 36 41 38 37 36 38
100 100 94 95 92 90 77 82 95 98 93 73 70 64 65 59 54 60 56 51 45 43 48 65 64 76 56 63 73 72 61 74 78 70 74 51 39 39 42 41 38 41 43 56
100 100 96 86 98 91 85 85 83 99 99 81 62 67 61 68 63 66 60 54 44 46 74 82 81 84 69 72 61 61 66 74 71 80 70 67 52 37 31 32 49 44 52 63
100 100 97 91 92 88 84 78 96 98 98 93 69 72 68 57 59 67 62 54 58 51 93 87 83 75 64 77 73 78 86 90 80 95 79 72 51 34 28 44 48 39 44 50
99 98 91 88 90 92 100 89 90 99 99 92 90 65 60 60 59 73 64 69 75 94 82 91 85 91 79 74 64 74 78 90 88 88 80 75 37 38 43 44 32 34 40 43
97 91 90 92 99 100 99 87 67 99 100 97 98 94 77 74 57 58 54 55 79 70 87 94 94 90 93 74 78 62 63 69 77 70 72 49 38 35 25 24 29 34 37 38
94 95 91 94 86 90 85 84 73 99 100 91 93 70 72 75 69 57 58 57 62 61 46 86 94 84 90 85 81 71 60 58 63 60 53 57 44 36 33 31 28 30 32 34
98 98 95 88 80 88 79 75 93 99 98 99 88 81 86 84 68 67 62 54 47 61 65 86 94 85 76 85 72 78 68 65 73 66 71 68 54 44 38 36 34 34 36 35
80 82 72 65 68 77 91 82 92 98 93 99 91 64 64 98 90 76 61 54 67 69 85 93 86 89 87 96 84 87 68 67 76 72 53 44 39 41 41 38 38 40 40 53
85 80 70 82 90 95 99 100 100 100 96 96 99 84 76 86 92 81 73 57 63 60 62 86 76 72 68 89 87 56 47 43 35 42 42 46 44 50 49 47 54 57 57 55
86 90 97 98 94 86 98 95 93 99 99 98 99 99 87 91 98 99 89 78 71 66 74 87 87 88 65 91 73 48 48 47 44 40 46 71 66 63 64 57 62 63 61 62
71 71 78 86 85 88 95 72 66 76 96 97 99 94 92 85 100 100 99 89 84 93 99 91 97 93 87 78 69 78 73 64 62 61 48 42 58 69 69 65 65 65 67 69
73 73 80 94 100 94 78 76 81 70 75 97 99 100 98 86 99 100 91 89 99 100 100 100 95 100 87 69 84 86 90 69 73 71 62 67 67 76 76 72 71 68 80 81
93 90 99 98 86 76 72 99 100 99 99 100 100 100 100 92 94 99 99 97 100 100 100 93 98 96 88 86 75 74 79 75 75 79 100 95 95 83 84 79 78 74 77 78
100 98 97 75 80 82 81 100 100 100 99 100 92 100 100 99 98 100 99 100 99 98 99 97 99 98 88 90 87 79 71 77 75 63 66 78 70 79 81 81 77 76 79 80
91 92 97 92 96 99 99 99 100 100 95 100 100 99 99 99 97 97 99 99 98 94 95 98 99 96 100 98 95 90 84 85 80 76 78 82 81 80 79 81 83 81 80 82
100 92 90 98 100 99 99 98 99 96 99 100 100 100 100 97 87 99 100 98 99 94 98 97 96 100 100 100 99 96 92 84 82 86 82 82 83 86 94 94 92 85 69 67
98 94 98 99 98 98 99 99 99 100 100 100 100 100 100 99 100 100 99 100 97 98 98 95 99 100 100 100 100 92 94 91 88 88 89 93 100 100 99 98 97 93 78 59
99 99 98 98 100 99 100 100 99 100 100 100 100 100 98 100 99 99 99 98 99 99 99 99 100 100 100 100 100 100 100 100 100 100 100 99 99 98 96 95 89 65 52 48
97 98 98 99 97 97 98 100 100 100 100 94 93 99 99 99 99 92 97 98 98 98 99 99 100 100 100 99 100 100 100 100 99 99 99 98 98 97 95 90 67 56 50 48
98 98 98 99 99 98 98 99 99 100 98 99 99 97 97 98 96 96 97 98 98 99 99 99 100 99 99 99 99 100 99 99 99 98 98 97 97 94 82 65 60 58 61 63

GFSNW_850_rhum_027.txt.gz
RH
96 100 100 99 83 75 89 100 96 77 77 95 81 80 64 54 52 51 54 59 64 65 40 44 42 38 31 24 31 33 37 44 49 37 33 31 32 36 40 53 44 56 56 41
100 100 100 100 87 78 99 99 82 76 63 87 81 69 62 53 58 51 58 60 57 51 48 39 40 38 28 29 34 39 42 42 45 35 31 36 36 36 39 48 55 57 62 39
100 100 100 100 88 83 100 100 97 97 97 71 66 72 72 66 54 51 52 60 58 55 52 46 36 40 37 32 31 27 31 46 40 38 34 34 44 41 41 42 55 52 50 36
100 99 100 100 98 92 100 100 96 82 94 84 74 61 59 66 65 58 51 60 54 61 58 48 49 45 52 46 45 42 40 41 43 35 30 36 34 36 43 38 40 46 37 40
92 100 100 100 99 94 100 100 94 73 71 68 71 72 65 67 61 53 64 58 55 51 63 55 49 48 52 52 56 50 50 46 42 39 44 42 42 39 39 39 41 40 37 38
73 99 100 100 100 99 99 96 70 67 67 75 76 69 64 61 56 55 49 51 54 66 54 49 50 41 39 48 47 56 54 64 56 48 54 46 60 51 43 42 39 38 44 35
68 89 100 100 99 89 94 97 72 81 87 77 69 61 61 58 58 61 53 54 60 50 41 45 52 56 67 64 66 55 62 60 63 67 62 68 37 39 36 38 38 36 36 34
78 82 100 100 97 90 96 92 74 70 90 71 69 64 61 58 54 59 54 54 56 48 46 68 57 77 62 66 67 63 58 68 73 74 62 48 37 40 40 40 29 34 34 38
86 86 100 100 94 99 98 88 77 68 76 85 58 66 58 65 68 72 58 57 58 53 78 81 85 80 70 73 67 61 64 64 62 72 63 61 46 35 35 31 42 35 38 49
84 99 98 100 87 100 99 88 81 79 98 91 81 65 69 56 60 70 70 60 64 58 83 89 84 79 65 77 79 82 75 76 69 75 72 61 44 36 29 47 39 37 41 50
93 100 100 95 95 100 98 95 80 90 99 97 94 73 63 60 58 71 68 68 68 90 82 88 86 86 73 71 67 75 74 76 83 78 80 63 42 37 45 41 31 29 46 49
99 99 100 100 98 100 98 95 86 81 83 99 99 92 87 81 54 54 54 55 63 64 81 89 88 91 95 72 68 63 72 65 69 63 63 53 36 32 26 24 26 33 41 48
100 100 100 100 100 100 99 91 83 88 88 94 98 76 82 80 66 51 58 58 60 54 42 82 88 83 85 88 77 69 64 60 61 58 51 51 39 32 32 28 26 30 37 39
100 100 100 100 100 100 99 96 86 83 93 98 90 92 89 80 75 64 51 54 50 68 65 80 94 87 70 84 69 76 64 58 64 61 53 65 50 42 32 32 31 34 40 41
100 100 100 100 99 99 99 94 74 65 85 99 94 66 71 76 81 73 63 54 69 64 81 95 87 86 83 95 82 79 66 62 66 62 37 39 36 29 35 36 35 35 36 45
100 97 98 97 99 100 100 96 70 70 83 100 100 80 80 99 85 77 75 65 61 73 73 86 75 72 70 89 82 54 45 39 38 41 34 36 31 34 36 37 37 39 40 39
94 93 92 91 92 88 79 95 79 47 94 100 100 98 90 94 100 100 100 95 88 69 67 89 82 90 77 91 72 47 44 44 42 38 43 53 47 51 48 42 45 49 51 51
79 70 65 70 68 66 99 98 52 85 100 97 99 98 94 94 100 100 100 100 91 84 82 92 94 96 90 83 62 51 51 51 51 55 48 51 44 50 55 55 55 62 62 62
75 79 77 93 99 99 86 99 94 96 84 98 98 100 99 98 100 99 100 94 100 99 100 99 89 100 89 69 64 72 76 70 69 65 68 57 60 63 68 67 70 63 72 72
98 99 98 91 87 96 92 100 99 100 78 79 99 98 100 96 99 100 100 100 100 100 99 99 100 96 85 86 80 76 75 72 68 73 90 95 86 86 86 81 78 70 72 76
98 98 98 80 88 94 93 100 99 99 100 99 91 93 100 98 98 100 96 100 100 100 98 98 99 98 90 94 90 87 82 73 69 67 67 72 80 81 80 84 82 81 84 87
95 90 84 82 74 89 99 100 100 100 98 100 100 99 99 100 96 96 99 100 99 98 95 100 100 99 99 100 98 93 89 85 84 95 81 81 86 88 81 84 90 90 92 96
88 67 85 95 99 100 97 98 99 100 100 100 100 100 100 100 97 100 99 100 99 99 99 99 100 99 100 100 100 99 92 99 92 84 83 88 92 90 83 85 92 98 98 98
97 88 97 98 97 97 98 99 99 100 100 100 100 100 100 100 100 100 100 100 99 98 97 98 100 100 100 100 100 99 100 99 95 97 96 94 91 93 98 99 98 98 97 98
99 99 98 98 100 99 99 99 100 100 100 100 100 99 95 100 100 100 100 98 97 98 98 98 99 100 100 100 100 99 100 100 100 100 99 99 99 98 98 98 98 97 96 95
96 95 97 98 98 97 97 98 99 100 99 96 96 100 97 100 96 95 96 94 94 95 98 99 99 98 99 99 99 99 99 99 99 99 98 98 98 98 97 97 97 97 95 75
97 97 97 97 97 97 97 98 98 100 99 99 93 92 96 86 89 90 92 95 96 97 98 98 98 98 98 98 98 98 98 98 98 98 98 98 98 97 97 95 95 81 70 61

GFSNW_850_rhum_030.txt.gz
RH
98 95 95 99 99 100 99 97 97 96 85 95 83 93 52 33 29 39 41 39 35 38 29 29 25 25 21 21 17 25 19 22 27 22 24 24 19 20 25 33 32 36 42 27
98 100 99 100 100 100 100 95 97 98 86 88 88 52 51 41 36 35 47 42 40 43 41 37 29 24 25 26 22 20 24 27 32 24 27 27 26 24 23 28 33 30 48 26
80 100 99 100 100 100 100 96 98 100 97 58 56 45 46 49 43 34 38 41 41 47 48 41 38 32 35 32 21 23 24 21 25 30 21 18 29 24 24 26 34 28 28 20
68 98 100 100 100 100 100 98 91 88 96 74 46 43 43 53 46 39 37 42 41 46 52 43 44 37 46 38 38 24 26 25 23 18 16 16 18 17 21 24 23 25 22 21
65 66 100 100 100 100 100 96 81 76 69 61 48 48 41 50 39 32 44 46 43 40 47 36 53 44 41 41 40 32 30 27 28 29 20 22 23 18 17 19 18 17 22 22
81 70 77 100 100 100 99 95 72 59 50 63 56 54 44 41 40 33 30 30 38 42 45 40 52 56 47 41 43 41 38 34 36 33 35 33 47 32 22 21 19 21 26 22
93 81 71 100 100 99 93 86 72 76 64 59 56 46 43 42 38 40 34 36 46 51 49 53 47 44 53 50 43 40 47 43 44 41 66 79 24 26 21 22 19 21 22 20
93 86 81 95 100 99 92 86 86 67 76 54 48 52 44 39 38 39 35 50 45 47 54 49 49 58 63 56 51 49 42 43 50 72 47 29 28 29 29 30 25 19 22 19
92 92 77 98 100 99 99 87 84 70 59 56 51 58 53 52 49 48 40 47 58 61 64 64 64 64 39 50 59 51 50 49 52 60 50 63 27 20 23 23 31 17 20 21
99 83 75 100 100 100 100 93 78 76 57 58 57 65 73 46 40 48 48 59 62 64 75 93 74 54 34 40 69 80 65 61 68 55 57 35 26 24 26 37 32 23 21 23
99 76 84 100 100 100 98 91 72 77 68 79 90 78 67 48 41 56 47 59 64 74 79 72 69 83 62 42 37 60 57 63 73 54 75 64 30 30 31 26 33 29 32 29
97 81 90 100 100 100 100 99 83 73 74 96 83 86 95 78 44 43 59 41 45 52 58 59 53 96 94 47 64 52 62 47 48 43 38 31 32 24 27 32 27 34 33 36
81 86 98 100 100 100 99 100 95 81 72 78 89 93 94 80 65 51 51 47 48 53 47 60 69 91 79 93 55 43 50 48 50 49 29 34 36 30 36 34 32 33 35 42
89 93 100 99 100 100 99 97 93 73 72 71 62 88 85 85 78 60 62 50 55 63 57 58 73 82 53 66 50 57 40 49 41 43 34 44 42 37 33 38 39 38 41 47
100 100 100 100 100 100 97 81 72 80 64 79 71 61 70 86 88 88 77 75 64 70 73 83 72 62 67 70 64 60 44 42 54 49 29 31 23 32 40 41 43 40 45 52
100 100 100 100 100 98 92 97 85 72 60 84 100 98 94 89 81 80 80 68 69 71 59 69 54 73 65 86 58 30 42 41 38 33 36 39 31 28 46 46 46 48 51 52
99 100 100 100 99 96 96 83 73 78 68 85 99 98 92 98 100 100 83 71 67 65 68 68 59 72 66 87 66 30 37 36 47 39 45 46 42 45 34 54 50 53 58 60
100 99 97 95 98 95 83 84 60 57 70 75 100 99 99 100 99 99 96 90 87 78 68 78 67 79 81 80 46 40 50 50 54 49 48 51 53 46 52 51 54 59 64 66
98 97 99 99 100 94 80 97 99 69 71 97 99 100 97 96 100 100 100 94 100 99 96 82 71 80 78 62 60 50 59 65 60 64 62 60 68 73 75 75 75 73 81 84
77 80 76 89 79 87 99 99 100 93 96 95 92 87 94 93 99 100 99 100 100 100 97 97 98 72 72 84 86 82 80 78 68 72 82 84 77 84 87 86 88 88 93 98
78 92 96 95 74 100 100 99 98 98 95 92 78 77 84 98 86 95 99 100 100 100 94 94 97 83 74 96 98 81 80 83 85 80 65 67 64 80 86 92 91 98 100 100
98 96 89 99 96 83 95 97 93 95 86 98 99 96 86 93 99 89 96 97 99 100 98 99 98 98 100 99 100 100 97 93 85 82 81 82 87 93 84 83 88 99 100 100
93 76 95 98 98 100 96 94 96 100 100 100 94 100 98 100 97 99 92 100 100 98 99 99 100 98 99 100 100 100 100 100 100 100 97 96 94 97 98 99 100 98 99 99
98 96 98 100 97 96 96 97 100 98 100 100 100 98 100 100 100 100 100 100 100 100 95 94 92 99 99 99 99 99 99 100 100 100 99 100 99 100 99 99 98 98 98 98
98 93 94 96 99 98 99 98 99 99 99 100 100 100 98 100 100 100 100 99 93 89 90 91 97 97 98 98 98 97 98 98 98 98 98 98 98 98 98 98 98 98 97 97
96 95 91 93 94 94 96 97 98 99 100 100 100 100 99 95 88 92 92 79 87 89 91 97 98 97 98 98 97 97 97 97 97 97 97 98 98 97 97 98 97 97 97 96
96 94 97 97 96 95 97 97 97 98 99 97 86 85 94 69 76 83 81 88 90 94 96 98 97 97 98 97 97 97 97 97 97 97 97 97 97 97 97 95 96 96 96 96

GFSNW_850_rhum_033.txt.gz
RH
92 94 98 100 98 99 100 100 97 74 81 98 90 84 58 31 25 17 20 25 27 21 21 28 20 21 17 14 13 19 18 19 27 23 16 13 16 20 21 34 34 33 35 28
97 93 99 98 100 100 100 97 94 85 88 96 92 61 46 32 23 26 24 26 32 29 24 27 26 20 15 19 19 19 19 23 34 25 18 18 21 22 23 24 24 44 59 28
98 98 95 93 100 100 100 99 98 99 98 82 60 54 47 41 28 20 23 22 26 27 38 29 29 26 22 19 19 18 22 21 25 33 22 18 23 19 18 22 40 34 31 21
83 96 88 93 100 100 100 100 88 94 95 89 58 42 39 36 29 20 22 25 35 34 28 27 31 30 28 33 26 26 24 32 26 20 16 14 15 17 18 21 22 31 25 20
84 75 72 78 98 100 100 99 82 78 68 73 57 52 42 33 26 22 29 30 32 49 52 34 50 38 40 30 27 29 26 32 25 22 16 14 16 14 14 16 17 18 18 18
83 85 76 58 98 100 100 99 68 54 53 74 59 54 44 34 26 22 24 23 26 30 31 40 62 59 58 48 42 37 30 38 37 38 20 19 32 20 17 15 13 15 21 16
89 85 87 75 76 100 98 89 60 66 65 81 55 44 37 34 26 25 20 21 27 29 41 44 46 54 44 61 45 37 39 39 42 43 59 59 26 17 16 18 15 14 13 12
94 88 94 86 68 100 100 90 63 67 81 58 51 42 37 30 26 29 26 22 22 26 38 45 49 72 64 60 45 38 42 47 52 59 47 28 20 19 21 20 19 14 15 13
91 92 99 94 78 90 100 94 67 64 63 63 43 41 36 38 33 44 30 27 42 44 48 48 45 39 33 61 61 38 38 51 58 52 52 54 28 18 16 15 29 14 14 15
98 99 100 90 77 97 100 99 74 69 64 58 51 50 46 33 34 43 56 59 58 51 68 82 50 44 23 43 92 80 69 70 76 63 51 34 19 15 16 36 29 15 16 17
99 99 99 79 72 98 100 95 80 74 79 66 90 63 43 35 41 54 43 50 62 65 66 51 39 58 39 34 29 69 67 65 72 58 60 65 19 21 26 22 17 22 21 18
98 100 94 92 83 100 100 95 92 83 82 99 90 78 66 50 37 40 45 48 51 42 43 44 37 67 78 39 46 34 60 55 48 38 38 29 24 21 21 17 20 24 22 20
89 93 90 88 99 100 99 90 85 85 98 88 73 65 75 72 71 66 49 52 36 38 35 34 54 70 58 67 53 38 44 32 45 41 32 26 26 25 21 23 24 25 26 24
95 87 74 88 100 99 100 89 84 70 81 83 74 67 75 61 75 88 75 63 40 40 41 47 63 66 28 54 46 52 37 41 42 36 28 27 30 30 27 26 30 29 29 28
80 83 100 100 100 99 99 95 85 90 66 64 54 70 63 72 82 86 75 70 60 45 55 71 69 39 40 50 56 48 32 36 51 49 28 33 29 27 27 30 32 36 32 34
98 100 100 100 98 100 95 99 98 88 82 66 76 85 71 64 68 71 84 69 65 45 49 64 50 33 34 74 54 24 22 34 32 36 35 38 34 34 33 29 30 36 35 36
100 99 100 100 100 96 95 82 77 87 75 58 58 86 91 76 81 73 75 67 56 66 56 56 52 43 56 66 71 38 31 25 27 35 44 46 36 33 44 43 38 39 39 40
100 100 100 100 99 94 90 70 88 71 68 65 77 88 99 99 97 87 78 71 63 64 63 52 55 50 66 66 39 36 33 34 47 49 57 55 58 52 53 50 51 50 45 46
99 100 100 100 98 96 99 94 80 86 69 69 98 96 100 98 99 95 93 73 78 55 73 69 56 73 80 56 51 52 65 60 64 60 64 62 61 56 59 59 58 53 55 59
99 98 87 92 98 79 77 97 89 70 71 96 100 99 100 98 96 100 98 91 98 93 88 56 68 64 68 83 82 81 78 74 70 67 62 68 68 67 67 65 64 64 68 70
87 88 96 98 93 85 96 89 75 72 85 79 78 87 99 94 98 100 97 100 98 100 99 82 67 69 93 100 100 98 94 85 78 78 74 73 71 74 77 79 80 83 86 89
96 98 94 90 96 100 96 93 98 85 67 72 79 71 74 84 99 86 95 99 100 100 99 99 99 95 98 98 99 99 99 99 97 89 87 84 85 84 90 96 99 99 100 100
94 99 99 96 94 98 99 98 92 90 94 98 97 94 84 92 96 93 88 99 100 99 99 93 93 84 99 98 99 100 100 100 100 99 100 100 100 100 100 100 100 99 100 99
99 98 99 100 97 93 96 98 100 99 100 99 100 98 99 100 100 100 100 100 99 99 93 93 86 93 100 98 98 97 98 99 99 98 99 99 98 98 98 98 98 98 97 97
96 80 94 90 95 96 99 99 99 99 100 99 100 100 98 100 100 100 99 99 91 86 89 88 94 100 100 98 96 97 97 97 96 97 96 96 97 97 97 97 97 97 97 98
90 89 91 88 85 92 91 94 97 97 99 100 99 100 100 97 89 90 94 80 85 89 90 95 98 98 96 96 97 98 98 97 97 96 96 97 96 96 97 97 97 96 96 96
96 93 98 96 92 90 93 98 98 98 99 98 98 93 94 67 77 82 80 91 92 93 95 98 97 97 96 97 97 97 97 97 97 96 96 96 96 96 96 94 96 96 96 95

GFSNW_850_rhum_036.txt.gz
RH
90 90 90 90 96 99 99 100 98 93 84 97 92 91 54 41 31 26 22 19 19 18 19 25 29 25 20 14 17 20 18 24 33 23 15 14 16 20 21 37 36 36 56 35
97 91 89 89 100 100 100 98 98 93 82 93 95 72 65 40 37 31 28 25 20 18 30 60 50 37 22 16 19 21 20 25 39 30 22 18 20 17 21 26 31 42 67 40
87 96 100 97 98 100 100 98 99 98 98 69 66 76 66 53 36 32 25 21 19 21 31 43 63 66 27 22 18 17 28 25 29 42 28 24 25 19 17 28 45 44 45 33
88 88 89 92 97 100 100 100 98 93 96 91 59 55 45 52 43 32 31 26 25 23 34 48 63 64 60 39 29 21 33 34 28 24 19 19 19 19 18 20 36 42 39 36
84 87 81 98 100 99 100 99 98 78 54 76 68 60 56 43 37 33 34 33 23 22 28 40 57 70 68 49 38 29 30 36 33 37 24 19 22 18 16 17 17 17 19 20
81 82 76 81 95 100 99 100 91 68 62 74 77 70 56 48 36 31 26 26 27 28 23 28 57 75 81 74 60 51 37 40 40 46 30 27 35 24 17 16 15 17 23 19
91 89 88 81 77 97 100 100 91 93 75 69 64 55 50 46 38 38 28 23 26 22 40 64 72 85 81 80 56 55 55 41 40 55 61 56 25 16 14 16 15 15 14 13
100 98 89 94 85 84 100 100 97 81 89 59 52 50 48 44 39 41 32 25 18 18 56 81 88 90 78 76 76 60 49 56 58 62 54 33 21 20 21 23 22 16 17 14
88 100 96 98 93 84 98 99 95 86 77 63 45 46 44 53 48 47 38 28 23 22 32 76 95 66 46 72 65 51 55 59 70 63 61 62 36 24 16 16 33 17 15 17
90 95 99 100 96 92 98 95 90 98 94 56 46 52 52 41 46 49 42 33 35 25 74 88 77 52 27 47 61 81 76 83 80 72 65 47 27 20 17 37 36 19 17 16
92 99 100 100 99 98 100 90 98 99 98 74 74 70 59 48 42 53 37 49 58 64 66 75 60 64 42 30 27 72 80 98 82 76 70 68 25 21 30 28 22 19 18 19
91 94 90 98 100 100 98 100 99 97 85 96 80 77 67 71 50 39 35 44 67 78 72 55 53 74 73 47 64 40 70 72 82 73 59 38 22 26 22 20 21 20 20 22
92 94 91 97 100 96 92 100 99 99 100 95 89 78 77 77 63 42 46 46 58 58 66 46 55 60 64 78 56 46 49 41 60 60 48 51 32 29 24 22 22 21 21 25
93 99 97 100 96 86 96 99 98 95 82 98 95 86 78 70 58 69 68 64 54 53 55 53 64 76 39 65 43 58 38 64 50 51 44 41 33 26 29 30 29 27 27 26
99 100 93 84 88 97 100 99 100 76 64 73 85 69 62 63 56 70 79 69 77 83 87 77 66 49 53 50 46 53 29 31 48 54 34 43 40 34 34 32 32 30 31 29
97 94 94 98 99 100 100 100 100 81 53 82 79 60 63 59 61 60 74 86 78 74 69 70 44 39 41 75 58 34 25 23 24 37 34 38 36 38 39 36 31 36 34 34
96 96 99 99 99 98 92 95 80 66 69 75 62 67 69 63 59 60 63 69 82 79 73 64 53 50 45 74 70 38 36 37 37 37 34 35 34 44 44 45 36 34 36 36
100 100 100 99 92 78 82 85 74 80 72 64 65 73 88 82 64 69 69 72 82 71 68 58 63 58 61 80 57 53 54 48 37 47 51 54 54 50 48 48 47 45 44 39
99 99 100 99 98 99 97 87 77 73 73 64 75 82 93 98 80 61 76 74 83 58 76 71 62 74 89 94 91 89 84 75 71 68 66 62 58 59 54 56 54 51 45 45
100 99 93 98 93 62 76 64 73 71 72 84 88 92 97 99 100 98 85 66 78 75 73 56 77 91 88 95 100 100 100 99 80 75 73 74 72 66 63 63 59 56 56 59
96 98 99 100 89 88 89 67 63 58 76 75 74 81 91 96 100 100 94 99 93 97 77 79 81 91 81 96 99 100 99 100 97 86 82 81 76 71 73 77 77 71 70 72
90 85 98 94 96 99 89 82 96 79 78 84 92 92 99 100 100 97 97 100 100 99 83 98 95 95 93 98 100 99 100 100 100 96 91 90 90 91 89 93 91 89 88 90
93 96 97 98 98 99 88 88 82 96 99 100 99 100 100 99 95 100 100 100 100 99 99 93 93 91 97 100 100 100 100 100 100 100 100 100 100 100 100 100 100 100 100 100
98 99 97 98 91 92 96 96 99 99 99 100 100 100 99 100 100 100 100 100 100 98 93 92 92 97 99 96 97 96 98 97 97 97 98 99 98 98 97 95 97 97 96 97
90 72 86 87 95 96 97 98 99 99 100 100 100 99 98 100 99 100 99 93 85 87 91 91 97 99 97 97 96 96 97 96 96 96 96 96 96 96 96 97 97 96 96 96
80 82 88 81 81 83 85 91 95 97 98 99 100 100 99 93 93 79 92 72 88 91 92 98 98 96 96 96 97 97 97 97 96 96 96 96 96 96 96 96 96 96 96 95
93 93 92 90 81 89 92 99 99 99 100 100 85 86 94 71 72 79 79 89 93 94 97 97 96 96 96 96 96 96 96 96 96 96 96 96 96 96 95 94 96 96 96 95

GFSNW_850_rhum_039.txt.gz
RH
89 89 90 88 90 91 99 100 99 96 76 98 94 89 71 53 38 40 40 36 34 36 31 30 28 52 42 38 31 27 23 33 38 30 24 18 21 24 28 65 53 54 68 47
91 87 90 87 92 93 100 98 98 97 84 96 95 72 71 63 61 46 40 40 33 32 34 37 58 55 46 52 59 46 26 31 40 35 24 22 23 23 24 31 50 53 66 56
89 86 89 93 92 90 100 99 99 100 100 73 72 75 73 75 56 60 47 40 36 36 40 32 54 59 50 58 61 64 52 28 33 41 32 30 32 30 25 28 59 53 62 44
89 90 94 97 97 92 100 100 98 87 95 95 77 64 59 68 72 50 46 46 44 42 45 38 46 51 62 51 58 66 62 47 29 24 26 27 28 29 30 28 32 44 46 44
95 98 100 99 88 100 100 100 99 96 67 80 82 71 69 62 54 50 50 45 39 39 44 37 40 54 74 76 76 76 64 60 42 42 25 25 29 30 29 25 26 33 33 35
93 97 95 93 78 93 100 100 92 76 75 81 94 81 71 64 56 48 41 39 42 44 41 34 55 50 66 82 73 85 88 78 50 48 37 34 48 35 27 27 24 23 41 34
80 82 84 90 85 95 100 99 99 96 96 82 86 70 66 63 56 56 42 39 42 34 28 48 67 77 81 82 84 80 92 95 75 71 60 68 35 25 25 27 23 20 18 18
92 88 86 82 76 84 98 100 100 97 97 81 69 71 64 58 53 54 48 42 34 29 29 68 70 93 82 82 77 86 81 98 97 76 58 52 45 27 27 28 27 21 20 18
99 96 94 98 83 75 90 100 99 100 97 95 58 64 60 65 64 61 53 42 39 35 51 74 77 87 77 68 74 68 88 92 100 96 69 72 47 33 20 21 40 20 23 25
92 90 96 99 99 83 89 100 100 100 99 91 68 60 61 52 55 62 51 47 48 42 75 81 84 83 63 79 82 98 98 99 98 95 95 70 37 26 21 40 43 25 21 22
87 88 89 95 96 99 97 99 99 97 98 94 72 58 49 50 50 66 55 60 56 72 80 84 87 94 78 61 59 80 88 95 98 99 92 82 53 34 35 38 20 19 18 20
100 99 98 92 92 100 98 100 99 96 90 96 72 68 59 48 46 50 49 49 53 60 73 76 81 80 76 50 58 59 91 75 90 87 89 63 44 53 53 53 44 31 23 18
92 91 92 94 95 100 99 100 97 98 100 99 97 78 63 58 53 52 77 57 49 62 55 83 77 67 74 80 73 68 51 59 73 59 52 56 45 41 45 56 57 48 29 23
99 100 98 98 100 99 99 99 90 86 94 100 95 92 71 65 59 64 64 65 57 47 52 73 94 87 54 83 59 68 65 62 66 68 53 51 47 49 49 43 55 47 41 32
96 94 97 99 99 100 100 94 82 96 78 96 95 78 66 69 53 66 76 62 59 73 84 95 79 72 72 75 72 66 48 65 79 86 55 56 45 42 50 48 64 52 46 39
98 94 98 99 100 98 96 100 98 100 65 85 100 65 67 65 69 78 70 66 73 85 83 90 64 48 60 82 74 50 34 33 37 43 39 34 30 36 43 39 43 44 44 38
100 99 98 96 89 94 100 92 88 93 98 76 89 88 74 65 63 63 69 60 68 86 88 92 76 58 60 92 86 87 91 72 54 50 49 46 52 52 51 47 45 42 42 37
88 88 98 100 100 100 93 93 92 80 65 69 91 97 82 82 69 73 65 69 70 89 97 83 85 66 73 98 89 94 96 93 80 73 67 64 59 54 55 52 51 46 46 42
100 99 94 93 92 95 96 95 86 67 67 86 89 93 99 88 81 65 71 67 94 65 97 94 83 98 98 98 96 99 100 100 97 82 77 71 69 67 61 59 57 56 58 51
100 96 87 100 95 85 82 75 68 64 66 78 96 82 100 96 99 98 92 75 94 98 86 63 95 99 99 96 100 100 100 100 100 92 96 85 76 78 71 72 68 67 66 66
97 98 98 91 86 83 74 73 77 69 89 82 81 85 99 91 100 100 88 97 96 88 86 85 98 94 93 94 98 98 99 99 99 100 100 98 93 88 82 81 80 76 76 71
88 85 88 83 94 92 83 96 88 89 90 88 96 94 92 98 98 99 98 90 98 96 94 91 96 96 100 96 99 100 100 100 100 100 100 100 100 99 97 97 94 92 91 92
98 89 89 98 99 96 92 78 91 98 99 99 100 100 100 100 100 100 98 99 99 98 96 96 96 95 98 98 97 99 98 99 100 100 100 100 100 100 100 100 100 100 99 99
87 92 93 93 93 97 98 98 98 99 99 100 100 100 100 100 100 100 98 100 99 97 96 95 96 98 97 96 97 94 96 96 96 96 97 96 96 96 97 96 97 97 96 96
82 74 97 96 98 93 97 97 99 98 98 100 100 100 100 100 98 99 98 96 96 95 96 96 97 97 96 96 96 96 96 96 96 96 96 96 96 94 95 96 96 96 96 96
74 84 91 87 90 90 92 95 97 96 99 100 100 99 98 98 95 89 97 86 95 96 96 97 96 96 96 96 96 97 96 96 96 96 96 96 96 95 96 96 96 96 96 95
87 97 91 100 91 97 98 96 99 100 100 98 97 94 97 91 93 93 94 96 96 96 97 96 96 96 96 96 96 96 98 98 100 100 99 99 98 94 88 92 98 96 96 95

GFSNW_850_rhum_042.txt.gz
RH
85 86 90 88 91 91 100 100 100 93 87 99 85 88 70 56 55 48 48 48 46 40 39 40 33 38 36 53 49 56 46 37 42 33 23 24 24 25 32 49 53 63 71 46
88 87 91 98 99 99 100 100 100 98 84 94 92 70 67 63 61 53 51 50 46 36 39 46 41 45 58 54 60 73 67 70 54 42 31 28 30 26 25 40 59 62 71 52
89 89 93 98 99 99 100 100 99 100 100 82 72 74 68 68 59 62 61 60 55 48 48 43 50 50 50 52 66 62 67 74 66 60 38 32 33 27 26 30 61 50 56 40
94 95 96 97 99 100 100 100 98 97 97 94 83 69 65 69 69 60 58 66 59 58 62 49 49 44 63 53 70 70 79 94 82 69 50 30 28 30 33 33 37 47 40 47
95 91 91 93 98 100 100 99 97 98 80 83 88 77 75 68 64 57 62 70 48 52 61 52 58 48 47 66 73 71 80 94 88 78 52 38 31 26 30 29 34 37 33 37
92 93 93 93 97 99 100 100 98 88 82 92 96 86 74 66 60 55 52 51 56 53 46 38 41 58 64 67 74 88 85 94 98 89 64 48 50 32 26 34 31 31 43 38
92 96 98 99 98 100 100 100 99 99 97 96 90 69 68 66 60 66 51 55 59 46 38 41 63 71 80 83 76 70 92 92 99 97 80 93 44 27 23 30 30 28 26 24
76 76 77 77 86 99 100 100 100 97 96 92 76 72 66 65 59 62 58 52 48 43 41 73 77 90 81 88 86 85 76 91 100 93 95 70 45 37 33 35 32 27 28 23
90 84 84 79 75 79 100 100 97 100 99 94 78 71 68 73 74 69 60 55 50 48 57 79 76 87 70 80 88 82 86 86 86 98 88 96 58 37 28 27 47 27 24 25
99 99 98 92 86 80 90 100 100 100 99 94 89 73 72 64 65 70 62 57 58 51 80 79 80 72 63 76 92 93 98 99 97 95 94 86 65 54 34 51 49 36 25 25
92 97 99 99 100 92 99 99 100 99 98 88 99 79 60 64 60 69 59 62 65 80 79 85 83 92 81 71 67 86 85 95 98 93 98 94 66 58 61 67 63 61 58 32
99 98 99 97 96 100 99 100 99 99 99 98 82 84 76 63 58 54 52 54 54 62 82 85 85 84 90 78 85 65 81 72 84 82 74 62 61 62 56 66 68 65 63 54
90 94 96 94 90 98 100 100 100 100 100 99 84 73 69 72 85 54 56 55 45 55 48 83 82 69 85 84 70 47 52 61 77 82 58 59 52 52 49 49 46 52 47 48
92 91 95 98 91 95 100 99 99 98 91 98 85 59 79 64 69 68 51 48 50 49 50 78 91 86 61 80 56 75 68 68 68 70 58 49 45 32 39 36 42 42 45 47
98 99 99 99 100 99 100 100 98 92 65 90 96 92 84 77 72 68 66 54 49 55 90 97 87 82 74 82 79 69 74 77 83 78 46 42 35 26 26 38 40 53 45 47
100 92 94 95 95 100 99 100 99 88 65 95 98 80 80 80 74 73 64 61 64 63 92 93 75 52 50 87 85 89 95 96 95 85 76 52 49 44 52 50 43 39 36 41
98 100 95 96 100 100 96 85 77 80 85 100 99 99 85 79 80 71 76 72 91 84 94 97 84 71 58 94 98 90 96 97 93 84 72 66 63 62 55 52 52 50 48 46
100 99 99 99 99 93 81 71 77 72 100 93 94 100 96 78 74 85 89 77 77 91 95 92 94 77 92 97 97 96 100 100 96 89 83 83 78 64 60 57 52 49 50 53
99 99 99 98 99 100 100 86 93 98 93 89 92 96 98 91 93 78 73 70 93 87 98 98 94 95 97 95 94 98 100 100 100 95 86 90 84 83 73 65 64 66 71 69
100 99 91 100 100 100 98 98 87 65 63 74 97 93 99 98 100 100 92 96 97 94 94 94 97 97 98 99 98 98 99 99 100 99 99 98 100 96 91 89 85 83 83 82
76 77 98 98 95 79 73 82 80 78 88 83 90 91 96 89 96 99 93 97 98 91 89 93 97 94 94 98 99 98 99 99 99 100 100 100 100 100 99 98 97 90 86 86
73 77 82 80 89 76 86 95 88 90 96 96 97 96 95 100 97 99 99 91 93 97 91 92 94 94 99 99 99 100 100 100 100 100 100 100 100 100 100 100 100 100 100 99
81 76 93 81 84 88 92 82 97 98 99 99 99 99 100 100 100 100 97 84 97 91 92 97 95 96 99 98 99 97 97 98 96 97 98 99 99 99 97 98 99 98 97 98
72 76 90 92 95 97 98 97 98 99 98 99 99 100 100 100 100 100 98 99 91 94 94 95 94 98 98 96 99 94 98 97 95 96 96 96 96 96 96 96 96 96 95 96
75 76 99 96 97 94 97 98 98 98 99 99 100 100 99 99 98 97 93 94 96 94 98 97 97 96 96 96 96 96 96 95 96 96 96 96 96 96 96 96 96 96 96 96
70 86 92 88 91 90 93 96 97 97 98 99 99 99 97 98 96 88 96 85 96 97 96 97 96 96 96 96 96 96 96 95 95 95 96 96 96 96 97 97 97 97 97 97
84 95 98 93 96 99 99 97 98 98 99 98 96 95 96 93 94 90 91 96 95 96 97 96 95 96 96 96 95 96 95 94 94 94 94 95 96 92 88 92 97 94 94 93

GFSNW_850_rhum_045.txt.gz
RH
69 77 76 80 87 86 96 100 100 100 93 99 97 85 61 51 52 52 50 54 54 52 44 41 34 37 31 54 52 69 63 51 54 38 26 25 27 32 37 44 47 69 68 38
68 76 75 80 91 96 99 100 99 100 100 97 95 70 67 60 64 59 56 58 55 38 42 45 43 40 55 56 68 61 54 78 79 51 34 31 34 30 30 45 54 44 59 40
69 76 81 88 92 98 99 100 99 100 100 93 71 84 74 72 58 63 63 66 61 52 54 47 49 49 44 57 62 61 67 79 85 94 90 75 66 48 30 35 55 49 46 37
69 79 86 88 95 98 99 100 98 97 97 97 82 68 64 70 68 60 59 61 66 68 76 58 56 46 54 56 66 66 70 76 91 86 63 55 58 57 48 38 34 42 38 45
76 84 88 92 99 99 99 99 99 98 95 93 96 84 77 67 59 56 66 77 65 62 65 58 55 50 46 58 62 63 77 73 86 86 54 55 58 52 50 41 34 42 36 41
85 89 91 97 99 99 100 100 94 98 97 98 96 86 76 75 60 60 53 61 64 67 59 51 46 44 41 51 64 83 88 92 91 84 75 62 56 62 48 38 30 36 42 35
91 92 94 99 99 98 100 99 97 97 96 95 87 72 71 72 64 66 59 56 63 50 50 49 53 80 77 77 81 77 96 92 97 97 81 72 33 47 35 44 33 28 30 30
94 97 98 99 98 99 100 100 100 96 94 92 85 77 69 67 64 65 60 54 52 52 53 69 75 88 87 97 89 83 78 91 93 94 95 64 43 40 46 73 71 43 31 28
99 98 98 99 99 99 100 100 99 100 96 93 93 94 75 93 77 73 64 60 52 53 66 93 96 86 70 93 90 84 82 82 86 98 94 82 26 40 46 61 80 49 59 43
79 73 72 73 79 89 99 100 100 98 99 96 80 89 91 89 72 77 66 62 63 60 90 98 97 89 60 77 96 98 99 99 93 94 94 84 59 54 54 93 79 69 66 66
81 85 90 91 91 84 96 98 100 98 99 99 96 91 74 74 72 83 69 69 73 82 89 94 95 95 77 71 78 88 90 96 96 87 99 91 51 77 76 81 68 70 65 61
99 99 94 98 99 100 99 100 98 100 99 98 77 68 75 89 66 60 60 57 68 61 83 94 89 91 94 78 84 71 85 75 88 82 79 58 61 63 50 53 62 67 67 54
98 90 87 91 99 100 100 100 100 100 100 98 91 89 61 65 92 72 64 60 46 51 46 86 84 83 87 87 86 66 65 62 75 77 52 52 46 48 48 54 53 57 53 52
86 87 88 94 99 100 100 100 99 100 98 99 86 71 68 62 75 78 70 59 52 49 54 79 89 96 65 84 61 74 58 63 66 63 57 54 42 42 40 48 50 52 48 49
92 89 90 97 92 98 100 100 99 99 75 87 73 58 51 46 46 69 78 80 67 58 78 96 88 77 74 88 77 74 93 88 94 85 87 92 67 57 55 49 46 41 50 41
92 92 91 92 96 100 100 100 100 97 84 74 100 78 75 51 69 72 78 86 86 66 63 94 82 55 64 92 98 87 93 97 100 95 94 93 80 71 62 61 63 62 67 58
99 99 99 98 100 100 98 92 91 99 96 96 99 99 94 90 85 86 80 76 81 74 68 96 95 86 73 90 94 88 93 97 99 96 84 86 86 89 69 63 60 59 58 59
99 99 100 98 100 100 100 84 81 98 97 96 99 99 100 99 97 95 80 94 97 94 90 98 98 95 92 96 88 93 96 100 99 93 97 99 97 83 74 70 65 62 61 66
100 99 99 100 100 100 98 84 100 94 90 99 99 98 99 100 97 95 95 95 99 94 100 98 96 97 96 95 94 95 100 100 100 99 98 98 97 92 87 84 80 84 91 86
99 98 93 99 98 87 97 100 99 99 99 100 99 98 99 95 95 100 94 100 98 99 96 86 96 97 98 98 100 99 98 98 99 99 98 98 99 100 100 99 100 98 100 100
99 100 99 100 99 82 96 99 98 99 96 90 96 92 98 92 95 98 92 98 97 96 98 92 97 92 89 99 99 95 97 97 96 98 98 99 100 100 100 100 100 100 100 100
82 79 88 96 84 72 87 96 91 90 95 96 98 99 99 100 98 96 96 96 92 98 98 88 93 93 98 96 96 95 96 96 96 96 96 97 97 98 96 96 96 96 96 97
75 67 67 63 79 87 91 86 96 98 99 98 99 96 99 98 99 99 95 92 99 81 95 93 95 95 98 98 100 100 98 96 96 96 95 97 98 97 96 96 97 96 95 97
61 74 92 92 94 97 97 97 98 98 98 98 98 100 99 100 99 100 97 98 85 95 95 99 96 98 96 98 100 95 97 98 99 99 97 96 95 95 96 95 96 96 96 96
75 74 99 96 96 96 97 98 97 97 99 98 99 99 95 97 97 96 92 92 98 95 98 97 97 96 96 98 97 96 96 95 94 96 96 96 95 94 95 96 95 95 95 95
75 84 91 88 94 94 94 96 96 97 97 99 98 98 95 97 96 87 97 86 99 97 97 98 96 96 96 95 95 95 95 95 95 96 96 95 95 95 96 96 96 96 96 95
85 97 97 98 96 98 96 96 96 97 97 98 96 93 98 89 90 92 91 98 95 97 98 96 95 95 96 95 95 95 95 95 96 95 94 97 98 97 92 94 99 95 94 93

GFSNW_850_rhum_048.txt.gz
RH
87 89 80 72 77 73 94 100 99 97 95 99 97 92 68 49 52 52 57 58 61 56 51 46 34 38 52 62 62 60 60 55 57 41 30 28 29 32 42 59 50 72 72 45
88 88 79 74 74 79 98 100 98 97 100 98 97 89 72 59 66 62 60 63 62 48 43 45 44 50 52 45 69 65 60 76 84 52 37 60 59 44 52 47 54 56 70 51
88 89 82 71 76 75 99 100 99 99 100 99 79 96 91 74 59 64 64 70 61 58 63 48 55 55 43 38 63 57 60 79 70 90 81 77 79 63 55 61 65 54 48 42
85 81 80 71 74 82 99 100 99 98 97 97 92 78 69 79 68 59 60 67 72 72 76 68 54 48 49 40 59 62 64 70 82 76 73 68 60 56 54 55 63 64 52 44
81 78 76 72 72 86 99 99 98 100 95 83 97 93 91 72 64 57 68 78 70 67 77 65 64 53 49 50 48 65 73 71 86 89 72 67 62 55 52 52 54 57 50 45
75 78 72 71 75 93 100 100 98 96 80 97 96 91 80 82 59 58 52 64 69 72 62 57 54 50 49 56 60 71 83 86 88 77 72 64 73 58 50 47 41 48 58 50
82 76 74 76 82 96 99 99 99 99 96 90 91 82 79 76 68 66 60 56 71 58 52 53 57 55 60 64 67 72 84 86 96 96 81 82 42 47 44 47 49 54 52 46
74 74 78 87 91 95 99 100 99 97 95 84 94 90 94 70 65 70 62 60 53 56 56 89 84 89 96 86 82 78 80 93 97 97 96 69 47 38 39 55 30 46 40 52
85 86 89 94 97 98 99 100 99 100 100 94 74 98 96 95 90 74 67 60 52 58 74 92 97 92 68 92 79 85 87 78 85 93 97 86 41 48 58 56 60 66 74 77
89 91 96 97 98 98 99 100 99 100 100 90 84 89 96 94 85 86 78 72 68 58 95 97 96 92 64 82 76 97 97 99 95 81 94 79 62 54 58 67 57 63 59 63
97 98 98 99 99 99 99 100 99 99 99 98 98 90 88 98 89 97 75 83 88 97 99 96 95 98 80 74 79 91 89 96 91 85 97 87 50 70 64 57 47 48 50 54
90 92 95 95 96 98 99 100 99 100 98 99 95 88 85 75 71 65 67 63 76 76 91 93 89 94 95 79 89 77 87 78 88 82 76 58 58 63 50 54 50 54 60 51
100 99 99 84 80 89 98 100 98 99 100 100 100 95 91 90 92 75 74 65 55 62 56 89 88 80 90 89 89 73 74 64 81 76 57 59 44 42 45 51 52 53 52 44
100 100 100 99 90 94 99 100 99 93 100 99 95 86 68 53 60 69 74 73 60 60 64 77 92 90 70 87 67 77 66 69 72 66 54 63 44 60 76 66 58 61 57 46
89 91 98 95 89 92 99 100 99 92 77 94 79 68 60 73 75 71 75 81 71 73 84 96 88 81 77 86 82 79 88 90 88 82 98 98 92 79 83 75 70 79 71 57
91 91 84 92 90 94 100 99 100 100 84 93 97 72 68 53 65 74 84 95 88 83 96 91 71 61 64 94 100 92 93 94 97 94 91 94 96 98 89 82 67 69 82 69
95 90 84 92 93 100 99 95 90 98 99 98 95 94 86 70 60 64 80 75 91 97 94 93 88 85 75 97 98 96 99 100 96 100 98 94 100 99 96 87 67 75 79 76
95 90 90 99 100 100 100 89 72 99 100 99 99 98 99 99 96 93 82 85 95 99 99 97 93 98 96 99 90 94 92 90 92 100 99 100 100 97 92 97 83 82 86 87
99 99 100 100 100 100 100 95 100 100 89 99 100 98 98 99 91 86 81 84 99 98 99 98 88 97 97 96 95 96 99 100 100 98 99 100 100 100 98 96 90 97 100 100
100 100 99 100 99 96 98 100 99 99 97 100 100 98 100 98 100 100 98 98 99 99 100 97 96 96 98 99 95 98 98 100 100 100 99 99 100 100 100 98 100 100 100 100
94 97 99 100 99 96 100 99 98 99 99 100 99 99 100 98 99 99 94 98 99 98 100 92 96 94 91 99 100 100 100 100 98 98 97 97 98 99 97 96 98 96 99 98
92 97 99 94 97 98 98 98 99 98 96 99 99 100 100 100 98 96 97 97 94 97 97 93 96 95 99 97 100 98 99 97 95 96 96 96 96 96 96 95 96 96 96 98
80 81 77 68 79 87 91 95 96 97 98 97 100 99 100 97 98 99 92 94 97 88 94 94 96 94 98 100 94 96 96 95 95 95 96 96 95 96 93 95 96 96 96 96
56 72 92 91 95 97 97 98 97 97 98 99 100 97 99 99 97 99 96 97 85 94 95 97 95 98 100 96 97 95 96 96 96 95 96 96 95 95 95 95 96 95 95 96
76 74 99 96 96 96 96 97 97 97 98 98 100 95 88 98 96 95 92 89 100 96 98 98 98 97 96 96 96 96 97 96 96 96 96 96 96 94 95 96 96 96 96 96
72 84 92 89 94 92 92 94 95 96 97 98 98 97 92 97 95 87 99 88 98 97 98 98 96 96 96 96 96 96 96 96 95 95 95 96 95 95 95 96 95 95 95 94
87 97 96 97 97 97 96 98 96 96 97 97 94 92 98 83 90 92 93 99 97 97 98 96 96 95 96 96 96 96 95 95 96 95 95 94 96 96 95 92 96 93 92 92

GFSNW_850_rhum_051.txt.gz
RH
85 85 89 87 79 72 82 95 91 79 98 97 97 98 92 56 50 53 50 59 58 60 50 47 41 41 58 47 65 63 62 50 50 35 30 30 30 36 38 49 45 59 59 41
91 84 89 89 80 80 94 92 85 77 98 94 91 99 94 62 61 59 60 67 64 56 52 50 42 48 44 41 61 70 63 67 68 53 42 53 61 59 55 58 55 53 57 40
87 83 85 88 80 78 97 96 100 96 99 90 86 96 86 79 60 57 64 67 63 60 62 54 54 50 43 37 51 62 60 64 66 63 62 65 66 52 47 51 67 58 53 46
85 75 99 81 81 73 96 97 95 82 98 91 96 90 96 79 69 59 59 70 67 69 72 65 57 49 47 41 42 61 61 60 62 49 52 62 57 50 45 51 48 55 42 46
81 80 96 81 80 72 99 98 99 95 85 85 98 96 99 80 69 60 66 69 66 65 70 60 56 56 48 50 48 71 60 68 78 76 66 59 62 52 47 46 44 43 48 50
87 89 94 79 74 73 99 97 98 100 88 79 93 80 84 87 64 60 52 63 75 79 65 61 59 57 54 54 60 60 64 82 79 68 71 60 61 58 48 39 33 36 38 27
97 96 78 63 70 76 97 97 99 99 92 94 82 73 92 76 68 74 64 62 80 63 61 59 62 64 70 65 65 58 70 82 91 86 80 71 36 42 40 43 38 33 36 40
70 71 68 75 76 74 89 96 99 99 89 80 76 75 81 97 80 76 78 73 67 84 87 86 80 80 85 80 75 74 63 81 89 87 79 55 39 34 32 40 30 45 56 55
89 86 88 75 78 75 80 87 98 98 99 84 71 75 77 94 100 99 91 81 82 78 98 97 88 83 72 80 73 82 85 74 86 92 76 76 43 53 55 47 47 48 57 49
96 97 90 82 75 70 82 96 99 100 99 91 74 74 87 98 94 91 88 86 99 97 99 91 85 76 66 70 72 80 88 96 90 92 86 68 49 44 54 55 41 47 55 50
97 99 99 99 78 77 95 98 99 99 98 98 84 70 86 93 100 98 83 97 98 99 96 90 86 88 73 62 72 75 71 77 81 79 94 84 48 64 62 46 51 56 53 55
99 98 98 95 87 93 98 100 99 99 100 98 83 79 84 69 59 78 83 69 86 90 84 85 78 88 86 70 71 75 78 68 72 71 65 54 54 61 50 64 69 66 67 61
99 96 99 98 98 98 99 100 99 99 99 99 99 98 78 81 85 77 90 72 68 75 61 83 82 79 79 84 77 69 71 66 70 68 51 50 49 52 78 75 89 83 71 72
100 99 95 99 99 99 99 99 99 99 98 99 99 98 84 77 88 97 90 70 66 67 81 89 88 83 68 75 61 70 56 66 69 65 53 63 58 91 95 86 78 76 74 82
98 92 100 98 96 97 99 99 98 96 82 96 90 76 75 88 97 88 80 88 79 73 93 99 98 80 80 82 76 69 67 66 74 65 94 95 86 89 100 98 91 86 82 83
98 99 95 100 100 99 99 100 99 100 99 99 98 64 65 60 73 71 71 88 88 86 98 99 91 64 75 88 82 83 94 94 93 85 99 93 98 98 97 96 93 93 89 90
92 94 97 99 99 100 98 97 94 96 100 96 92 81 78 68 68 84 95 92 93 98 98 99 98 91 77 100 92 91 88 93 96 100 98 93 99 98 99 94 94 93 88 96
88 88 93 99 100 100 100 99 100 100 98 99 97 94 98 96 96 95 80 100 100 100 100 100 91 92 99 100 90 90 92 93 92 100 100 100 100 99 99 96 95 93 88 91
96 89 99 100 100 99 100 99 100 100 93 99 96 95 91 99 88 70 85 82 100 92 99 100 98 97 97 94 93 97 100 100 100 100 98 100 100 99 99 100 100 100 100 100
100 100 98 100 100 99 99 100 99 99 98 100 94 93 98 99 96 98 96 98 100 100 100 95 92 93 99 100 100 100 100 100 100 98 94 97 100 99 99 100 100 100 100 99
98 100 100 100 99 98 97 98 96 99 98 98 98 98 96 99 100 98 94 98 99 99 100 94 91 89 90 99 100 100 99 96 98 96 96 96 96 96 96 95 95 96 96 96
94 96 99 96 92 96 94 98 97 97 94 100 98 98 99 100 100 100 98 97 97 95 93 84 92 89 95 100 100 100 100 96 95 96 96 97 96 95 95 95 96 95 96 96
70 64 71 66 77 86 91 97 96 95 95 98 100 100 99 100 100 100 92 92 94 80 87 90 89 89 95 100 100 100 98 96 95 95 95 96 95 96 95 95 96 95 95 96
54 71 88 89 93 94 96 95 95 97 98 98 99 98 98 98 92 94 90 96 80 90 89 93 87 93 100 100 100 100 97 95 95 96 96 95 95 95 95 96 96 96 96 97
72 72 99 95 96 96 96 98 97 96 97 98 99 88 87 93 91 90 86 86 94 89 93 92 97 100 100 100 98 96 95 95 95 96 96 96 95 95 95 95 95 95 96 95
73 85 92 91 94 94 93 94 95 97 97 98 86 93 91 94 90 84 98 82 93 93 93 99 100 97 97 96 96 95 95 95 95 95 95 95 95 95 95 96 96 95 96 95
85 96 94 97 96 97 96 96 95 96 96 96 90 90 98 70 83 90 87 94 94 96 100 97 96 95 96 95 95 95 95 95 95 95 96 95 96 96 96 92 96 92 90 86

GFSNW_850_rhum_054.txt.gz
RH
77 74 85 86 97 69 77 98 84 73 82 98 85 87 53 50 42 42 39 42 47 48 44 43 37 32 37 38 40 44 28 36 39 29 28 24 24 27 28 35 37 35 42 28
91 76 86 79 94 73 80 83 77 82 95 94 89 71 71 56 45 41 42 45 48 42 47 49 35 31 32 36 40 58 49 36 35 32 30 30 34 35 33 36 38 39 51 33
76 85 88 91 84 75 87 90 88 89 95 89 76 63 69 61 55 45 45 42 49 52 51 41 41 36 30 34 36 47 51 45 39 30 30 33 50 42 37 39 47 38 36 31
76 83 88 87 74 75 94 95 89 62 90 76 70 68 77 58 57 51 46 47 47 51 66 49 47 37 35 30 34 43 50 60 42 38 37 35 37 38 35 38 38 44 33 31
85 87 87 72 87 79 95 97 82 82 58 58 66 64 76 61 58 56 52 51 48 50 64 56 47 44 42 42 36 45 46 42 42 40 32 41 44 34 31 30 29 30 29 30
80 84 84 81 79 90 96 96 95 95 58 55 59 60 63 52 57 55 47 48 51 70 56 51 49 50 51 48 48 52 50 57 47 38 46 39 39 36 31 28 24 23 25 19
90 76 81 81 87 95 97 91 85 96 84 73 56 48 45 49 51 63 53 64 65 66 70 58 56 57 54 54 50 47 51 65 64 50 66 55 22 29 29 30 24 20 20 20
82 70 77 74 97 95 86 91 95 98 82 50 46 49 48 46 58 89 96 66 73 87 99 90 66 62 67 62 52 49 47 56 69 67 53 34 31 21 23 27 19 26 29 29
74 72 71 72 74 70 70 77 88 100 96 82 45 48 49 58 58 68 94 100 100 99 100 98 72 62 50 63 61 43 50 51 61 70 56 56 30 36 37 33 33 32 35 36
79 80 84 85 85 70 71 87 92 100 96 80 72 63 56 61 80 90 96 99 99 100 100 87 69 60 50 61 64 83 76 69 74 63 72 47 31 26 36 54 52 40 39 38
77 80 82 85 87 87 85 91 99 96 97 96 89 69 64 63 76 91 89 100 100 99 97 75 65 62 48 47 51 64 69 68 70 57 72 77 33 38 45 58 48 46 43 42
80 83 86 94 97 91 88 98 94 98 99 96 86 72 70 65 61 84 99 79 90 76 69 58 56 65 59 44 53 45 66 44 48 44 46 40 45 49 51 62 61 62 67 65
88 92 96 96 98 94 99 94 80 95 100 98 99 87 70 78 82 89 99 90 88 84 61 72 62 74 50 63 50 40 39 38 52 48 37 36 34 48 72 74 74 73 71 74
96 98 99 99 98 99 99 93 95 95 99 98 93 96 91 64 81 90 96 93 92 87 87 72 74 70 47 52 43 46 35 38 47 42 34 32 38 67 79 80 79 78 76 74
98 99 99 99 99 98 100 97 98 99 92 97 84 95 95 88 93 92 94 100 100 92 99 99 97 60 62 57 57 47 35 39 50 47 61 66 61 69 88 82 84 84 83 79
99 99 99 99 98 99 99 99 99 100 100 99 86 77 91 98 98 98 96 100 100 100 99 99 78 76 78 72 57 39 73 77 81 66 85 81 77 77 93 91 87 86 86 87
99 99 99 99 99 99 96 98 87 99 100 97 74 64 92 87 97 97 99 98 91 95 100 99 98 87 70 97 77 80 79 80 80 93 98 83 99 93 98 97 94 90 88 93
100 100 97 99 99 100 98 97 99 96 99 98 83 78 88 90 81 78 88 90 93 99 98 99 90 73 98 100 84 75 74 76 76 92 92 96 99 100 99 98 97 91 94 98
98 99 100 100 100 99 98 99 100 99 92 95 86 81 81 92 75 69 86 98 100 98 100 99 86 100 100 92 84 86 94 90 88 85 81 98 100 100 97 95 96 98 100 100
100 100 98 100 100 99 99 100 99 100 99 99 77 78 94 98 85 73 75 76 80 99 98 99 100 92 91 88 93 100 99 98 97 90 79 89 96 100 100 97 97 97 96 96
100 99 100 100 99 94 100 98 95 98 97 95 80 86 90 99 98 85 79 90 94 84 98 93 90 87 84 84 88 98 100 100 100 100 100 100 100 100 100 100 96 96 96 96
98 97 99 98 97 99 93 90 96 84 80 99 95 88 91 99 99 97 94 94 96 86 83 89 86 85 84 89 96 100 100 100 100 100 100 98 100 100 100 99 97 95 95 96
76 70 85 70 76 87 85 91 92 91 91 98 99 100 98 100 100 99 98 100 92 75 89 85 82 76 84 90 92 100 100 100 100 100 95 96 98 96 96 95 96 95 95 96
62 68 80 78 83 84 85 85 86 95 99 99 99 98 100 99 99 97 92 91 80 90 89 86 81 86 93 98 100 100 100 100 100 100 96 95 94 95 96 96 96 96 94 95
76 70 90 86 88 92 96 100 96 99 100 99 98 98 98 90 88 87 87 87 90 81 84 82 86 94 97 100 100 100 96 96 96 96 96 96 95 95 95 95 95 95 95 95
80 84 84 88 83 88 90 94 94 100 98 99 88 82 83 88 80 79 89 77 83 84 83 89 96 100 100 100 98 97 96 95 95 96 96 95 95 95 96 96 96 96 95 95
81 87 95 93 90 89 93 98 99 98 100 92 76 82 92 62 74 82 76 86 85 87 93 96 99 100 98 95 96 96 95 96 96 96 96 95 96 96 96 99 100 94 84 72

GFSNW_850_rhum_057.txt.gz
RH
72 78 90 71 68 83 99 82 93 62 87 94 76 77 42 33 28 29 29 30 35 38 35 37 34 31 29 37 40 54 31 34 35 39 21 21 22 27 32 36 43 30 38 33
75 90 86 74 74 92 98 76 74 61 93 85 74 50 44 38 33 30 30 31 29 28 35 41 32 29 27 30 38 54 51 37 42 36 30 26 27 25 25 28 30 50 55 36
81 79 75 77 80 94 98 92 92 60 91 78 61 52 55 49 40 33 28 28 27 36 38 33 38 32 26 29 31 40 54 51 34 36 33 23 32 30 28 30 42 39 40 32
76 73 75 73 80 95 99 95 83 63 75 57 61 54 64 48 50 36 31 34 32 34 40 35 39 36 30 26 31 34 64 65 51 28 32 30 28 32 32 33 31 37 31 30
79 77 78 84 75 88 99 96 74 55 53 50 46 49 66 56 45 41 40 38 31 32 38 36 43 38 45 42 30 35 55 74 56 56 32 32 36 31 28 26 24 26 24 24
83 80 85 81 78 90 99 91 84 88 59 48 55 56 41 39 35 43 46 37 38 42 38 40 48 49 60 47 44 45 44 50 73 72 40 36 41 34 30 29 25 26 30 21
84 80 77 84 82 88 92 98 82 88 74 50 49 38 50 43 37 38 40 41 52 44 61 56 49 47 44 42 41 41 48 45 46 64 52 82 28 21 20 24 21 18 17 16
75 85 81 81 74 86 99 95 99 83 86 46 39 50 47 33 41 50 45 57 84 95 79 69 62 60 61 63 41 42 40 47 56 54 49 32 22 20 21 22 18 16 17 23
74 77 77 83 74 78 96 84 97 98 80 63 45 36 32 45 46 45 55 67 95 99 96 100 77 65 50 50 46 37 39 44 58 56 56 49 26 21 26 21 25 24 28 31
73 74 74 79 76 81 96 97 94 99 97 62 63 80 61 47 48 54 67 80 93 100 100 93 80 64 45 60 63 59 58 56 63 56 53 35 20 23 23 43 44 36 35 34
79 75 75 73 74 76 83 95 99 98 90 68 59 56 58 69 67 85 79 99 100 99 100 70 60 61 48 42 53 50 53 64 64 56 63 58 25 26 37 54 43 44 44 46
90 71 76 79 81 84 82 97 86 95 98 69 80 69 61 76 68 74 98 77 93 64 72 53 64 65 58 45 53 53 58 43 47 40 42 34 31 45 54 54 50 52 53 54
91 67 68 72 76 80 84 95 86 94 100 97 85 75 70 78 61 67 97 84 93 81 56 78 66 69 54 65 45 48 39 53 46 60 32 42 32 48 56 57 58 58 57 56
86 69 68 70 76 78 84 90 93 97 95 88 62 68 75 50 76 76 91 84 87 96 96 85 79 73 44 56 44 43 33 36 35 40 34 31 30 53 66 63 61 62 62 63
79 74 76 79 85 90 97 97 95 94 79 79 68 64 81 78 75 80 91 99 99 99 95 98 90 56 55 51 50 51 32 34 46 46 55 54 45 58 67 65 67 69 72 72
78 81 90 96 97 98 99 99 100 94 95 89 92 79 79 86 85 83 95 99 100 100 99 92 68 67 64 79 61 36 52 57 65 59 78 75 68 67 79 78 79 79 77 78
92 94 99 99 99 99 99 94 90 96 100 96 97 88 74 85 87 93 95 99 100 98 100 98 89 72 68 69 68 78 65 65 65 77 74 70 89 86 92 90 86 84 82 85
99 99 99 99 99 100 97 79 65 65 99 99 97 80 76 79 84 93 98 99 100 100 88 91 65 60 70 100 76 62 64 65 65 72 70 74 88 98 98 98 95 96 95 99
99 99 99 99 100 99 99 95 100 100 98 95 78 76 80 76 70 68 81 89 98 96 77 77 78 74 100 93 76 79 86 79 75 73 69 80 90 90 89 91 92 96 100 100
100 100 97 99 98 98 99 99 99 99 98 94 75 58 91 70 67 67 70 78 69 83 90 99 97 93 85 79 86 91 88 83 87 81 75 85 88 90 94 99 100 100 100 100
99 99 100 99 99 98 99 98 98 98 91 73 70 67 89 96 88 74 61 74 66 66 78 98 97 91 81 77 80 87 94 95 98 100 100 100 100 100 98 100 98 100 100 100
99 98 99 100 100 100 95 90 84 69 64 76 78 70 77 85 99 95 70 76 76 77 80 85 86 82 78 83 88 94 100 100 100 97 97 99 99 97 99 100 99 97 99 98
87 85 87 78 88 96 88 86 78 87 96 92 98 96 94 97 100 97 96 97 86 71 95 91 80 70 76 83 88 98 100 98 99 99 100 100 100 96 97 98 96 96 96 96
65 72 88 87 85 80 85 92 94 98 99 100 98 98 96 99 99 98 98 95 87 86 88 89 80 85 91 98 99 96 100 100 100 100 100 100 100 98 96 96 96 96 95 96
74 68 86 81 82 88 93 98 96 98 100 100 99 97 98 96 96 94 95 95 88 84 89 86 85 92 95 97 99 100 100 100 100 100 100 96 96 95 95 96 95 94 95 95
81 83 80 83 86 88 91 96 94 100 100 99 98 97 95 93 86 87 89 89 86 87 86 91 92 96 99 100 100 98 100 100 100 100 96 94 94 94 95 95 95 95 95 90
77 85 92 92 88 91 94 96 98 98 99 96 90 86 91 64 76 80 75 85 87 86 93 94 97 98 100 98 97 97 98 100 100 99 96 96 97 98 100 100 100 100 92 78

GFSNW_850_rhum_060.txt.gz
RH
78 76 77 74 86 76 92 92 91 59 82 85 70 90 56 38 27 22 22 27 29 30 29 30 30 30 28 32 36 54 49 34 42 43 28 21 24 29 32 54 58 39 50 41
81 71 70 76 90 82 98 96 63 54 82 94 75 50 46 38 33 27 26 28 25 24 27 33 28 28 24 28 30 49 48 45 53 40 36 33 32 31 28 34 52 92 73 56
76 72 76 77 84 83 94 98 82 53 81 67 60 62 50 46 30 29 28 25 23 24 28 27 32 29 25 26 26 39 40 66 58 50 56 66 65 33 39 40 82 81 81 51
73 81 86 77 75 87 92 99 81 55 83 63 54 52 72 52 40 33 28 31 27 26 35 29 30 26 25 24 32 38 61 93 61 48 44 40 40 45 35 43 62 74 48 41
81 80 75 66 64 75 99 98 73 48 44 55 66 51 56 49 53 38 38 33 26 26 30 30 32 32 49 35 35 36 63 82 75 65 46 34 34 38 63 59 28 29 40 56
69 69 80 78 82 90 99 98 89 97 73 65 52 70 48 36 33 39 52 41 40 30 41 54 52 44 61 57 55 49 56 70 90 74 51 42 47 34 42 46 24 23 30 24
72 68 68 73 81 95 98 93 90 89 78 52 52 41 52 60 34 34 27 51 53 65 66 54 47 40 39 41 41 39 48 49 74 83 85 78 32 20 21 27 24 23 23 22
78 75 66 75 81 94 98 96 98 90 82 50 46 41 45 39 51 44 40 44 68 73 85 64 50 49 51 46 39 40 40 47 75 95 74 65 43 24 22 24 26 18 17 17
76 77 75 67 76 76 96 97 100 98 88 65 43 45 49 64 56 49 40 54 84 82 85 78 70 58 43 42 42 36 39 47 63 66 74 83 33 25 22 19 31 22 26 30
94 82 77 68 75 79 94 98 94 100 99 64 53 73 86 82 72 60 48 72 79 90 95 91 69 62 41 61 59 58 58 63 71 70 69 45 21 19 22 39 59 40 37 41
99 97 80 74 73 77 88 94 95 99 96 74 58 53 63 60 82 93 73 86 85 97 96 76 59 65 57 56 58 66 57 70 73 62 63 62 20 24 33 61 60 55 52 47
99 99 94 79 72 73 84 94 91 96 100 68 71 67 59 57 73 92 100 68 99 79 84 61 63 79 70 54 61 76 93 45 52 43 45 33 32 50 53 53 57 59 53 50
99 99 97 85 73 71 76 95 87 95 99 88 81 69 64 66 69 69 90 76 74 93 95 96 86 81 60 65 50 60 82 57 44 54 40 27 55 54 53 54 55 55 56 58
99 99 96 85 74 73 78 85 90 96 95 79 60 58 64 61 64 69 73 71 69 98 100 99 93 79 68 80 55 66 74 88 55 53 57 75 86 74 58 58 61 64 64 67
90 100 92 79 72 74 76 84 87 88 83 74 74 70 59 53 74 52 57 78 85 96 99 98 87 62 70 61 54 54 46 83 76 79 73 85 88 68 63 66 68 72 70 72
91 97 86 68 65 72 90 99 86 84 93 98 79 82 77 79 68 74 74 72 98 99 98 99 71 57 64 72 79 82 78 58 67 67 64 68 73 78 80 76 77 75 76 81
88 86 67 64 69 84 98 94 92 60 89 99 83 56 68 83 81 80 85 97 100 98 100 98 78 70 65 81 72 94 76 59 67 64 63 64 79 87 88 86 86 82 89 93
73 73 73 76 85 94 99 77 90 98 99 97 94 87 86 84 94 100 99 99 100 100 98 98 94 66 71 93 83 70 71 64 68 67 65 84 82 80 79 81 86 91 93 97
84 87 97 99 99 98 97 93 99 100 91 98 96 93 86 74 74 83 98 100 100 99 99 80 69 84 92 94 82 82 81 76 75 72 73 73 82 79 81 85 86 93 98 100
99 99 98 99 100 99 99 99 99 98 87 95 84 62 83 70 71 71 71 76 73 82 78 83 84 95 85 79 84 88 86 84 90 82 86 87 89 87 94 98 100 100 100 100
98 99 100 98 100 99 100 98 99 98 99 76 70 66 79 86 86 76 68 87 76 75 87 89 92 89 85 77 83 89 96 96 100 100 99 97 98 99 99 100 100 100 100 100
99 97 100 99 98 96 100 100 97 81 67 69 76 72 84 87 89 84 75 74 74 73 85 88 90 89 84 82 91 98 99 95 95 96 98 99 97 99 100 100 100 100 98 96
92 94 96 99 98 99 94 87 80 90 89 90 94 95 96 91 88 84 94 88 80 70 84 90 86 81 88 94 92 98 99 99 99 100 100 100 100 100 100 100 99 95 94 97
75 75 87 90 82 85 90 92 95 100 100 99 98 99 96 98 89 94 97 96 92 89 89 92 90 91 97 100 100 98 100 95 99 100 100 100 96 95 95 93 95 95 95 97
74 68 86 81 86 91 95 98 96 98 97 99 99 94 90 94 92 81 89 90 91 84 90 89 94 97 98 99 99 94 94 95 98 99 95 95 97 94 95 95 95 96 95 96
80 87 82 88 86 90 93 98 98 98 98 99 93 93 88 90 85 92 90 92 91 91 89 92 95 98 95 94 94 94 96 96 98 100 99 97 95 95 96 97 96 95 92 81
76 85 97 94 84 91 96 99 99 99 99 96 90 89 93 92 85 84 81 89 90 90 96 98 98 99 97 95 96 97 96 96 97 100 98 98 98 100 100 100 100 98 85 80

GFSNW_850_rhum_063.txt.gz
RH
75 79 71 78 77 79 85 92 99 69 69 88 89 88 58 45 44 43 42 36 34 38 37 40 36 34 46 33 36 57 54 72 57 37 25 26 35 42 72 100 83 70 63 71
90 77 75 68 63 84 92 94 83 49 70 98 93 68 54 52 51 49 43 37 31 31 37 44 34 33 37 30 36 53 45 70 74 56 38 34 45 34 50 54 59 97 98 66
77 75 68 72 73 91 98 96 98 74 68 75 96 85 73 59 44 42 39 35 32 38 39 35 39 38 32 38 40 38 41 65 80 85 70 77 80 59 36 48 84 78 87 73
72 67 68 72 82 86 99 94 95 72 96 81 79 72 66 66 83 44 35 36 36 41 45 40 44 38 35 31 38 51 71 85 76 73 60 61 74 69 50 58 58 90 74 79
71 72 80 80 85 93 99 97 88 64 74 60 83 97 77 64 53 77 62 62 40 34 41 44 51 66 59 66 52 60 65 83 81 76 55 53 58 58 45 65 64 59 69 84
66 66 68 73 79 80 97 95 96 96 82 76 83 74 75 77 59 45 67 64 76 68 65 66 57 55 58 58 62 66 82 86 88 89 64 74 69 45 66 73 72 64 92 57
68 75 67 63 70 92 89 87 89 92 87 71 66 52 48 59 81 84 58 49 66 66 66 56 55 52 52 66 66 56 65 66 84 97 69 95 56 47 45 54 62 49 30 38
72 71 76 73 65 78 98 94 98 98 98 67 59 52 47 55 76 98 79 62 69 63 70 69 68 66 58 58 49 52 53 65 87 96 88 68 53 45 29 39 38 31 28 28
73 78 79 81 74 69 96 87 98 99 95 76 68 65 47 89 89 85 90 72 74 75 96 95 83 81 58 53 51 44 50 62 80 94 87 90 63 41 28 26 67 50 48 48
89 91 84 78 77 71 90 89 89 99 99 75 60 88 86 87 97 99 77 64 86 74 83 98 93 85 50 68 65 63 68 72 79 81 88 79 45 33 27 50 83 60 57 57
86 95 97 94 88 75 81 92 90 96 97 89 77 60 90 78 81 99 98 96 96 93 90 95 82 86 72 67 59 88 84 78 89 86 86 81 31 50 53 77 62 60 55 56
89 96 99 99 96 78 77 99 89 96 98 86 87 82 72 70 64 63 96 99 99 82 90 85 90 89 88 76 86 86 97 84 78 68 68 58 64 66 68 60 60 59 58 58
98 98 99 99 98 86 75 88 94 93 99 97 82 58 50 57 60 67 84 85 94 100 100 100 97 98 99 96 73 76 82 81 89 69 79 78 95 80 63 62 63 63 64 66
99 99 99 99 99 90 75 88 86 88 99 93 68 51 52 54 59 64 64 70 81 80 94 97 100 100 79 95 83 82 88 93 93 78 90 95 98 98 87 75 68 68 69 70
98 100 99 100 98 83 75 80 81 84 93 96 88 62 54 55 59 60 58 65 74 84 98 100 99 98 89 84 70 95 90 100 100 100 98 95 99 99 96 87 76 74 76 77
97 98 94 99 91 77 89 98 79 87 99 92 96 65 63 59 65 66 70 61 66 85 99 100 98 85 68 90 94 96 83 88 88 97 100 100 98 98 90 82 79 78 80 87
91 94 97 89 74 78 82 76 90 65 86 99 98 88 67 72 53 65 76 79 83 92 99 98 84 77 79 96 97 73 73 72 74 79 92 85 84 86 86 87 91 90 93 96
89 96 88 79 77 84 76 96 98 94 92 87 99 93 82 91 99 98 93 98 99 100 99 99 97 86 84 99 84 78 77 73 71 75 81 81 78 80 83 90 91 94 99 100
93 84 76 82 96 98 87 65 81 97 80 98 98 96 98 85 94 100 99 99 99 99 99 98 86 96 98 96 87 87 86 87 88 84 85 89 88 91 91 93 97 97 100 98
87 90 97 98 96 95 83 97 99 99 96 90 100 66 92 89 93 93 99 99 100 99 94 80 99 98 88 91 95 92 93 100 89 92 97 99 100 100 99 100 100 100 98 98
100 98 99 99 95 98 100 99 98 98 94 97 84 59 90 80 93 97 71 94 93 95 96 91 98 94 95 95 99 90 91 94 100 99 99 98 98 99 94 99 98 96 96 96
91 99 100 99 97 99 99 96 95 98 90 82 92 76 72 87 83 92 89 96 90 95 97 98 98 96 98 96 100 98 93 92 94 96 96 97 96 95 97 99 99 98 100 100
97 98 99 99 99 99 98 96 96 98 96 94 88 99 99 94 80 93 99 99 97 91 98 97 96 98 99 99 93 97 96 93 92 95 98 100 98 100 95 96 96 94 94 98
90 86 94 98 97 97 98 98 99 100 100 97 89 100 97 79 85 94 92 99 97 96 97 98 96 100 99 98 96 87 96 95 96 99 98 95 92 94 96 96 96 93 94 99
74 70 95 95 93 93 89 99 96 100 100 99 90 91 86 91 88 83 91 91 97 96 98 98 100 94 91 91 91 93 96 96 96 96 92 95 95 93 96 96 93 91 92 93
78 89 93 95 92 97 97 97 96 96 100 96 92 90 86 92 94 96 94 96 98 98 98 100 98 97 97 96 95 95 95 96 96 94 95 96 93 89 92 94 92 83 74 66
80 95 95 92 92 100 96 96 96 97 98 99 98 94 94 97 94 94 98 98 97 98 100 97 94 94 95 94 94 95 95 94 94 95 93 92 92 93 86 73 71 64 64 62

GFSNW_850_rhum_066.txt.gz
RH
81 74 73 69 60 83 81 92 97 52 95 89 92 90 67 52 47 43 45 48 51 47 40 43 41 41 48 34 41 59 52 71 87 53 32 30 53 74 75 99 86 81 86 95
72 71 87 73 68 71 93 98 85 49 62 98 94 76 68 60 57 53 46 50 44 44 47 44 42 42 43 33 45 52 42 68 88 60 43 35 50 50 64 75 89 98 98 84
70 75 72 69 64 81 94 98 98 65 81 75 90 97 86 72 54 55 51 52 48 46 47 44 43 38 42 35 41 40 45 68 80 89 89 80 84 67 63 86 100 88 90 72
64 64 62 62 70 84 95 98 94 84 96 94 96 85 82 80 79 68 63 55 50 47 51 52 53 47 52 49 52 62 65 70 82 76 69 59 58 85 79 74 80 85 69 68
75 76 73 69 77 92 99 97 89 89 94 70 70 81 86 81 84 60 65 81 82 77 66 46 58 64 55 73 64 67 78 78 84 85 59 50 61 72 75 94 87 61 62 69
78 72 62 61 73 92 99 99 97 89 80 83 79 78 65 76 53 76 62 77 90 86 73 74 68 62 59 59 62 73 76 82 87 86 67 62 79 59 58 61 75 80 94 67
65 62 63 68 64 91 93 89 90 91 89 79 70 55 57 57 53 81 85 90 96 74 63 61 53 60 60 65 65 62 72 69 85 96 76 80 56 39 41 67 70 69 73 79
70 72 68 72 72 76 92 95 98 88 98 91 70 64 62 59 69 74 84 80 66 65 68 73 72 70 61 60 63 71 68 72 85 90 90 61 41 48 52 64 78 65 74 75
73 72 74 76 76 77 82 86 94 98 97 79 62 79 77 86 90 92 90 78 73 80 89 88 82 82 64 60 56 52 62 67 79 96 88 87 58 44 41 39 98 62 53 68
71 83 82 76 74 75 87 85 86 99 99 82 70 71 88 90 96 97 98 97 94 75 96 97 94 85 58 67 67 59 83 88 83 87 93 77 51 42 42 65 96 66 62 67
80 77 79 84 89 85 84 84 85 94 99 84 77 80 76 82 97 97 92 97 97 93 94 95 86 91 72 68 61 71 80 87 93 87 92 80 56 53 62 72 69 69 68 72
92 88 87 86 96 98 95 95 80 91 99 87 87 84 79 67 70 80 89 80 98 100 90 92 98 93 94 77 86 94 99 87 93 75 73 88 77 73 72 71 79 79 77 74
93 98 90 91 96 99 98 96 79 99 99 97 88 64 41 52 69 70 79 89 91 99 99 99 99 92 94 93 88 81 91 85 99 89 88 91 94 83 75 76 78 76 77 77
99 99 99 98 98 99 99 96 81 87 96 100 71 60 60 47 48 53 54 68 71 81 90 96 96 98 97 99 93 96 94 87 98 99 91 95 99 100 98 82 73 72 73 82
97 99 99 99 99 99 99 89 79 81 80 98 94 68 51 54 63 64 62 67 77 82 96 97 97 96 100 98 90 100 96 100 99 100 99 100 99 100 94 88 84 77 72 76
99 99 100 99 99 99 98 98 86 86 93 97 98 60 53 60 60 64 60 64 64 72 90 97 98 91 99 100 100 98 99 100 100 97 100 99 99 99 98 94 88 81 74 87
100 94 97 100 99 91 73 70 68 70 91 98 97 96 77 71 70 71 70 75 71 74 87 96 85 79 74 100 96 98 100 100 99 100 99 96 97 98 89 86 89 88 91 94
99 94 95 99 92 73 97 98 84 70 93 83 99 96 86 87 87 90 77 86 96 97 92 96 94 91 93 97 97 99 98 97 88 84 85 82 85 89 94 92 90 87 91 94
99 98 98 98 94 86 92 98 100 87 81 98 99 97 94 97 100 99 99 96 99 98 98 94 96 96 99 97 95 99 98 97 99 97 89 85 84 89 94 93 94 91 99 93
99 98 87 96 84 78 80 98 99 99 90 96 98 82 92 87 100 99 99 100 99 98 96 94 98 98 98 97 96 90 91 91 93 98 99 98 96 96 100 100 97 94 95 98
80 72 93 87 75 88 74 99 99 99 94 95 92 76 90 91 100 100 95 98 100 99 94 98 97 95 94 97 99 99 98 94 92 90 93 94 88 90 92 97 99 98 97 96
63 98 97 93 82 98 99 96 94 88 89 90 96 84 64 92 94 96 98 92 96 96 100 97 96 95 98 100 100 96 96 96 96 98 97 97 96 96 95 96 94 93 94 95
99 96 99 100 99 98 96 88 86 100 96 99 99 99 100 97 97 97 99 98 98 99 96 97 97 97 100 100 98 100 96 95 97 99 99 98 97 96 94 96 99 99 98 97
98 96 97 98 98 98 97 98 98 100 100 100 90 100 90 76 88 95 89 98 96 98 96 97 98 99 100 99 95 89 95 94 95 98 96 94 93 95 96 96 99 95 96 100
70 71 99 96 93 96 98 99 98 100 100 90 86 94 83 84 90 77 83 90 97 97 98 98 99 98 94 94 92 92 94 95 95 96 94 94 95 96 97 97 96 96 97 96
73 88 92 98 92 97 96 98 99 99 99 94 82 96 89 86 96 91 95 97 98 96 98 100 98 95 94 95 95 94 95 95 96 96 95 96 96 94 95 96 88 77 69 65
82 97 99 98 98 100 99 98 98 99 99 99 92 94 89 95 93 97 97 98 97 100 100 98 90 90 94 94 94 95 96 95 95 95 96 95 91 79 72 62 68 68 71 70

GFSNW_850_rhum_069.txt.gz
RH
74 79 73 79 70 71 79 88 97 63 67 95 88 91 67 57 54 48 52 53 57 59 52 53 40 47 50 38 44 63 52 74 92 71 43 51 63 78 95 99 98 93 100 93
70 67 68 70 80 80 82 97 92 62 63 96 96 81 72 64 64 60 56 56 51 50 57 73 48 42 42 38 46 47 45 69 90 64 54 57 72 79 83 86 93 89 97 83
67 65 70 74 72 76 95 88 98 65 88 82 86 91 85 77 79 72 72 61 54 60 61 48 59 49 41 40 42 44 47 70 78 88 89 82 96 81 75 89 100 94 93 86
63 63 63 63 62 79 95 97 94 92 99 97 80 74 80 93 88 70 71 72 75 91 86 57 67 53 53 57 59 64 59 64 81 78 74 69 71 77 79 96 94 99 69 68
62 61 71 74 69 80 99 99 93 93 94 79 82 81 86 71 79 56 86 78 85 81 96 76 87 59 57 61 68 71 77 78 84 81 69 60 56 52 64 78 86 93 81 69
68 72 75 63 62 91 99 100 98 92 83 80 77 67 61 77 61 56 55 64 94 95 82 76 81 76 72 66 61 72 75 83 87 80 72 72 74 66 55 70 78 75 98 72
64 66 68 58 65 82 92 98 96 97 93 81 76 60 56 65 64 72 63 62 93 82 63 77 68 67 73 68 68 64 76 75 88 94 79 76 44 32 51 62 68 74 78 79
61 71 60 59 62 83 85 98 99 94 96 79 80 78 66 67 65 77 70 75 91 96 98 93 74 79 64 62 69 74 69 77 85 85 90 62 49 54 56 65 69 66 71 71
76 74 71 75 71 82 90 85 95 98 98 86 67 69 70 94 90 91 77 77 79 100 100 97 83 82 62 62 56 61 79 71 77 96 85 83 50 50 43 55 85 74 67 80
60 48 56 69 73 80 95 90 81 96 98 83 73 79 76 73 98 94 87 85 93 100 96 94 95 83 61 63 65 68 88 92 93 87 90 78 54 74 53 85 94 78 71 85
79 79 79 81 84 80 91 87 91 87 99 86 79 79 75 85 92 97 82 86 90 97 94 94 85 90 72 68 60 70 79 90 96 89 85 86 77 76 64 83 87 83 82 81
84 88 86 78 78 81 97 100 90 92 99 83 81 81 73 70 72 75 78 83 98 98 99 94 91 96 95 80 86 94 91 96 91 78 79 86 81 82 86 86 88 100 96 99
92 94 94 80 87 87 93 99 99 100 100 98 94 60 43 56 58 76 84 77 81 95 95 100 98 93 98 98 91 90 90 96 100 99 94 92 87 85 83 85 90 93 99 100
83 81 84 90 97 99 98 99 98 86 99 99 69 60 55 51 57 54 56 70 79 80 100 97 96 92 95 97 97 99 100 85 94 99 97 98 99 100 99 100 98 98 94 90
99 98 99 100 98 99 99 99 99 93 76 92 92 70 54 51 63 54 54 61 63 74 97 94 83 91 99 100 100 100 97 100 97 100 99 99 99 100 100 99 98 94 91 94
98 99 98 99 100 99 99 97 98 92 80 86 98 63 48 51 57 61 63 69 74 80 78 93 96 98 100 99 97 98 98 99 99 97 100 99 100 97 98 98 98 98 98 98
100 100 100 98 100 99 94 70 63 72 92 90 95 97 74 68 73 73 80 75 78 71 73 89 89 82 90 100 97 98 99 100 99 100 100 96 100 99 94 87 90 90 94 97
99 99 100 97 99 94 74 83 71 72 92 90 96 95 87 94 92 90 85 89 84 85 82 94 97 83 97 94 98 99 98 98 96 84 86 89 94 92 94 94 91 86 89 95
98 99 99 99 86 85 95 95 94 88 75 96 98 98 93 94 99 96 89 85 98 92 98 96 94 96 96 97 97 98 98 98 100 94 89 89 89 96 95 92 89 89 99 98
98 98 84 87 88 91 98 99 94 78 72 94 97 79 96 90 99 99 99 98 95 98 90 97 98 99 99 98 96 96 96 86 97 99 98 97 95 95 100 100 99 98 100 98
89 70 98 79 87 80 83 94 93 99 99 94 97 90 93 88 99 99 100 98 99 98 97 99 97 94 92 98 89 88 89 88 89 96 100 98 91 93 99 100 99 97 94 90
59 76 77 89 89 97 94 95 93 97 86 88 97 88 82 82 93 100 98 95 99 97 99 96 95 94 100 98 98 87 88 90 89 92 96 96 95 94 92 94 93 94 93 94
78 64 92 97 97 98 96 93 93 94 94 100 100 99 90 95 100 96 95 98 99 99 96 96 95 97 99 99 100 99 90 91 92 88 88 89 89 90 91 92 95 95 93 95
99 92 98 92 97 96 96 94 98 100 100 100 98 100 95 76 89 94 84 95 96 96 98 94 98 98 97 100 98 95 95 96 94 93 93 90 88 89 92 90 90 89 87 89
71 73 99 95 92 97 99 100 98 100 100 99 99 96 81 76 77 78 85 92 98 97 95 97 98 94 95 93 93 95 97 98 97 97 96 96 95 94 92 92 92 92 92 92
76 87 93 99 91 96 96 98 98 100 100 94 76 97 87 78 96 85 99 97 97 93 100 100 97 93 93 93 96 96 96 96 95 96 96 96 95 95 94 95 89 79 73 68
83 97 99 98 96 98 98 97 97 95 98 100 87 94 82 90 94 96 98 96 96 100 100 97 90 91 96 97 96 95 95 94 95 95 95 95 95 78 63 59 66 70 75 76

GFSNW_850_rhum_072.txt.gz
RH
80 72 76 78 77 72 70 71 92 71 74 87 93 100 76 58 62 52 56 60 64 66 61 72 55 58 53 58 59 84 65 87 95 74 49 57 77 92 89 100 99 97 100 97
80 68 67 69 81 79 77 86 89 77 70 92 100 88 86 68 70 66 66 63 54 50 63 80 78 70 57 60 60 69 63 94 88 57 61 67 81 79 82 94 100 100 97 88
76 67 64 71 74 80 78 81 98 70 84 87 93 98 88 81 83 84 77 75 73 75 72 54 80 83 67 62 68 52 48 73 66 63 68 78 83 66 67 98 100 97 94 85
68 66 61 60 67 72 81 92 93 95 98 96 84 82 77 85 91 92 74 82 90 96 93 72 80 64 83 68 62 63 54 64 78 72 71 70 72 72 66 77 91 100 88 88
62 61 60 67 76 74 89 97 97 94 96 80 83 81 81 82 82 66 65 95 91 78 94 77 95 85 76 95 63 80 81 91 80 71 69 63 57 43 54 57 74 81 85 84
69 64 67 71 72 79 98 97 97 92 84 81 78 74 65 69 66 64 64 63 76 85 80 82 79 81 96 94 82 79 75 85 81 71 70 68 52 58 48 58 74 82 89 68
71 70 75 81 71 75 78 83 97 96 92 81 72 70 66 74 73 78 62 62 81 80 80 80 75 84 95 90 80 77 84 77 83 89 68 74 38 36 51 71 69 71 70 76
65 60 59 59 60 75 81 84 96 91 99 80 71 74 82 66 65 86 78 77 74 76 99 99 93 87 77 64 72 74 72 79 87 82 87 60 49 57 68 67 63 63 73 72
60 61 63 65 67 77 90 86 100 100 97 89 67 68 66 91 87 91 77 61 70 98 100 99 92 87 60 64 61 77 81 72 77 96 88 83 50 61 66 62 81 83 76 76
83 82 87 79 80 85 88 92 88 100 95 81 74 82 80 72 93 98 85 81 93 83 98 97 91 81 64 60 62 91 95 95 94 91 92 75 59 79 72 82 80 87 87 80
50 48 50 45 58 74 94 85 92 91 88 80 85 88 85 80 91 96 72 79 88 94 97 95 93 94 77 75 60 78 80 93 98 87 92 88 86 76 69 91 94 90 92 95
66 77 78 78 77 82 97 100 100 97 99 84 83 82 66 66 77 84 77 83 83 99 98 95 95 97 96 95 89 92 84 80 87 79 78 87 88 89 93 98 100 100 92 98
59 73 83 89 85 78 85 98 99 99 99 93 92 64 44 51 55 64 89 79 78 95 98 99 99 96 100 94 95 92 86 91 100 100 91 87 90 97 100 98 97 100 100 100
74 80 83 83 86 83 90 99 97 100 97 96 71 62 61 63 60 57 66 68 82 89 94 97 99 99 93 83 97 94 99 100 96 98 98 99 100 99 99 100 99 99 98 98
86 85 81 81 82 91 98 99 97 97 94 90 83 64 50 53 57 66 65 72 81 82 83 99 94 84 97 98 98 100 98 100 97 100 98 99 98 99 99 97 97 98 96 94
84 90 92 95 98 99 99 97 99 99 98 96 94 59 49 55 63 58 65 61 75 78 99 92 79 91 99 99 98 99 98 99 100 97 99 98 97 97 98 97 97 97 96 97
98 98 99 96 100 100 99 95 79 95 98 90 98 95 70 75 77 77 76 77 83 82 75 82 81 82 98 99 97 99 98 98 98 99 100 98 98 98 97 94 95 96 96 98
100 99 99 99 100 99 98 76 74 99 91 88 91 91 87 84 87 89 90 91 86 91 78 92 98 83 99 97 97 97 97 98 97 95 94 95 98 96 95 94 93 92 98 98
99 100 99 97 97 97 99 95 99 96 78 99 92 96 89 93 99 95 100 100 96 86 99 98 88 98 96 97 97 99 100 100 100 96 93 95 93 98 97 96 96 96 100 100
100 98 94 87 99 95 99 95 94 83 72 92 98 86 99 95 98 97 97 96 97 92 89 93 97 97 99 100 100 96 89 83 95 100 99 98 99 98 100 98 100 100 100 100
98 91 98 100 94 87 95 98 98 87 95 99 96 94 97 86 98 99 99 94 92 84 98 98 98 97 96 98 100 94 90 90 93 98 96 97 97 98 100 100 100 94 93 93
70 72 98 100 95 90 80 93 90 96 84 88 97 92 91 84 97 99 100 98 99 97 98 97 98 95 100 97 96 93 93 95 94 98 99 97 94 93 92 95 96 96 95 96
62 58 94 89 94 97 94 99 78 89 85 95 99 100 94 100 99 100 97 98 97 99 96 96 98 96 100 98 96 91 96 98 97 95 94 93 92 93 93 95 98 97 95 99
86 78 99 97 94 86 83 93 96 94 100 100 100 100 98 83 90 95 81 97 96 95 96 92 98 100 96 100 93 89 91 95 96 98 98 96 95 95 97 96 97 93 91 94
75 77 99 96 92 99 100 98 99 100 100 100 99 93 79 87 77 89 88 93 96 96 95 96 100 97 94 92 90 91 91 91 91 95 95 95 95 93 93 96 96 95 88 70
79 90 95 98 93 97 97 99 100 100 99 96 82 98 88 95 95 86 96 95 96 92 99 100 98 92 90 91 91 90 89 88 88 90 90 92 93 92 91 86 69 55 51 52
84 99 100 100 98 100 98 98 98 99 99 100 92 88 84 85 94 96 98 96 95 99 99 94 86 88 92 93 93 93 92 92 91 90 91 91 91 69 55 53 59 64 68 70

GFSNW_850_rhum_075.txt.gz
RH
88 76 78 80 79 65 52 51 80 74 66 76 94 82 70 61 57 50 48 57 56 60 54 71 60 56 54 62 71 71 74 80 68 53 46 51 58 66 86 95 89 93 90 78
81 70 70 71 73 71 55 69 74 76 64 86 94 77 81 74 68 62 64 65 58 55 56 68 62 68 61 71 74 91 70 98 94 75 67 64 71 75 96 96 98 95 92 84
87 73 66 72 70 71 59 72 85 78 77 83 84 92 79 70 80 89 97 79 67 77 71 60 60 72 67 77 84 84 71 65 93 71 57 61 72 56 57 92 96 95 97 86
71 66 64 67 71 68 64 80 93 93 97 92 82 82 76 79 89 82 75 96 93 91 92 70 67 54 58 69 79 93 89 76 82 63 61 65 57 54 45 50 70 89 63 71
72 68 65 66 67 69 73 94 96 91 96 85 76 74 61 69 71 59 62 88 65 67 91 80 91 83 71 77 80 97 97 80 79 62 66 54 50 38 43 52 49 56 67 72
68 62 61 74 79 77 84 83 90 87 85 79 72 66 61 65 65 63 63 64 68 66 90 91 95 89 92 94 98 100 91 89 69 58 61 50 40 44 38 48 53 60 73 61
68 69 68 80 82 71 67 79 84 98 88 78 65 63 62 68 68 76 62 74 79 68 76 71 84 96 91 86 91 85 97 66 72 67 60 51 30 34 42 62 60 54 55 71
68 68 67 67 84 84 73 75 78 86 96 73 66 66 66 74 66 72 71 75 65 70 98 87 91 86 87 85 74 72 85 72 71 69 62 47 37 57 63 74 60 78 76 75
73 67 59 56 63 71 78 76 85 91 94 81 72 69 66 72 79 80 77 56 53 83 98 99 91 78 51 66 76 76 75 68 65 88 75 64 40 63 59 66 50 79 80 75
66 71 67 74 72 77 80 81 90 95 91 70 77 82 76 72 90 92 80 80 83 82 93 96 96 73 65 57 63 90 88 87 80 76 75 60 70 72 76 44 60 86 92 93
87 77 76 82 88 89 93 82 89 92 85 80 76 83 86 83 89 85 74 76 84 87 90 93 95 88 81 74 63 78 67 84 89 74 78 77 84 75 72 92 96 96 98 100
72 60 50 51 52 58 82 93 91 100 98 79 75 64 67 72 78 85 79 80 85 92 96 84 88 90 85 87 68 78 73 78 79 68 68 86 91 96 100 100 100 100 100 100
66 68 66 76 75 75 86 99 95 98 99 98 99 66 51 58 54 62 90 80 79 98 99 98 100 94 96 89 84 80 74 96 99 100 97 94 99 100 99 100 100 100 100 100
78 72 60 71 82 90 90 95 87 98 97 96 69 58 51 57 54 51 56 65 87 90 88 91 98 94 86 81 94 92 98 99 95 100 100 98 98 98 98 98 99 98 98 98
68 55 70 78 80 82 91 99 97 90 89 85 78 66 52 55 54 62 65 67 82 92 83 92 90 82 95 88 96 94 98 100 98 99 98 98 98 98 98 97 97 96 97 98
57 81 84 83 84 87 98 99 92 98 98 98 94 64 51 61 66 72 67 71 90 90 97 97 89 84 98 98 93 97 98 98 99 97 98 96 97 97 97 97 97 97 96 96
80 85 85 91 95 99 99 96 86 94 99 97 95 84 71 86 78 80 78 83 84 89 85 88 81 73 84 100 94 96 98 97 97 98 97 97 98 97 96 95 96 92 93 95
88 95 98 99 99 100 98 96 96 100 97 95 89 87 82 93 94 97 92 92 92 88 84 91 95 89 98 97 97 98 98 97 96 97 98 96 97 99 100 98 97 97 100 100
98 99 99 99 98 98 87 95 99 98 87 97 86 90 85 99 92 95 99 98 97 87 94 94 86 89 95 94 96 98 96 97 98 99 99 99 98 100 100 98 100 100 100 100
98 98 91 97 99 79 98 99 95 85 77 91 89 89 96 91 98 94 95 98 88 82 82 90 98 94 98 100 100 100 100 89 100 100 99 100 100 100 100 100 100 100 100 100
98 94 97 98 92 95 90 98 89 90 89 95 93 93 94 88 97 96 86 91 82 82 88 84 93 89 90 99 99 96 93 91 94 98 99 98 99 100 100 100 100 97 94 93
77 89 99 100 99 87 80 90 90 91 81 94 98 96 91 90 89 99 98 94 94 94 97 94 93 90 100 100 100 95 93 93 95 98 98 96 95 97 96 97 96 96 95 95
91 78 94 91 92 98 90 97 77 85 76 86 99 100 98 96 99 100 100 97 94 99 95 93 90 92 100 100 100 96 94 94 93 92 91 92 93 96 95 94 95 95 94 96
67 78 99 87 99 92 87 88 88 81 100 100 99 99 99 99 98 96 94 96 96 94 95 92 88 96 100 98 93 92 94 94 92 93 95 94 92 94 96 94 96 95 93 93
80 77 98 99 91 98 96 96 94 98 99 100 99 95 92 87 82 86 85 90 93 92 92 91 99 96 95 92 93 93 95 96 94 95 94 95 95 93 94 97 98 90 63 59
80 91 96 96 95 97 98 97 100 100 100 98 89 90 88 96 90 84 89 89 91 89 93 98 99 93 87 88 91 93 95 97 98 98 97 96 96 94 86 72 63 60 63 59
86 99 98 97 98 99 97 99 99 100 99 96 86 85 91 83 89 91 91 92 90 95 100 99 92 88 90 89 88 90 91 93 94 95 97 95 75 58 60 61 66 70 71 72

GFSNW_850_rhum_078.txt.gz
RH
86 83 78 76 65 51 47 52 64 65 40 57 56 44 45 55 42 45 40 38 40 35 31 27 28 27 32 58 56 69 41 52 50 37 29 34 35 44 55 67 71 87 95 66
83 75 74 67 65 58 53 68 60 59 62 70 53 49 52 56 51 52 49 48 42 37 41 44 31 28 22 58 76 96 94 73 61 47 52 45 49 51 88 88 100 82 89 81
91 78 63 63 64 59 57 80 75 63 64 58 59 69 52 50 63 72 61 61 61 61 52 46 42 36 36 52 47 85 98 72 57 41 82 50 59 49 49 59 77 58 53 62
84 72 62 67 66 60 60 90 74 72 75 60 50 55 52 55 64 61 50 89 76 83 72 54 52 38 31 31 56 78 96 94 57 59 68 61 39 36 35 46 47 56 32 32
64 65 67 60 57 58 86 97 66 68 57 61 53 54 43 46 51 47 44 73 48 43 59 71 91 69 57 53 62 76 98 93 58 64 62 47 44 34 26 31 38 37 38 42
76 66 66 67 74 68 91 82 80 66 65 51 48 46 44 50 46 46 50 46 54 53 56 73 63 63 60 67 79 100 99 100 67 62 47 40 39 29 31 32 30 45 55 46
84 65 68 74 68 67 82 81 78 70 58 44 44 44 43 46 48 56 50 46 59 53 52 64 61 61 59 55 55 78 98 96 68 50 41 43 36 27 32 39 38 48 45 64
78 69 70 75 83 73 77 63 89 74 64 43 43 46 45 47 51 50 48 48 54 58 72 74 51 51 59 55 52 62 84 100 78 50 43 30 24 45 45 49 45 58 62 59
85 63 69 66 65 81 73 86 89 86 68 52 49 51 48 50 47 48 53 54 61 82 73 80 79 77 42 37 47 56 70 64 90 56 49 46 50 46 44 40 45 61 67 73
84 71 66 60 59 68 74 93 80 92 85 64 72 54 55 57 59 58 54 65 60 75 77 85 89 86 40 37 43 72 71 66 70 54 49 40 52 51 52 46 74 75 82 93
62 61 70 75 78 79 80 98 77 91 88 67 74 74 65 63 68 66 57 63 68 64 75 76 90 92 62 52 42 48 51 60 66 55 60 58 67 59 61 89 94 90 95 99
83 86 79 76 88 91 87 100 83 96 99 75 89 86 78 72 69 70 65 70 72 73 82 72 79 88 68 65 55 51 69 78 72 57 74 75 87 88 100 100 100 100 100 100
93 77 63 55 57 65 66 98 95 92 93 85 85 75 75 58 66 78 80 66 73 91 95 96 89 90 74 80 76 65 67 75 82 91 97 98 99 100 100 99 99 99 99 99
83 67 65 64 71 65 76 87 89 91 96 83 62 59 59 56 48 56 82 71 67 80 80 77 83 82 65 77 81 78 89 75 88 100 100 99 99 100 100 100 99 98 98 98
69 68 75 63 68 80 98 99 95 99 82 75 69 78 57 52 62 62 74 93 86 76 74 79 76 60 73 85 81 87 91 100 96 92 98 97 97 100 100 100 99 98 98 98
77 71 58 58 80 75 92 98 98 97 100 97 84 78 61 56 69 86 90 96 97 92 79 74 78 69 70 77 90 93 100 100 99 98 98 98 100 100 99 99 99 99 98 100
59 46 65 80 84 95 98 99 97 84 100 97 91 76 79 67 90 93 95 98 95 83 79 72 62 56 64 89 91 94 99 98 98 98 98 98 100 99 99 99 98 98 97 98
50 66 82 88 98 99 98 96 99 98 98 98 92 69 73 98 80 79 95 86 91 85 71 72 63 59 70 86 94 99 99 97 98 98 98 98 99 97 94 88 86 86 89 95
70 94 98 99 99 98 98 98 99 99 97 88 75 70 73 99 85 90 96 90 85 72 80 69 65 62 79 93 94 98 98 98 98 98 95 93 92 90 88 85 84 86 91 96
99 99 98 99 98 98 93 98 95 98 92 87 72 70 80 92 83 83 84 97 72 75 63 72 76 81 93 97 99 99 97 97 98 95 92 90 89 92 92 92 92 94 100 100
99 98 98 99 98 98 90 90 78 80 73 70 75 73 73 90 85 84 78 76 70 69 63 73 78 84 84 94 98 100 100 99 100 100 100 99 96 97 99 100 100 100 100 100
96 94 99 97 98 89 75 72 70 72 56 73 79 79 75 81 85 82 87 76 81 83 82 82 79 88 91 93 98 100 100 100 100 100 100 100 100 100 100 100 100 98 94 94
98 95 96 95 89 88 78 81 73 71 66 89 96 94 93 94 98 95 99 98 95 95 95 82 82 83 89 93 93 100 100 100 100 100 100 100 100 100 100 97 96 96 95 96
94 80 92 86 90 83 76 71 73 90 99 98 97 98 96 97 98 99 97 97 93 92 88 88 78 84 96 100 100 100 100 99 99 96 94 94 94 93 94 93 94 93 92 91
85 75 74 91 89 100 100 96 94 98 99 99 99 98 99 96 98 90 86 94 91 86 86 84 86 100 100 99 93 92 93 94 95 96 96 96 95 95 95 96 95 82 54 48
84 94 92 95 87 91 99 100 99 95 99 99 99 93 95 92 83 84 83 81 80 90 85 95 100 99 90 87 88 90 94 96 96 97 96 95 95 92 81 62 52 52 52 50
92 95 100 100 99 92 100 98 98 98 99 98 81 83 90 76 80 82 78 88 90 93 100 100 100 96 89 91 93 95 96 94 93 93 94 86 62 56 60 65 68 70 72 74

GFSNW_850_rhum_081.txt.gz
RH
87 83 66 60 56 48 60 58 56 59 46 43 32 31 28 33 29 34 30 30 29 29 26 28 26 23 15 22 39 62 60 73 38 24 20 20 24 36 43 68 49 52 60 66
89 80 73 72 61 64 67 41 43 51 79 69 38 34 33 36 34 35 34 34 31 31 36 39 26 24 19 18 23 80 85 67 56 38 29 24 29 28 33 55 68 65 72 76
81 73 70 58 63 53 79 53 69 47 41 39 46 46 39 40 46 45 43 41 44 44 41 32 39 35 24 24 31 58 67 67 69 51 49 60 67 32 39 53 70 56 54 37
90 81 57 58 56 52 81 66 63 52 63 44 39 44 38 40 47 45 36 67 60 46 50 41 40 40 43 38 21 32 65 71 52 48 33 41 62 82 41 50 46 47 33 26
75 71 54 60 57 54 73 78 48 47 42 44 42 46 36 31 36 35 36 54 38 34 41 36 52 52 50 48 37 58 75 72 57 70 54 45 54 56 30 26 23 25 26 28
52 60 60 53 51 87 66 83 75 53 48 38 37 36 35 38 35 34 34 34 39 40 38 38 40 41 42 42 50 55 77 78 76 69 58 51 66 44 31 22 24 26 43 46
66 60 60 62 66 80 71 76 63 53 49 31 33 33 33 34 34 41 35 36 40 35 41 44 43 41 41 43 42 40 88 79 86 88 55 70 34 22 20 24 26 35 39 57
80 59 62 70 66 64 84 71 62 54 56 30 32 36 34 34 35 41 36 36 39 46 49 58 48 39 36 42 38 37 41 88 90 95 44 36 24 34 33 39 68 49 50 46
76 66 64 65 74 72 88 74 73 61 68 40 34 36 35 37 34 34 36 41 50 57 76 70 73 63 48 43 30 28 45 75 92 82 60 52 53 36 36 30 56 58 56 59
79 65 64 66 60 66 88 89 91 73 82 47 49 43 47 43 47 44 38 47 47 55 69 81 83 82 48 49 39 61 69 74 82 88 47 44 49 37 36 44 89 68 73 80
96 80 65 57 51 58 87 98 90 87 79 54 58 54 50 47 48 55 51 52 67 59 71 69 85 92 60 49 34 46 48 49 55 51 54 61 65 47 65 91 84 83 84 90
92 64 58 65 71 81 78 99 98 97 93 75 78 75 71 62 54 52 50 53 56 61 71 61 81 91 66 62 60 44 73 87 95 89 98 84 84 87 100 97 97 98 95 98
68 63 80 80 79 89 79 99 98 98 95 78 66 57 62 71 73 67 62 50 54 78 95 92 72 90 67 76 90 74 61 52 78 83 96 95 96 96 100 100 100 100 100 100
70 90 76 66 61 61 65 97 94 93 87 70 57 61 63 66 68 70 70 70 66 61 58 68 76 77 58 70 69 76 70 59 71 97 86 84 92 96 98 100 100 99 99 99
88 86 67 58 58 73 78 91 98 98 81 81 72 65 55 61 68 71 70 70 70 61 69 74 79 55 79 60 60 78 74 96 90 95 90 93 98 97 96 98 100 99 99 100
89 77 63 68 60 71 92 98 81 92 96 98 71 69 68 63 70 67 65 70 78 86 77 73 63 69 57 63 87 84 93 94 95 98 98 98 97 96 97 98 100 97 98 100
88 74 70 60 57 79 98 96 100 88 100 98 88 54 65 68 69 71 67 78 83 81 75 56 58 54 54 67 88 93 98 100 97 98 98 98 98 99 97 91 90 86 87 89
72 62 50 59 86 96 97 87 86 100 98 98 89 63 64 75 66 65 69 82 85 84 66 60 59 54 51 79 93 96 99 96 97 97 97 99 96 88 80 79 76 76 81 86
55 54 75 90 97 99 98 84 96 99 98 93 73 69 72 89 71 72 79 73 74 52 66 59 55 59 72 87 89 96 100 98 98 96 96 82 78 74 73 72 72 75 82 89
65 88 98 98 98 100 97 98 98 97 97 90 68 51 64 71 75 80 68 70 62 71 63 58 68 71 88 90 93 91 95 97 96 94 80 80 78 80 81 81 81 84 90 96
92 98 98 99 98 97 98 88 88 74 77 62 60 56 60 70 79 73 63 68 62 63 56 64 71 82 83 87 86 90 90 86 91 96 97 94 88 86 88 93 96 96 99 99
97 98 98 98 97 87 74 68 58 58 47 48 57 57 53 64 66 70 66 62 64 74 72 76 74 81 86 85 88 90 93 94 96 95 98 99 99 98 99 100 100 100 100 99
98 96 98 90 82 90 82 74 66 64 54 75 81 80 63 68 64 78 79 91 80 82 91 83 83 76 79 82 85 90 94 98 100 100 100 100 100 100 100 100 100 98 90 91
99 89 93 84 86 76 66 62 67 92 91 82 82 88 87 86 96 98 100 95 97 87 86 88 74 79 86 91 89 93 100 100 100 100 100 100 99 95 93 90 90 89 87 87
93 64 77 87 89 100 99 97 92 97 96 97 97 96 96 92 100 96 94 96 93 80 92 86 90 98 100 100 100 100 100 100 100 100 100 100 95 94 92 91 90 80 53 41
86 91 90 95 85 86 97 88 99 97 99 99 98 100 98 95 82 83 80 72 76 91 87 95 98 100 100 100 100 100 100 100 100 100 99 96 96 99 82 57 46 45 44 43
94 94 100 100 99 94 100 94 98 99 98 100 93 94 95 75 75 74 69 88 92 90 95 98 100 100 100 100 100 100 100 100 100 100 100 100 69 53 70 89 60 78 62 63

GFSNW_850_rhum_084.txt.gz
RH
87 79 63 58 52 38 64 67 63 47 47 57 37 33 25 25 23 27 25 26 24 24 25 27 25 24 19 15 16 20 37 87 75 42 23 24 25 27 38 68 55 54 59 66
87 81 69 63 47 71 72 53 44 21 70 76 40 31 27 27 28 29 29 29 27 28 32 34 25 24 20 22 20 31 40 58 65 43 29 22 34 31 48 58 65 71 86 67
86 77 72 60 46 58 73 54 75 45 45 36 42 37 33 35 36 35 35 31 33 35 35 28 31 28 25 29 34 49 52 47 61 72 57 59 72 69 52 43 77 60 56 58
82 76 59 50 44 57 82 66 74 52 64 40 37 39 32 34 40 36 33 46 45 47 41 35 32 28 31 29 28 30 41 55 45 51 41 38 54 84 60 61 74 60 44 35
70 76 50 44 45 72 87 50 58 45 39 40 37 42 34 28 30 28 38 46 34 30 35 32 44 35 36 41 33 39 67 65 46 48 39 38 52 44 57 67 86 73 62 36
53 62 42 45 49 84 69 66 66 64 44 39 37 39 32 31 31 30 28 27 31 35 32 29 34 35 37 38 43 52 57 88 74 61 37 44 68 39 35 39 53 37 49 70
52 49 51 52 74 86 98 67 55 53 52 33 31 30 30 30 28 33 30 29 34 31 38 39 37 35 34 33 36 37 59 64 70 76 59 76 39 23 24 28 52 67 49 60
68 58 57 59 60 81 90 60 70 52 66 27 29 31 31 29 29 33 33 30 32 40 42 52 50 44 36 35 36 38 40 56 82 84 74 71 33 27 29 34 93 59 55 53
78 61 59 68 59 70 87 81 74 64 76 34 29 29 30 34 35 36 35 34 41 45 60 68 69 61 50 55 75 31 31 43 82 72 94 95 99 54 31 29 97 69 59 68
78 61 60 62 64 66 85 91 79 72 86 43 40 54 65 41 45 42 41 44 39 51 67 79 82 66 48 69 60 41 50 69 80 86 94 98 82 60 35 47 97 76 74 82
84 63 61 60 58 53 79 92 84 85 74 59 49 49 44 45 44 54 49 49 64 53 70 78 70 86 82 86 53 45 54 69 72 74 94 94 77 62 80 96 91 81 84 91
82 94 69 58 46 53 82 98 86 86 77 80 74 70 67 63 57 55 47 49 47 68 77 64 72 76 97 93 82 56 92 84 97 93 99 94 88 94 99 96 97 96 93 97
88 93 59 58 66 77 81 98 97 89 88 79 67 55 63 66 69 65 58 55 70 68 81 93 72 82 75 93 94 90 74 58 93 98 91 85 95 96 100 100 100 99 100 99
89 67 65 77 73 75 79 96 94 86 82 76 65 59 55 58 63 65 67 65 68 61 53 65 70 77 65 78 79 92 79 66 84 96 96 91 90 93 99 100 99 98 98 99
74 74 84 71 64 60 61 98 90 86 91 94 73 70 53 54 62 64 63 64 61 57 60 66 70 50 82 66 75 83 85 96 91 95 98 96 98 98 99 97 98 98 99 98
79 90 76 63 50 56 95 84 70 82 94 97 82 65 61 59 60 62 61 63 69 75 73 67 56 53 81 64 85 99 93 98 96 99 97 98 98 98 96 98 97 98 96 96
87 85 68 69 63 77 93 99 99 100 99 86 80 57 54 56 58 66 72 68 67 71 72 59 55 49 61 70 88 86 95 99 96 99 99 97 98 99 96 98 98 89 83 87
92 82 70 66 59 73 98 92 94 98 98 98 86 62 61 70 59 65 90 74 73 79 68 58 58 51 52 79 85 86 97 97 96 98 98 97 97 87 82 78 75 77 83 90
82 68 51 64 80 99 94 83 88 96 97 96 71 67 73 76 67 67 74 74 78 61 80 62 50 67 77 90 85 91 100 98 97 98 96 97 84 73 69 69 72 81 91 96
51 53 84 94 95 80 88 97 100 99 98 98 83 56 70 64 68 71 68 72 67 71 63 53 68 79 83 85 87 87 92 97 98 98 98 93 80 81 85 88 91 96 99 100
81 82 97 99 99 99 98 98 96 80 87 68 59 56 64 61 76 74 58 68 66 74 70 64 70 84 83 82 85 88 88 86 91 95 96 99 97 94 94 100 100 100 98 96
68 99 99 98 98 99 90 78 62 70 55 46 59 57 50 64 64 76 74 65 63 67 70 67 70 89 81 81 87 92 95 98 98 97 99 98 100 100 100 99 95 95 97 95
86 98 96 98 87 91 78 77 63 62 46 64 58 76 54 63 59 78 76 83 76 84 93 90 90 83 82 83 88 91 93 97 99 98 97 98 100 99 100 100 100 99 93 94
99 97 94 89 86 72 63 66 75 88 80 71 76 76 74 80 90 86 93 89 93 92 81 94 77 82 94 92 91 99 100 100 100 100 100 100 96 92 93 93 93 90 87 76
99 85 82 81 85 97 95 94 89 91 97 90 98 93 85 83 93 91 88 93 85 87 94 92 96 100 100 97 95 99 100 98 100 100 100 100 100 100 98 91 83 58 40 35
95 88 87 92 85 89 91 99 96 90 99 92 98 99 95 95 78 95 85 79 83 95 92 99 99 100 98 98 100 100 98 98 100 100 100 100 100 97 64 47 43 41 40 41
97 94 98 99 99 95 94 88 99 87 99 100 98 99 98 89 81 74 68 93 94 94 98 100 96 100 100 100 100 100 100 100 100 100 100 96 58 60 91 97 68 93 66 63

GFSNW_850_rhum_087.txt.gz
RH
88 81 74 64 46 33 68 71 90 48 48 84 80 61 30 22 24 25 26 27 25 26 32 32 30 28 26 33 34 40 49 69 68 52 37 32 43 50 55 70 68 73 78 90
80 83 61 52 43 56 68 71 50 31 62 94 77 32 30 27 27 31 29 29 34 36 36 39 32 34 27 31 39 61 55 69 86 48 38 50 69 73 79 89 82 96 90 80
84 79 69 55 45 64 71 73 90 42 49 39 58 45 40 38 35 41 34 33 37 40 42 35 40 35 30 28 33 45 45 63 72 81 64 51 88 72 57 86 99 97 90 65
82 71 64 48 40 68 72 66 83 60 87 64 53 46 35 45 45 37 37 49 45 50 55 45 44 44 41 35 32 41 58 75 61 53 44 42 44 70 52 72 86 98 86 77
85 72 42 44 41 72 65 70 80 50 49 41 49 48 38 31 33 29 50 49 42 38 47 45 55 52 54 53 46 54 72 83 80 69 56 54 44 38 39 49 72 79 84 97
70 64 48 45 64 80 73 61 60 64 46 46 53 50 37 34 36 32 27 32 41 46 46 45 44 43 45 49 54 59 63 89 85 68 56 61 68 52 46 54 62 69 88 95
49 52 47 44 84 66 72 65 60 58 73 50 47 34 32 31 33 39 34 31 39 42 38 37 40 45 43 42 44 43 63 74 84 89 73 93 42 42 49 80 89 86 86 89
51 55 53 67 77 78 70 71 69 64 91 50 34 34 34 30 30 36 34 33 38 38 42 71 77 66 56 53 46 50 47 70 89 89 96 71 52 93 96 78 99 69 73 72
71 55 54 56 69 80 77 72 68 71 92 69 31 37 31 46 56 54 45 47 45 41 90 92 93 85 63 71 65 52 69 73 83 89 95 94 98 94 83 87 99 76 76 81
78 57 58 63 61 71 64 66 74 74 78 49 56 64 69 46 59 62 57 51 54 47 91 94 96 95 60 80 95 66 78 80 81 87 92 89 99 88 74 86 98 81 84 90
78 60 60 61 62 62 71 74 70 76 74 67 58 50 49 50 56 88 53 68 67 81 88 95 94 97 90 94 99 81 71 80 87 82 94 95 90 78 87 99 92 86 91 97
84 64 58 53 50 51 88 86 67 68 75 79 63 54 56 58 64 62 56 55 66 81 92 89 92 89 94 94 95 94 98 100 98 96 98 100 99 99 99 100 100 98 97 99
76 90 69 52 43 53 84 84 85 83 82 75 70 60 60 55 56 56 67 76 76 71 64 84 94 95 81 97 98 93 81 69 99 97 95 94 100 97 99 98 98 99 99 98
73 91 55 61 75 73 76 92 87 83 84 83 73 58 58 58 63 66 63 64 66 65 60 66 94 94 70 96 92 94 86 77 95 99 99 97 98 97 97 96 97 98 98 100
88 72 63 73 69 69 70 83 85 88 90 91 76 60 56 54 59 64 64 64 65 63 67 86 90 66 91 92 96 95 93 97 92 97 98 95 98 97 98 98 98 97 98 100
77 77 78 71 63 56 60 66 68 78 90 82 96 63 59 57 60 61 66 64 64 63 70 77 67 56 78 98 98 98 93 93 92 99 97 96 98 97 98 97 96 94 94 94
78 78 75 61 50 74 94 96 99 100 95 76 83 80 58 57 59 61 64 71 77 68 72 75 66 58 73 95 98 97 95 92 93 96 97 98 98 96 96 94 88 92 97 100
86 84 64 63 63 88 96 94 95 95 79 98 86 89 66 64 61 65 74 87 78 72 75 67 74 64 61 96 96 94 91 92 100 99 93 90 90 85 85 83 83 86 91 94
95 77 68 61 70 80 92 92 89 90 88 94 88 93 89 73 69 68 76 77 97 67 94 83 71 92 98 92 90 94 99 99 98 98 93 91 77 75 77 85 90 90 96 97
82 62 51 98 85 83 85 86 95 98 99 100 91 73 88 70 70 77 74 74 94 93 87 65 92 97 95 95 92 93 97 98 97 99 98 96 85 82 82 89 98 96 95 93
51 55 88 98 96 90 99 99 100 99 98 88 83 68 85 66 91 93 66 94 89 92 90 90 96 97 96 93 96 95 96 96 96 96 94 96 92 89 86 91 92 92 89 87
49 84 98 99 99 99 100 97 86 96 76 61 67 60 59 63 66 77 81 85 89 86 82 90 92 97 96 95 97 96 92 91 92 90 91 94 97 97 90 89 89 89 90 90
73 99 96 98 98 98 95 96 88 87 54 56 59 83 58 61 66 79 98 93 93 91 99 98 97 90 95 93 92 96 96 93 95 95 94 96 96 94 92 90 91 90 88 88
82 98 100 97 96 92 90 91 92 76 70 71 67 73 78 80 90 91 90 87 95 98 97 97 96 98 97 98 95 87 94 95 95 96 95 95 92 90 89 85 85 83 74 49
98 100 96 94 90 88 86 92 80 82 98 84 79 84 78 90 89 90 94 98 96 97 97 99 100 95 88 91 95 90 92 92 92 93 92 92 88 84 85 83 61 39 34 33
98 96 84 87 83 92 88 93 98 85 96 90 96 98 92 93 96 99 95 97 97 99 98 100 98 97 96 93 92 93 94 93 94 92 86 83 79 61 45 42 42 43 46 49
97 92 94 98 81 95 73 97 100 83 98 95 86 96 90 100 95 87 97 98 99 100 100 98 94 92 94 93 96 96 94 95 93 88 84 59 60 81 85 76 66 63 69 72

GFSNW_850_rhum_090.txt.gz
RH
94 88 77 38 41 77 82 85 94 66 76 92 91 63 35 24 26 27 28 29 34 40 38 37 34 35 41 36 40 52 56 65 78 48 37 34 37 67 88 99 90 81 80 68
84 74 57 53 44 56 74 72 47 33 71 89 74 36 36 36 32 35 34 36 39 39 41 43 38 36 33 33 38 50 45 63 77 38 38 55 63 53 59 81 95 98 95 78
79 74 56 44 47 70 69 79 83 46 56 53 61 51 41 43 38 41 37 47 49 47 46 41 44 46 42 38 42 45 48 64 62 73 60 58 62 46 42 68 97 94 84 92
78 70 63 51 49 72 77 71 83 60 84 67 55 48 45 52 52 42 40 48 52 52 59 51 50 52 52 45 43 49 59 73 65 66 61 57 59 58 47 48 59 94 83 93
80 63 54 43 60 76 66 67 71 54 50 45 52 56 40 43 37 44 50 49 43 42 48 49 60 59 56 60 47 54 69 76 65 52 51 53 60 60 51 44 41 49 61 84
79 48 43 43 70 69 60 66 63 59 56 49 60 47 41 42 39 36 37 40 43 45 53 44 41 41 45 52 57 63 67 79 89 65 58 64 70 68 53 41 53 72 84 94
70 46 47 58 78 62 64 67 64 62 71 53 51 40 39 44 40 41 33 31 41 45 38 35 36 45 49 49 53 50 78 79 85 87 74 98 60 80 67 91 98 98 98 95
50 48 47 82 77 67 62 64 61 61 91 55 40 41 41 33 34 35 34 47 44 41 42 74 81 73 56 54 60 58 54 67 95 97 89 61 52 95 97 95 99 97 98 87
55 55 66 77 79 65 63 65 65 71 72 70 50 45 37 56 56 64 55 44 50 48 91 93 96 88 68 69 67 69 68 63 92 93 95 97 96 84 92 100 97 100 90 85
62 59 60 63 72 62 62 65 63 54 55 57 52 69 62 52 62 71 61 53 53 53 94 96 98 96 73 91 94 87 90 95 91 92 93 86 96 96 100 96 98 90 90 91
64 61 62 54 64 64 62 65 65 59 69 66 56 53 53 57 61 87 58 71 70 87 93 96 97 97 90 94 98 95 91 94 93 92 96 95 92 82 94 99 99 92 95 97
61 60 60 58 57 74 62 56 64 62 52 68 54 51 54 56 55 55 56 64 82 78 90 89 93 95 95 91 96 92 96 98 98 96 97 99 98 99 98 99 99 99 98 97
71 58 55 48 48 79 68 71 56 48 67 66 63 60 47 38 41 44 62 77 73 69 68 83 96 99 88 97 98 91 76 96 98 96 96 95 98 98 98 97 99 98 96 98
83 76 55 44 46 85 82 73 74 70 77 80 72 64 63 59 59 57 53 64 67 65 65 67 96 96 72 96 99 94 85 82 94 96 96 98 98 98 97 98 98 99 100 97
90 62 63 74 73 70 77 81 83 76 76 88 69 63 60 58 51 59 64 64 65 65 68 89 91 75 88 97 90 93 92 95 97 100 94 97 98 98 98 97 97 100 100 100
84 62 73 68 65 65 61 58 67 78 74 74 91 61 61 56 61 65 66 64 66 63 70 78 74 62 73 99 98 97 96 95 100 100 98 98 100 97 98 96 96 96 96 97
76 67 72 66 56 55 73 89 97 88 81 72 85 82 61 60 61 62 65 69 76 70 70 84 75 63 73 98 96 98 86 95 96 97 93 98 98 95 96 96 93 94 99 100
84 78 65 59 56 92 92 94 94 91 77 96 96 91 70 63 62 66 71 80 88 82 67 76 85 70 80 97 99 94 93 96 97 98 98 90 94 96 97 90 86 88 96 98
85 69 65 63 58 71 87 92 82 78 80 88 92 94 91 73 72 69 86 83 98 72 95 88 82 96 99 92 97 91 96 99 97 98 98 97 95 94 98 91 88 83 93 91
81 68 46 81 67 82 75 86 99 99 99 97 81 83 90 74 77 82 83 86 95 96 90 77 94 98 100 98 96 98 97 98 98 98 98 96 96 88 95 94 95 91 92 95
70 44 93 99 98 100 99 95 93 97 89 95 92 82 86 76 89 94 75 94 96 96 93 91 98 95 96 99 92 91 96 96 97 97 96 97 95 88 90 97 96 94 90 90
48 68 99 97 98 96 87 93 93 99 86 81 82 75 67 62 69 78 86 90 96 94 92 94 98 98 100 97 96 97 95 93 93 95 95 97 96 94 88 88 88 88 86 88
87 98 100 95 97 97 96 100 94 93 66 64 65 83 61 69 69 84 98 98 94 90 100 97 97 99 99 96 93 94 94 94 94 94 93 92 90 90 85 81 83 84 84 84
65 97 99 92 100 96 93 92 90 78 79 67 64 77 71 85 88 97 90 86 98 100 98 97 98 100 99 94 92 89 91 89 88 88 89 87 81 80 80 80 82 80 69 44
94 98 98 100 86 82 90 89 77 82 96 76 73 82 77 94 88 93 90 98 97 96 96 98 100 98 93 94 94 87 87 86 86 86 85 82 81 79 78 72 46 31 28 28
93 99 96 90 82 94 88 83 84 81 85 90 90 85 89 88 97 98 96 97 96 95 100 100 96 96 95 91 89 85 83 84 82 82 81 80 75 53 40 39 40 42 46 48
98 86 87 96 73 96 69 82 82 80 89 92 81 91 84 94 98 93 98 89 97 100 100 94 89 90 91 89 85 84 83 82 81 80 66 52 64 72 66 61 58 64 78 76

GFSNW_850_rhum_093.txt.gz
RH
99 98 96 54 44 49 68 80 96 86 66 98 94 91 46 32 33 34 33 39 42 41 39 39 39 44 43 38 39 48 48 65 76 43 38 39 42 78 82 97 93 86 95 85
87 91 74 52 60 80 80 77 70 78 86 98 85 43 45 46 39 44 40 41 42 40 45 50 41 44 46 38 46 45 41 61 65 32 42 47 54 48 47 60 84 92 94 78
80 70 59 48 49 72 77 81 86 63 70 75 64 51 46 47 39 44 44 51 47 46 51 45 45 51 49 40 51 53 48 61 56 67 50 59 68 59 55 62 95 90 84 74
78 73 59 42 52 72 83 76 80 59 87 71 56 50 48 51 51 42 44 53 57 54 60 50 58 57 55 45 45 59 60 68 67 65 65 55 56 57 54 62 58 73 58 67
78 66 56 44 58 78 68 70 72 56 57 48 52 56 50 51 45 50 51 56 50 48 56 51 57 56 53 54 49 55 71 76 63 62 45 44 58 57 55 56 54 52 45 48
76 55 48 42 70 74 63 65 65 55 63 55 53 50 47 46 46 42 39 42 45 54 56 47 42 42 43 46 59 64 67 80 81 64 56 66 67 67 90 56 46 56 62 64
67 48 48 58 68 67 61 61 61 52 72 54 53 45 42 44 43 45 37 36 46 44 39 42 48 55 56 60 57 54 79 77 83 89 67 96 58 87 98 89 91 95 94 98
52 48 73 82 73 65 61 59 57 54 87 53 44 44 48 40 36 39 57 49 47 45 51 72 74 70 55 58 66 68 58 73 95 95 96 66 59 95 98 98 99 100 100 97
52 51 84 84 70 63 63 57 54 44 69 72 66 52 42 60 59 72 55 50 49 48 91 92 92 87 68 69 78 69 70 62 78 95 99 96 90 84 84 100 96 96 96 93
51 59 77 80 70 63 62 59 57 43 60 69 51 60 62 57 66 79 65 60 59 55 95 98 98 95 74 91 100 93 91 94 89 92 96 86 95 95 99 97 98 97 94 95
56 59 64 74 65 53 52 63 49 43 61 66 53 46 49 58 59 85 63 73 71 85 93 93 96 97 84 97 94 96 95 94 92 87 96 95 94 88 94 99 98 98 98 98
57 60 57 62 58 58 57 62 57 49 50 60 53 53 50 48 50 54 67 65 86 75 90 92 94 98 96 95 98 88 97 98 97 96 97 99 98 99 98 99 97 100 98 97
62 62 59 56 62 71 53 56 51 48 53 63 58 48 39 39 39 47 70 80 75 67 67 86 97 99 91 98 100 99 81 93 97 97 96 97 98 98 97 97 97 96 96 95
63 57 50 44 69 71 65 59 55 52 68 76 74 63 63 58 48 40 54 62 67 66 69 73 97 96 76 97 100 96 83 84 94 97 96 98 97 97 98 97 96 97 97 96
79 56 46 42 80 76 71 63 62 63 61 80 71 65 62 59 56 58 60 55 60 64 71 91 92 80 89 94 89 99 88 96 96 96 96 93 99 99 99 96 95 96 94 95
71 61 72 68 69 71 60 58 66 63 57 51 88 64 64 59 60 62 66 65 66 64 67 78 76 68 79 99 100 87 98 96 99 100 99 95 96 97 96 95 96 96 95 98
67 72 68 64 62 61 59 78 83 71 64 53 82 81 66 62 64 65 69 67 73 71 72 84 79 68 81 99 99 92 91 95 96 100 95 97 99 96 97 97 99 100 100 98
70 70 65 57 67 73 85 96 93 76 60 69 95 89 73 69 66 72 79 80 84 83 70 79 91 77 87 99 97 98 88 92 98 99 98 88 94 95 92 90 91 91 100 100
78 65 57 49 81 82 92 87 80 72 68 83 91 92 93 77 76 77 88 86 99 87 96 89 86 97 98 93 97 93 93 94 96 98 99 98 99 99 94 91 90 84 91 93
70 59 46 56 58 76 82 76 70 90 92 94 89 87 94 77 85 90 87 92 97 99 90 83 97 98 100 100 93 91 97 94 99 96 100 96 96 97 95 93 92 88 89 94
65 51 93 94 98 93 98 93 88 95 88 92 92 85 90 80 90 95 83 96 97 99 93 95 98 97 97 99 96 97 94 96 96 100 91 96 96 90 88 90 88 84 84 87
51 81 96 98 94 89 78 83 94 94 84 92 92 85 72 72 74 79 90 94 98 94 98 98 98 97 98 99 95 92 94 96 96 97 97 95 92 89 85 84 87 87 88 89
86 93 97 91 97 94 93 98 94 99 81 77 79 90 60 76 77 87 98 98 96 89 97 97 96 100 100 98 94 95 93 90 89 89 92 94 92 88 85 82 85 85 85 85
82 84 96 92 95 97 94 93 90 80 94 76 68 79 73 88 88 99 76 88 91 97 98 92 97 100 96 97 92 85 87 90 91 90 88 86 84 81 82 82 80 81 76 55
88 98 93 99 93 84 92 93 81 86 95 76 74 84 78 97 90 85 90 98 96 96 96 96 100 95 91 89 85 84 82 84 87 87 88 82 80 77 76 74 50 30 27 28
81 98 98 95 86 92 82 81 79 81 77 78 84 93 92 88 95 98 95 97 95 91 98 95 95 93 89 87 86 84 81 84 85 88 82 79 80 64 39 35 37 41 44 48
91 89 89 98 83 88 74 81 80 81 93 87 80 84 81 86 96 98 93 90 96 100 94 87 85 85 90 91 88 82 81 81 81 82 80 54 46 57 56 53 54 60 70 70

GFSNW_850_rhum_096.txt.gz
RH
97 94 96 85 93 100 62 92 97 82 90 96 88 94 58 38 46 43 46 58 53 49 45 43 49 53 50 44 39 48 48 64 61 42 42 46 44 82 75 93 92 88 94 85
99 96 92 54 58 80 91 81 94 94 85 99 97 64 50 53 48 54 52 53 50 49 49 48 48 53 47 49 45 46 40 61 49 34 40 38 57 52 60 68 83 92 96 72
91 98 77 56 73 80 85 70 89 84 94 84 79 55 55 54 48 52 51 55 50 49 52 51 53 57 50 44 57 57 48 60 44 39 38 64 66 62 59 73 98 80 58 55
87 77 62 58 64 76 81 90 78 62 94 86 68 51 51 53 51 46 47 56 56 54 54 55 63 56 50 47 51 59 59 63 66 62 64 58 60 50 45 61 59 83 39 48
85 72 65 53 56 71 84 73 76 66 63 56 58 57 51 52 48 49 51 59 50 48 55 52 59 53 50 47 54 57 69 77 63 67 58 54 51 52 57 59 59 60 57 58
78 69 58 51 58 80 76 68 66 64 63 54 54 52 53 48 47 39 43 48 52 56 52 45 41 41 42 42 56 61 63 82 78 66 58 52 44 54 86 87 78 85 74 56
76 59 54 48 60 77 67 61 65 55 72 54 54 48 44 48 44 47 42 39 50 45 44 46 53 56 57 58 59 54 80 73 80 82 63 63 67 84 86 92 90 92 92 84
67 50 64 84 74 67 58 61 58 50 83 53 49 48 50 47 52 59 61 57 53 49 53 67 62 67 60 66 68 69 63 80 93 88 96 63 68 88 97 98 87 97 97 96
51 60 90 80 69 68 64 58 54 43 77 72 60 53 47 60 68 72 58 55 50 49 89 89 86 92 76 72 77 72 71 66 85 91 97 99 92 81 82 94 96 95 97 96
52 79 88 76 68 64 63 60 47 44 64 70 54 57 62 57 70 76 68 65 60 58 96 99 97 94 73 92 98 93 88 93 91 92 96 90 90 86 92 98 97 97 97 98
52 76 83 72 62 57 60 57 44 38 60 66 54 48 53 57 58 80 66 72 71 85 92 89 97 96 92 91 94 98 96 95 94 86 97 95 93 77 89 98 97 97 96 97
58 64 68 69 58 50 59 54 46 42 43 63 55 51 48 47 44 51 67 66 86 74 93 94 94 98 97 96 98 87 96 97 97 95 98 98 97 98 98 97 97 97 96 98
60 59 56 56 58 50 56 51 47 43 52 54 46 47 47 45 46 46 63 79 76 70 71 88 97 94 92 96 98 96 88 96 97 97 97 97 98 98 98 96 96 97 96 95
61 59 54 57 72 51 57 49 50 48 57 77 74 61 59 47 37 43 46 57 62 66 67 80 97 95 78 97 96 94 82 86 94 97 97 98 97 97 97 96 96 95 95 95
60 54 47 82 72 64 58 50 58 55 48 85 71 67 66 64 55 51 51 52 58 63 73 92 93 83 91 96 88 98 82 97 99 97 97 90 98 98 97 97 99 98 93 94
58 49 47 84 74 64 53 46 52 57 58 56 86 67 68 66 67 65 66 65 65 66 67 80 76 72 81 100 99 90 83 83 87 98 99 93 98 97 97 93 96 96 91 94
68 73 69 71 68 62 54 82 75 55 44 48 84 84 70 66 66 63 68 69 73 72 76 81 78 72 86 99 98 88 99 94 97 96 89 99 100 98 95 92 99 93 90 92
71 66 62 59 59 61 71 82 74 59 47 54 93 90 79 67 64 74 73 75 71 85 77 81 90 80 93 88 97 98 91 89 95 100 98 92 96 94 92 92 94 92 93 91
67 61 54 58 63 76 89 83 69 56 55 84 86 93 96 78 79 84 90 88 98 93 98 89 86 98 98 93 98 91 88 91 98 96 94 97 94 94 94 94 92 89 95 93
58 46 38 43 83 86 82 69 60 57 69 81 93 90 92 80 90 93 94 96 98 98 90 88 99 98 100 99 91 97 96 85 95 96 100 100 98 95 96 96 93 90 90 90
55 64 94 90 84 85 92 84 86 86 91 88 86 83 93 83 91 93 83 97 97 98 92 96 96 99 95 100 99 100 96 99 99 94 83 89 87 92 94 93 91 90 90 89
52 76 85 82 87 79 72 82 84 89 81 96 93 83 76 83 77 81 96 96 98 95 97 99 97 97 100 99 100 100 96 98 98 100 97 97 98 93 88 89 90 88 89 90
71 94 85 88 92 81 84 96 92 100 92 87 89 94 69 89 84 92 97 99 96 92 97 95 95 100 100 99 99 97 94 90 92 97 98 95 91 89 86 84 84 83 83 82
82 77 87 90 93 92 94 94 92 90 100 82 77 88 81 92 91 96 77 88 92 96 94 93 98 100 98 97 94 87 87 90 92 93 93 91 87 81 80 82 82 82 71 37
90 84 95 96 92 91 96 100 85 93 86 81 74 86 81 98 94 83 84 94 97 96 95 95 92 94 91 91 86 82 82 84 87 88 85 82 80 79 79 77 51 28 27 30
86 94 97 98 96 95 87 83 75 77 77 75 74 97 93 93 95 97 95 98 96 90 97 92 99 89 88 86 85 84 83 84 85 86 81 80 80 74 48 32 35 39 43 45
90 94 91 98 98 88 83 89 87 86 88 91 78 80 85 92 87 93 94 94 94 97 90 86 81 81 85 87 85 82 78 80 83 79 79 76 48 42 45 47 52 61 67 70

GFSNW_850_rhum_099.txt.gz
RH
98 87 91 97 98 99 56 83 93 89 100 98 99 88 53 44 44 46 50 73 63 50 45 44 60 51 51 59 47 47 51 48 37 43 43 40 50 70 68 54 67 80 83 67
97 96 86 86 99 85 90 97 99 84 93 94 84 67 46 49 47 54 71 65 58 47 48 49 49 47 49 52 48 46 42 43 32 40 46 40 48 49 49 52 64 65 73 56
98 95 92 58 100 76 94 69 96 100 96 98 89 69 56 54 48 55 55 65 59 48 48 50 54 49 45 51 61 58 46 50 33 28 47 51 52 54 51 58 78 59 50 35
98 95 87 61 89 91 95 91 79 66 93 84 81 65 54 52 52 49 48 54 54 52 49 52 56 48 46 47 54 58 54 54 54 48 58 56 54 48 44 44 40 51 22 32
94 82 81 60 73 81 96 84 86 69 72 59 76 70 59 47 50 46 52 56 47 45 50 50 54 50 46 44 50 54 60 74 60 60 52 53 52 43 40 38 42 49 54 63
96 81 66 59 64 75 92 76 72 66 65 65 62 60 56 49 46 42 45 48 49 50 51 45 45 42 47 48 49 58 56 67 58 45 51 44 42 45 42 59 65 70 84 66
97 74 62 56 60 72 86 71 68 64 68 54 50 47 44 48 44 47 46 43 53 49 45 49 52 56 56 53 53 52 66 61 63 53 58 45 78 74 78 83 75 85 82 87
77 62 59 53 54 91 82 65 68 57 78 54 52 53 61 59 57 64 64 64 57 51 51 56 56 61 62 69 67 62 54 61 72 69 69 50 81 86 91 91 84 91 91 94
65 55 59 74 74 70 61 55 64 50 74 66 55 54 54 59 65 65 61 57 51 51 78 74 71 74 70 73 78 64 61 58 67 82 86 77 88 72 74 88 90 86 90 90
55 77 90 78 71 68 68 64 58 48 66 69 51 54 57 58 68 68 67 66 57 60 85 92 82 79 67 81 90 87 80 80 82 82 84 79 89 83 84 92 91 92 97 97
59 90 84 75 69 65 62 60 48 41 61 70 55 51 53 59 55 70 68 66 66 75 78 74 89 81 85 86 93 91 85 82 80 75 87 90 87 71 81 94 99 98 98 97
73 84 78 68 58 53 61 53 45 44 46 69 61 57 51 47 42 53 65 62 83 78 77 80 82 86 89 89 88 86 90 92 90 91 90 94 100 96 97 97 98 97 96 96
69 72 71 62 46 46 60 52 50 48 59 58 52 53 48 51 45 47 61 79 70 73 70 83 86 81 78 87 86 89 82 90 91 93 92 92 99 97 97 97 95 96 96 95
62 58 54 58 55 48 56 49 49 45 46 81 74 63 51 52 45 42 43 51 62 64 66 84 84 75 77 90 83 82 75 78 88 92 94 97 98 97 97 96 96 96 96 96
59 55 69 68 61 62 56 50 50 41 39 85 72 69 71 63 50 47 51 52 54 58 70 80 80 78 85 90 81 90 72 87 87 86 91 89 98 97 97 97 96 96 96 98
54 52 79 70 67 60 48 45 53 52 52 53 84 72 74 69 67 65 66 65 67 68 67 80 80 75 83 94 92 83 80 80 88 96 96 92 98 96 96 92 95 96 94 96
49 43 76 74 64 50 46 67 64 49 47 57 87 82 74 71 64 63 67 70 73 70 80 78 72 74 88 91 93 82 100 93 92 88 88 99 98 98 98 94 97 92 93 92
69 61 69 64 60 51 72 70 55 40 41 55 90 87 80 68 65 79 70 75 75 87 83 85 80 87 93 80 91 97 97 99 98 94 95 95 94 90 92 91 93 94 95 94
62 62 63 61 53 68 80 60 48 42 43 75 80 90 95 77 81 90 89 87 95 96 89 81 80 89 96 84 92 97 86 89 100 96 93 95 89 90 91 91 91 91 94 92
55 44 32 68 89 75 63 52 48 44 55 67 91 92 94 83 90 96 94 98 92 88 81 93 95 92 98 93 88 83 86 84 87 99 100 100 100 95 96 96 93 86 85 84
48 56 92 90 78 72 68 79 82 81 82 82 88 88 93 84 88 88 86 90 90 94 84 87 89 87 88 100 99 97 98 97 93 86 84 90 86 90 93 97 94 89 89 88
54 61 75 77 79 72 78 80 83 82 78 96 90 83 81 88 74 82 97 92 94 90 95 93 94 92 100 98 98 98 99 100 99 100 89 93 94 95 90 88 88 86 87 86
62 77 76 76 82 86 87 95 93 98 97 93 94 92 76 88 84 96 91 98 94 95 96 88 90 96 99 97 96 98 98 97 98 98 98 98 95 90 86 85 86 85 87 86
77 69 88 89 87 91 90 88 90 96 99 88 80 96 92 96 92 92 75 83 90 92 92 89 89 98 96 97 96 92 95 96 96 96 95 90 88 83 82 85 84 82 65 26
88 76 96 93 94 97 97 98 99 94 90 81 80 87 85 96 94 82 82 88 93 91 90 87 92 98 96 98 94 90 89 92 91 88 84 83 80 80 80 79 60 28 28 35
94 94 96 97 95 97 96 86 90 92 87 78 72 94 89 93 89 87 93 96 93 84 93 93 93 95 97 94 88 86 83 83 83 84 82 80 80 77 60 34 35 40 42 41
93 98 99 99 97 99 98 96 92 90 76 85 71 84 86 86 84 82 87 95 89 95 96 100 91 88 92 88 83 81 81 85 87 82 80 77 60 38 41 45 51 56 61 66

GFSNW_850_rhum_102.txt.gz
RH
83 93 98 100 100 98 99 90 81 99 99 100 98 69 49 46 42 40 44 56 57 68 49 65 60 51 43 54 47 45 36 32 31 33 36 28 25 36 35 42 37 43 57 41
88 96 91 92 100 94 88 95 95 100 99 93 74 55 47 45 44 42 53 56 61 42 54 46 67 72 69 60 51 44 32 33 44 36 37 35 36 41 40 43 41 42 44 35
96 96 97 85 95 98 97 76 90 99 99 98 68 61 54 52 42 42 45 51 62 53 49 38 47 50 46 52 48 55 34 28 25 25 37 37 47 42 35 44 57 36 31 22
97 98 84 83 98 94 100 76 73 56 88 82 68 55 47 51 49 46 42 52 70 88 54 45 47 41 47 44 49 43 37 32 32 35 36 34 35 35 31 31 26 35 18 18
98 98 97 64 97 88 100 97 57 60 45 53 63 63 49 45 46 44 45 56 43 50 64 46 46 40 37 37 40 41 43 53 42 35 33 34 36 27 26 27 25 23 23 29
100 98 97 69 98 98 98 92 81 54 54 48 63 53 44 42 39 46 52 42 41 41 42 39 39 38 37 37 37 42 39 54 43 25 33 32 30 31 26 24 25 41 54 52
100 98 95 72 93 88 98 88 78 66 59 39 52 40 39 39 37 44 40 38 39 48 49 45 40 38 37 34 39 31 40 40 39 34 39 55 66 58 65 70 61 72 67 62
98 98 95 64 57 70 92 91 86 62 60 35 43 40 40 39 42 44 44 56 61 53 44 41 47 53 52 60 53 38 33 43 60 66 54 43 76 76 89 89 78 86 82 72
97 81 92 65 55 64 94 86 73 68 62 48 42 45 41 42 43 50 58 66 61 59 48 51 49 48 42 62 67 56 46 43 58 60 69 62 92 62 60 83 87 77 83 79
73 72 70 61 68 88 96 78 68 61 80 67 54 41 45 48 45 44 52 54 54 63 64 70 63 59 49 63 70 76 72 69 67 62 65 85 83 63 73 92 92 83 90 92
55 63 85 86 84 81 87 68 64 60 71 75 73 62 54 57 43 47 62 54 57 55 56 52 67 65 61 70 92 82 70 72 68 58 74 86 72 62 88 94 95 96 98 98
80 92 82 77 72 67 65 62 51 52 70 76 61 55 50 47 46 51 62 54 60 58 48 48 54 68 74 68 82 77 88 90 84 86 88 84 88 93 100 100 97 99 98 97
90 84 74 65 57 58 63 56 52 67 74 62 59 69 54 48 42 45 45 67 69 69 71 62 59 67 55 66 75 74 71 74 78 84 83 80 92 97 100 97 99 97 97 97
80 77 68 57 45 53 60 55 50 48 56 66 70 70 59 53 43 37 36 45 62 70 56 55 59 61 61 69 74 62 60 62 70 88 86 85 93 98 100 98 99 96 96 96
68 59 52 54 49 56 58 51 47 43 55 65 64 75 64 56 46 44 54 62 55 44 41 50 53 53 65 68 64 70 62 76 74 83 72 85 93 100 98 98 100 99 100 100
62 78 76 70 67 62 54 51 50 46 58 59 66 76 82 74 75 71 72 70 66 56 51 48 46 71 66 75 79 77 78 82 77 88 99 100 100 100 99 99 98 100 100 100
77 79 74 67 60 53 45 70 55 50 43 62 66 59 79 72 75 76 75 75 69 60 57 48 41 50 64 73 77 75 84 88 97 99 97 99 99 98 98 96 100 100 99 99
69 79 67 56 52 49 63 59 47 42 47 66 72 75 66 71 60 65 86 66 66 72 62 63 49 63 62 72 88 82 89 94 95 97 97 88 94 92 94 94 93 91 93 96
70 67 60 53 48 59 62 45 37 35 41 67 64 68 79 75 77 82 79 78 75 76 63 56 56 65 73 71 77 88 88 89 96 99 95 90 89 92 91 88 86 87 92 95
67 49 42 78 75 58 47 39 38 36 52 74 72 73 79 70 79 76 73 82 64 64 61 72 71 64 80 82 81 84 86 96 99 97 93 89 89 89 89 86 85 87 93 97
40 41 100 76 63 58 59 79 67 65 59 64 73 69 71 84 76 71 70 65 68 67 70 65 69 68 75 90 86 83 92 97 96 94 91 89 88 92 96 98 96 97 99 97
42 64 68 66 84 73 70 74 72 61 58 73 71 71 72 84 79 63 77 65 76 79 75 77 74 85 96 100 100 100 100 100 100 99 100 100 100 100 96 91 86 83 81 79
56 76 79 67 74 76 69 87 82 80 80 84 81 87 83 88 81 90 78 95 87 83 92 76 80 84 99 100 100 100 100 100 99 99 98 98 98 95 86 84 83 82 82 80
73 70 83 77 82 80 78 75 81 95 97 84 84 98 87 99 88 84 77 83 82 82 84 85 82 86 98 100 100 99 98 97 97 97 98 97 93 87 86 83 80 78 69 28
87 72 86 84 94 97 100 100 99 100 100 91 88 86 77 89 94 75 75 84 82 75 78 85 84 96 100 100 98 92 93 96 96 96 95 90 86 80 80 78 70 36 29 34
92 93 90 97 85 95 98 98 99 99 99 88 78 87 83 87 76 82 84 80 73 86 92 97 100 100 100 96 90 87 88 92 94 93 87 82 80 78 72 43 33 35 38 34
88 93 100 100 97 96 100 100 100 88 91 83 66 77 82 74 71 75 74 85 95 99 100 100 100 98 93 90 84 83 84 88 88 85 83 81 77 55 37 40 40 41 47 55

GFSNW_850_rhum_105.txt.gz
RH
100 100 90 84 99 97 88 94 99 100 100 100 98 72 51 42 36 34 35 39 44 46 46 36 54 41 34 38 28 38 38 44 50 33 31 26 26 27 41 75 53 65 44 54
97 99 87 90 99 94 98 100 98 100 100 98 91 55 47 39 40 37 44 47 42 38 51 53 84 45 52 50 39 38 35 46 43 37 32 26 26 24 28 32 37 36 45 48
98 99 91 88 99 100 100 93 98 99 100 98 74 60 55 47 37 37 41 61 45 47 50 41 63 69 58 46 39 54 40 34 36 42 37 29 36 28 26 32 51 32 26 18
96 99 98 92 88 99 99 99 80 68 97 96 61 58 50 49 47 36 37 59 55 57 61 51 52 47 49 43 49 36 36 43 30 24 25 24 28 28 27 27 26 30 19 16
91 100 99 97 87 97 99 98 64 52 49 50 58 68 63 44 41 37 46 51 49 57 67 49 44 40 39 37 36 33 34 36 35 30 25 24 24 19 18 19 18 19 17 17
91 99 100 86 86 100 97 93 81 56 54 51 65 69 46 42 44 41 45 47 43 59 60 37 32 31 32 32 36 38 38 46 36 24 26 23 22 24 20 18 14 22 31 46
79 99 95 82 87 99 92 93 93 66 63 53 53 45 41 43 48 46 42 50 37 40 39 36 34 33 32 31 30 29 35 36 32 27 30 34 52 47 49 54 44 52 51 51
98 99 98 92 82 99 98 100 94 79 84 36 43 45 38 45 41 58 35 40 40 40 34 37 40 40 38 37 28 26 23 30 42 54 38 40 48 55 86 84 79 80 67 59
99 100 98 87 92 99 99 97 100 97 84 42 41 40 42 48 47 47 52 56 52 41 37 40 39 44 30 48 49 33 34 37 50 47 56 51 86 52 48 67 75 65 73 71
99 95 95 82 98 97 95 93 95 93 98 59 52 50 46 44 41 44 45 49 49 45 52 62 49 46 32 48 57 66 56 56 57 50 51 85 71 51 60 92 92 79 85 88
95 84 90 65 79 65 84 94 89 96 79 69 59 53 49 45 37 46 44 47 48 41 53 44 51 58 44 57 93 57 56 54 54 43 62 83 63 57 80 90 86 85 94 97
69 78 63 59 64 87 91 100 76 66 78 76 77 72 66 58 51 40 46 44 36 42 41 36 40 55 60 60 66 63 81 93 88 83 90 82 79 88 94 90 85 99 98 100
78 86 94 94 93 97 86 98 71 73 69 63 55 65 69 51 40 48 38 43 53 50 58 48 46 61 44 60 72 67 62 61 79 79 82 77 87 87 96 96 99 100 100 99
88 87 84 91 84 84 71 90 80 74 55 62 63 64 65 65 50 54 60 59 62 54 47 50 52 50 54 64 59 76 53 58 69 88 79 76 82 89 94 100 100 99 100 100
86 81 66 63 58 62 85 85 64 64 68 55 59 61 68 60 56 54 53 48 41 32 33 50 46 43 56 54 49 55 50 92 74 85 68 78 87 97 98 100 100 99 94 97
86 67 54 53 53 67 74 57 51 54 50 48 60 68 68 64 61 59 58 54 46 37 37 34 38 62 57 66 76 70 63 67 74 84 86 93 96 99 98 100 100 93 90 89
66 68 71 74 68 76 64 67 69 57 69 69 57 49 68 70 58 59 55 54 50 43 38 34 30 39 47 58 66 66 69 84 91 90 90 93 92 95 89 88 89 91 88 88
77 77 69 62 58 52 68 53 48 44 69 61 56 60 57 67 46 53 62 49 48 50 45 44 36 44 42 59 82 68 81 90 87 85 84 81 85 80 80 82 80 81 82 83
70 60 59 66 77 76 72 45 39 34 67 56 51 62 72 63 56 62 57 52 59 51 48 41 41 53 62 57 73 75 79 84 93 84 80 80 76 75 76 76 76 76 80 83
65 62 72 88 90 47 38 40 68 62 57 58 53 51 72 61 58 59 56 54 48 58 48 51 55 50 63 56 70 80 80 85 84 82 80 79 79 76 74 74 74 76 81 85
64 80 97 79 52 71 63 69 55 50 49 49 51 56 64 61 67 60 47 50 51 54 65 53 60 55 63 78 83 83 84 94 85 81 79 79 78 78 77 78 80 83 87 92
67 71 82 65 73 64 68 64 58 45 47 56 57 49 53 62 55 53 54 50 57 70 56 60 58 81 73 91 93 94 92 91 89 94 87 91 86 86 88 90 94 99 91 81
59 69 67 60 64 80 66 83 67 71 64 72 62 78 67 64 60 71 63 89 82 61 81 66 78 78 81 94 99 98 98 98 97 99 99 96 97 98 100 100 89 78 74 74
64 64 86 76 81 70 68 67 82 92 74 62 73 89 72 77 80 73 72 77 68 75 76 74 75 84 90 96 99 100 100 100 99 97 97 97 95 93 86 80 77 75 72 45
75 63 80 79 85 90 98 94 94 98 86 73 70 70 64 73 88 70 69 78 76 65 82 85 82 94 99 100 99 100 99 97 96 96 96 96 94 84 80 79 78 74 36 32
82 84 86 88 83 99 98 98 95 93 85 75 63 80 79 79 67 75 73 70 68 92 90 94 98 100 100 100 97 96 96 96 96 96 96 93 85 80 77 75 57 31 35 33
78 93 97 99 98 98 99 93 94 90 75 87 56 76 71 60 60 63 64 89 96 96 100 100 100 100 100 98 93 88 90 93 95 94 90 84 82 79 70 35 35 40 34 38

GFSNW_850_rhum_108.txt.gz
RH
65 73 83 99 100 100 100 100 100 98 100 100 99 93 62 55 50 32 29 33 37 40 40 43 38 57 53 40 47 60 44 43 55 44 25 24 28 35 70 98 94 90 82 77
56 62 69 100 100 99 100 100 99 100 100 99 98 70 56 53 37 35 35 36 36 36 45 53 49 50 55 44 35 38 40 52 54 63 42 27 31 33 30 40 41 45 52 50
70 73 77 88 100 100 99 100 100 99 100 99 87 70 64 63 36 34 33 38 42 41 46 37 56 63 53 42 36 42 40 40 46 63 60 34 36 27 24 30 60 44 36 45
65 74 75 86 100 99 98 100 98 71 96 97 84 65 49 57 52 34 37 48 48 47 52 44 54 57 55 44 43 39 39 51 38 33 24 23 28 24 22 25 25 42 29 20
65 74 77 93 99 99 100 99 99 78 48 63 81 71 68 48 42 39 40 51 45 46 54 46 51 66 50 53 40 44 44 60 46 42 26 23 24 17 18 20 20 18 16 21
67 72 92 91 99 100 99 96 84 92 59 89 71 66 61 55 40 40 32 39 45 50 53 50 38 39 39 35 50 56 45 52 42 40 28 23 26 26 18 20 17 25 29 54
85 83 89 95 99 98 95 90 97 96 71 55 67 48 46 47 48 71 45 56 58 58 46 36 34 35 35 36 37 31 42 40 36 33 31 34 49 44 42 49 63 56 52 52
85 92 88 98 99 99 97 98 100 99 93 60 46 46 51 45 65 69 41 50 59 38 33 45 50 42 38 35 29 28 26 34 38 44 37 47 45 53 81 77 87 70 64 57
87 94 97 99 97 89 98 100 100 98 100 78 46 49 53 92 88 62 49 46 42 35 48 51 56 57 38 48 43 22 24 27 52 50 54 49 78 46 46 62 82 66 72 72
80 93 99 99 87 90 98 99 100 100 100 79 83 74 82 67 65 50 52 53 50 42 59 70 58 58 27 52 52 46 49 51 56 52 47 87 68 46 54 85 89 83 82 89
88 100 100 97 86 93 99 97 97 100 100 75 96 78 83 56 50 57 51 50 49 50 60 50 52 65 41 64 89 48 49 52 54 48 53 73 63 56 76 88 83 90 89 95
100 99 98 99 90 99 99 99 96 95 100 81 72 65 67 68 62 58 43 42 42 43 44 33 39 55 60 60 69 60 84 92 87 89 91 77 81 89 91 95 88 94 94 96
95 88 97 91 93 97 93 97 96 91 76 72 70 67 59 46 44 48 40 37 47 53 59 66 51 55 46 64 69 60 57 58 80 79 76 76 81 88 87 90 92 97 100 100
76 77 69 73 96 98 95 99 93 94 97 82 62 60 58 52 35 53 61 50 49 47 55 57 61 57 55 75 58 59 46 49 69 88 80 80 78 87 95 99 99 100 100 100
92 94 91 94 99 88 97 99 100 99 94 65 60 58 54 52 50 49 50 51 49 43 41 56 61 48 53 52 54 60 52 88 70 84 68 80 84 91 98 99 100 98 93 96
86 89 95 94 85 79 99 98 96 90 78 49 63 60 58 56 55 53 52 48 40 32 34 37 44 60 55 66 73 59 59 73 71 82 79 90 92 93 93 97 91 87 88 90
90 83 74 60 63 99 83 77 62 63 64 54 62 53 61 59 54 52 50 48 48 38 32 32 33 42 50 62 70 59 69 82 88 91 91 91 91 92 92 91 86 86 84 85
76 71 65 72 93 96 72 69 55 59 65 61 59 64 56 65 48 53 57 44 43 46 41 38 33 40 37 68 75 70 82 88 83 85 81 83 82 80 80 82 79 79 79 80
73 75 75 72 76 68 58 54 47 48 70 55 56 64 68 64 59 55 51 47 66 45 45 38 37 57 61 63 65 78 85 81 80 82 77 76 71 71 74 73 74 75 79 81
68 69 72 76 72 53 41 39 60 57 52 54 58 58 70 57 57 56 52 48 50 59 47 49 54 65 57 58 67 72 79 83 81 77 75 72 70 70 70 71 72 75 80 83
67 86 90 72 44 58 54 60 56 51 51 45 51 52 61 54 68 60 46 51 49 51 61 50 62 57 62 63 72 74 76 81 82 75 75 75 73 73 73 74 75 80 84 86
66 74 76 67 67 62 65 62 51 51 46 52 58 51 52 53 49 55 49 47 52 64 55 57 55 79 75 82 88 93 86 84 84 86 83 82 80 78 78 80 85 86 87 87
66 61 62 57 58 79 70 76 57 69 64 68 59 78 63 54 66 68 59 82 74 58 73 65 84 81 96 99 99 100 98 94 96 89 91 90 89 86 85 88 88 87 87 80
57 63 85 82 80 66 81 88 86 81 68 64 74 86 80 69 86 70 75 79 66 73 71 87 81 91 100 99 100 95 98 98 97 99 95 89 87 89 89 89 83 76 74 71
70 64 80 80 85 90 97 94 87 93 79 70 71 74 64 71 80 72 67 74 72 64 95 92 88 98 98 99 99 97 94 93 96 96 93 90 89 91 86 81 78 74 65 35
80 85 81 83 85 96 99 94 97 92 78 69 63 79 79 78 67 69 67 66 74 96 92 100 99 96 97 97 93 100 99 98 97 96 96 95 95 89 80 80 78 68 33 34
78 92 98 99 96 99 99 90 85 85 80 94 54 72 64 57 58 61 61 87 95 91 96 95 96 95 99 98 97 96 96 96 96 96 97 97 93 82 80 77 56 33 36 30

GFSNW_850_rhum_111.txt.gz
RH
62 73 70 73 80 98 100 99 98 97 100 98 99 97 86 58 59 49 54 52 52 56 47 47 48 66 61 47 52 66 62 66 69 55 44 42 39 53 61 97 92 98 98 99
59 69 60 66 80 98 100 98 99 100 100 98 97 87 69 59 64 69 68 43 41 38 47 56 54 63 61 45 55 81 78 99 83 56 58 52 47 39 62 67 83 79 78 92
71 67 69 60 64 80 100 100 99 100 100 100 97 79 91 92 80 53 51 39 37 48 54 50 54 81 56 47 43 42 48 56 57 67 73 64 48 37 38 54 81 64 52 82
70 72 64 71 68 78 100 100 99 85 98 97 100 80 79 73 77 47 39 47 52 61 65 58 56 57 66 49 42 44 55 67 48 42 50 34 30 30 30 37 40 57 42 74
66 59 58 58 72 92 100 100 98 96 78 72 92 89 99 87 67 66 48 62 56 56 64 56 60 83 89 63 46 55 52 82 52 59 39 28 30 24 21 22 23 23 55 90
67 56 64 68 76 98 99 99 95 98 98 93 90 82 75 70 64 48 41 45 53 59 56 54 45 61 58 48 56 62 60 69 64 81 45 37 36 46 40 48 62 56 75 79
77 67 64 78 86 100 98 98 92 97 95 100 86 66 68 64 58 81 57 51 71 60 57 43 47 59 60 50 55 51 59 59 66 65 40 55 62 49 54 75 76 66 63 72
69 70 73 90 93 99 99 100 98 100 97 77 66 75 62 57 51 81 85 61 60 53 39 61 57 52 44 44 40 44 40 57 62 72 68 61 56 64 80 81 90 78 79 81
73 78 82 88 94 96 100 99 88 99 97 93 88 74 60 93 100 99 99 64 42 37 74 78 91 85 57 55 42 30 32 43 75 72 80 80 85 58 62 68 96 79 81 81
82 89 89 87 76 98 100 99 98 100 100 97 99 95 98 98 99 99 70 52 46 40 88 89 86 77 40 64 65 53 58 67 71 80 84 90 72 54 55 88 88 84 86 97
92 91 87 96 100 100 99 86 100 99 100 99 100 96 99 99 92 96 60 65 60 67 80 81 88 98 76 76 81 56 67 76 82 75 84 97 79 70 81 92 89 86 93 95
94 93 96 99 99 96 95 96 100 100 98 100 99 99 100 96 84 58 54 55 53 55 69 60 58 83 86 81 95 66 83 87 96 95 99 83 85 89 83 82 91 90 90 96
70 80 98 99 93 89 97 99 98 98 99 98 90 83 60 61 61 54 47 48 47 54 55 85 77 65 72 88 91 82 75 72 93 92 83 82 87 90 85 86 88 92 94 95
88 100 100 97 96 92 100 96 99 100 99 98 63 59 55 30 47 46 43 43 41 45 52 74 90 88 75 85 78 81 68 70 85 96 85 83 90 92 88 93 94 97 98 92
92 92 95 90 94 99 99 100 99 100 98 81 62 54 52 49 46 42 35 32 38 43 57 79 85 64 75 74 81 90 73 83 91 93 82 80 95 88 98 98 98 93 97 100
81 74 68 91 99 99 99 99 99 79 85 55 88 60 56 55 52 49 48 45 43 42 45 58 60 59 66 92 98 75 76 74 68 86 80 79 87 91 97 97 92 94 94 89
93 88 96 99 98 97 96 94 84 77 75 56 83 69 62 58 54 52 49 47 47 46 33 47 56 56 57 92 95 83 92 85 84 81 83 95 95 98 93 91 93 93 91 90
87 89 83 85 96 98 73 70 64 71 65 58 88 87 71 62 58 55 55 46 44 43 44 39 62 45 53 95 89 85 92 87 77 75 80 87 90 92 92 90 88 87 88 88
68 75 87 96 98 85 61 63 59 57 62 70 75 90 91 61 60 52 49 50 87 45 73 62 54 90 84 85 86 87 83 82 78 86 85 86 88 87 87 82 82 82 83 85
83 86 85 99 90 54 52 42 44 52 48 56 82 61 91 66 60 67 64 54 84 86 75 51 90 94 64 68 75 77 76 77 79 81 82 78 78 80 78 78 78 81 83 84
93 93 88 66 51 61 54 53 67 57 71 55 62 57 82 58 87 90 56 84 80 81 86 82 91 94 82 70 76 73 75 77 84 74 74 74 73 72 73 74 77 80 82 80
72 58 56 64 68 60 74 88 71 72 64 57 77 63 57 54 53 76 61 72 81 80 76 84 86 94 74 72 78 79 78 80 84 79 75 73 75 73 74 84 80 81 81 79
59 60 64 61 66 86 82 93 80 91 76 64 59 83 56 60 60 80 89 83 91 73 84 89 100 98 91 83 80 85 91 92 95 84 82 82 86 91 95 89 80 81 83 80
60 69 90 90 93 93 100 99 99 79 70 70 70 80 87 75 91 94 78 93 90 88 89 94 99 100 100 98 97 91 98 99 99 96 90 86 89 95 96 95 82 82 81 76
73 71 95 95 93 94 90 84 90 85 74 59 77 80 65 92 85 80 82 85 81 87 98 100 100 100 99 100 98 94 96 99 98 96 92 90 90 91 92 89 83 80 74 64
79 90 87 82 90 96 95 98 94 81 66 60 61 89 90 88 86 86 81 86 95 98 100 100 100 100 98 98 98 96 93 88 97 98 98 96 93 93 87 82 77 75 63 34
82 98 100 99 95 97 98 100 99 86 75 97 87 77 75 86 84 82 92 98 98 93 96 92 88 87 98 98 98 98 98 95 98 97 97 97 96 96 91 78 78 59 34 35

GFSNW_850_rhum_114.txt.gz
RH
74 76 89 86 80 80 99 100 93 95 100 99 100 98 79 58 61 55 58 63 65 65 56 52 50 72 58 49 51 66 82 78 92 60 53 50 52 61 74 94 88 97 94 97
65 70 76 79 78 86 99 99 100 97 100 97 95 97 91 72 74 61 62 63 60 56 58 69 60 56 62 52 65 79 87 100 97 90 64 53 60 51 55 66 91 93 90 89
65 57 68 71 70 85 96 100 99 99 100 100 98 96 98 88 75 81 71 64 59 50 55 53 62 80 63 53 62 77 82 100 99 85 69 61 58 46 57 74 96 76 70 87
63 63 63 71 72 73 98 100 99 88 98 98 93 80 70 75 97 76 80 78 62 62 68 59 64 73 65 50 55 58 83 91 74 56 55 53 49 29 36 55 57 68 58 84
73 66 72 67 76 86 99 99 100 100 92 76 93 97 98 81 72 67 91 99 87 65 68 61 68 78 86 68 48 67 68 96 94 91 55 39 31 26 24 23 40 77 78 95
73 71 62 57 67 85 100 100 81 100 89 88 91 81 75 78 75 66 56 66 64 64 64 54 47 60 72 71 58 71 82 96 96 94 75 69 64 39 52 65 66 67 82 76
70 62 52 48 61 80 96 99 99 99 96 97 83 71 71 74 69 75 64 64 64 57 53 55 62 62 60 55 59 58 74 86 86 87 78 95 66 63 60 76 80 73 82 80
75 68 67 54 55 80 92 99 94 99 98 91 96 99 97 72 70 70 83 66 65 57 61 88 94 94 83 76 59 59 57 85 96 83 72 71 62 66 80 77 92 81 84 88
79 77 65 64 62 86 97 97 100 100 99 92 83 84 92 96 90 90 88 93 83 50 83 86 94 90 70 70 59 49 58 56 77 82 70 88 81 64 62 61 89 83 84 86
57 60 75 71 73 95 98 98 99 100 98 97 99 95 92 87 94 96 98 100 99 58 91 96 93 82 52 68 69 61 56 70 62 75 83 89 73 62 59 71 80 85 81 85
66 68 70 73 78 94 99 99 99 98 100 99 97 99 96 98 92 95 99 91 83 77 80 88 94 95 84 80 77 58 62 69 80 78 92 92 81 70 77 89 92 92 87 89
83 81 75 91 89 96 99 100 99 99 88 99 96 97 100 98 80 68 74 66 66 59 74 74 79 99 98 83 89 72 77 78 90 93 91 91 90 95 88 76 89 97 88 98
83 75 91 99 95 99 99 98 99 100 100 97 99 99 99 96 77 68 54 56 50 56 54 84 82 71 82 90 93 85 83 75 96 90 91 90 99 92 87 80 84 85 84 90
76 85 96 97 99 100 98 85 98 100 97 97 94 94 87 96 77 66 47 40 46 51 53 84 90 87 75 88 82 86 78 74 91 96 92 90 99 95 92 88 85 91 94 94
85 90 96 99 99 97 90 98 99 100 92 88 66 56 53 55 50 44 44 40 39 44 60 83 89 76 84 84 84 93 80 89 91 92 82 79 94 93 88 88 92 98 94 97
69 97 99 93 96 99 99 99 98 97 77 62 90 60 57 54 44 42 40 38 44 43 50 74 68 63 67 95 99 86 84 68 64 88 80 75 92 87 90 92 90 91 93 92
99 92 90 92 94 97 96 96 91 82 90 65 85 73 60 56 53 51 47 47 47 38 44 58 67 59 65 95 97 98 90 78 74 77 81 100 91 99 96 96 93 99 94 94
83 87 94 99 100 93 90 74 79 77 79 68 92 89 66 60 58 56 53 47 45 47 48 52 65 50 73 96 98 97 91 85 82 81 78 84 92 91 96 95 98 93 93 94
98 99 99 99 99 97 77 73 77 74 74 75 80 88 85 63 64 55 49 52 85 55 77 66 63 93 84 90 98 96 89 81 88 80 86 87 93 97 98 94 90 93 95 95
97 97 99 98 80 65 69 50 50 57 53 62 83 68 85 66 72 75 65 64 85 84 75 57 90 95 82 83 83 82 80 77 73 93 96 94 97 95 94 90 89 88 91 93
96 89 91 64 60 54 50 57 60 65 72 68 69 62 83 63 84 89 65 84 86 84 84 81 94 96 92 85 78 79 75 76 76 76 85 86 85 88 85 85 84 84 86 86
91 64 57 67 68 64 73 90 74 71 69 71 77 63 60 67 55 75 76 75 83 84 86 83 94 96 86 80 78 76 74 80 82 77 80 79 79 80 81 80 81 81 82 82
82 68 66 57 73 85 75 88 82 89 83 68 65 86 61 60 56 82 86 86 93 83 92 89 86 99 88 80 79 80 80 88 83 77 75 76 76 78 87 95 93 81 80 77
57 65 87 81 92 98 97 98 98 89 82 63 65 85 90 78 90 97 87 93 87 95 93 90 94 100 92 84 84 83 89 94 87 79 75 80 92 96 97 97 96 95 82 78
70 74 99 99 99 100 100 99 97 80 62 55 73 76 69 95 85 90 86 87 91 88 94 96 98 99 96 93 94 91 94 98 95 89 87 91 96 97 96 97 96 96 86 79
77 93 91 94 88 93 98 100 94 76 59 55 63 92 92 91 88 85 88 89 94 94 100 100 100 98 100 100 98 94 95 98 97 97 97 97 97 96 96 96 96 96 91 69
87 98 100 94 94 99 99 100 93 77 61 92 89 80 78 90 90 84 91 95 83 98 98 96 84 89 98 97 97 96 97 98 98 97 98 97 96 97 96 95 95 87 71 37

GFSNW_850_rhum_117.txt.gz
RH
76 71 64 77 74 81 85 99 99 83 100 99 100 96 80 59 60 50 58 62 66 66 60 59 54 63 58 51 58 70 71 82 86 68 53 55 59 65 84 92 94 90 95 90
67 56 62 78 86 96 98 98 98 90 99 95 94 82 76 68 65 63 68 62 63 63 68 73 63 57 60 53 69 82 85 92 99 90 83 75 92 64 64 76 82 94 95 82
58 55 72 84 90 95 98 99 99 100 100 97 88 93 96 87 79 73 76 68 60 66 67 64 63 71 68 56 67 81 76 92 84 75 76 74 94 74 62 73 98 87 86 86
62 62 62 73 82 93 100 100 99 91 98 97 95 85 83 89 93 75 76 71 80 77 78 68 71 75 67 53 79 85 83 94 96 90 84 91 94 82 73 68 71 80 64 88
63 70 67 57 75 95 100 98 99 99 98 78 96 90 84 87 76 66 97 94 78 88 82 82 62 76 72 68 67 73 81 90 90 89 73 62 75 47 28 48 56 64 72 91
69 68 67 62 64 96 99 99 98 99 94 91 94 82 81 71 71 65 62 73 86 84 87 78 71 52 62 70 64 83 88 96 97 88 87 96 97 63 35 67 68 76 87 78
77 81 80 64 67 83 94 98 86 98 92 97 87 73 74 77 70 81 67 66 74 66 65 89 97 74 62 70 60 69 92 95 98 95 95 95 75 68 64 74 80 82 86 86
77 79 74 66 59 79 86 92 99 97 95 73 91 85 75 71 70 73 72 68 72 72 74 100 99 97 92 83 63 65 74 89 96 95 92 78 71 74 80 72 86 82 89 89
82 76 72 65 56 56 85 88 86 99 100 92 95 98 87 95 96 88 77 74 84 93 100 98 92 93 82 96 83 60 73 75 88 94 94 94 74 65 64 57 74 83 90 91
78 79 71 63 61 61 80 88 90 100 97 85 95 91 92 83 89 93 89 98 99 100 98 98 96 89 61 89 88 96 95 96 91 84 84 84 74 64 58 65 69 85 89 95
58 65 67 70 66 64 79 83 100 99 100 95 95 94 95 94 87 97 94 96 100 99 97 93 96 92 78 75 78 70 74 88 90 73 87 83 75 67 74 85 92 83 87 95
40 44 57 67 69 72 83 100 98 98 99 98 94 89 92 94 97 79 91 79 89 91 94 82 92 98 97 83 91 68 77 78 81 80 83 92 93 89 84 77 85 84 79 85
72 69 64 56 68 80 89 98 100 100 99 92 99 97 100 99 98 84 75 68 55 64 54 85 84 84 90 94 95 91 84 74 93 88 94 96 100 92 80 76 78 81 85 100
83 80 69 72 78 87 99 99 96 99 98 98 96 87 95 100 100 99 68 50 62 61 60 88 93 94 76 86 84 86 78 74 90 96 94 96 99 95 87 87 84 83 90 90
95 83 90 92 95 99 100 96 99 98 98 89 99 93 100 97 86 82 59 50 53 53 64 86 91 85 84 89 84 95 78 91 91 88 81 80 90 96 88 85 87 88 90 94
92 95 97 97 99 100 99 99 99 99 100 72 96 75 86 72 77 70 48 43 40 44 60 83 74 67 77 96 97 89 88 76 62 77 81 73 95 89 85 85 91 96 92 91
91 94 96 99 100 97 88 88 85 84 97 71 86 75 59 56 53 51 51 50 48 39 51 67 74 66 70 94 93 95 91 81 74 77 78 100 97 99 86 90 95 94 89 89
98 98 99 99 99 95 98 92 72 80 81 77 93 87 68 60 57 60 54 50 48 53 54 60 65 59 77 95 95 100 94 89 84 80 77 80 89 91 90 88 96 95 96 96
99 99 98 99 99 99 99 97 84 84 89 79 80 86 89 64 66 59 54 52 84 62 78 69 68 94 85 85 92 98 90 79 83 83 78 86 90 96 94 97 100 98 100 95
97 99 99 99 100 95 96 89 78 79 73 74 87 74 87 68 76 77 68 66 86 82 80 63 92 96 90 85 90 80 82 78 84 91 100 98 98 100 99 96 94 91 91 92
90 92 100 100 90 75 57 62 58 69 75 74 75 72 88 66 83 91 70 87 88 86 85 78 95 96 95 93 86 81 80 77 76 72 79 88 92 95 95 95 93 90 87 84
85 87 91 74 69 64 71 90 78 72 73 78 79 68 67 71 54 78 80 77 85 83 88 83 92 93 92 88 83 78 77 77 72 79 84 90 89 84 89 90 88 86 84 84
83 64 64 60 73 83 73 86 82 89 89 73 69 89 69 58 57 84 86 86 93 84 90 89 88 94 90 80 75 76 76 80 81 81 86 88 90 90 88 87 87 88 84 86
59 68 92 84 93 91 90 92 96 95 81 68 66 87 91 75 92 97 88 94 86 97 97 91 89 98 87 80 78 79 83 87 84 81 82 83 90 95 96 96 96 94 90 84
71 75 99 97 99 99 100 98 99 84 69 54 68 79 70 94 86 93 87 89 95 90 90 96 99 97 87 88 90 84 86 90 83 79 81 88 94 96 96 97 96 96 96 92
82 92 92 96 90 98 99 100 94 73 60 58 64 93 91 93 90 86 89 86 93 92 98 100 100 100 95 93 91 89 92 95 92 88 91 96 97 97 96 96 96 96 96 95
89 98 98 98 98 99 99 95 84 65 50 93 90 82 81 90 92 88 83 97 94 98 99 98 77 80 96 96 97 98 96 98 99 97 97 97 97 97 97 96 96 96 96 95

GFSNW_850_rhum_120.txt.gz
RH
99 98 94 96 91 82 73 87 99 79 92 99 93 95 75 58 56 50 57 63 64 61 59 60 55 62 53 53 59 68 63 73 75 67 60 61 67 72 77 94 91 92 94 89
98 99 96 92 71 82 87 94 90 91 100 96 98 85 74 66 68 62 66 64 68 66 66 69 63 54 53 54 67 77 84 92 96 88 76 73 77 72 65 69 84 91 94 77
98 98 83 76 73 92 99 99 99 93 100 92 78 85 96 91 69 67 71 72 62 66 70 68 74 64 64 60 65 77 76 89 75 71 62 76 97 87 79 80 98 87 76 94
98 87 68 54 64 96 100 99 99 91 98 97 93 81 78 80 80 73 72 93 85 81 87 77 78 71 69 58 65 90 88 83 96 84 82 84 84 83 82 94 90 96 86 75
99 74 57 48 73 91 100 99 99 100 93 80 97 88 95 87 76 71 90 86 77 76 89 72 68 67 79 81 84 90 87 92 92 89 81 85 92 86 88 92 98 100 90 86
85 76 56 57 66 95 99 99 98 77 91 93 96 92 79 68 72 68 65 70 89 98 81 72 70 76 73 75 86 86 92 95 97 91 82 89 93 80 70 61 67 72 86 74
70 59 62 72 71 78 98 98 99 97 98 92 86 75 79 77 73 75 68 62 74 69 60 72 84 88 92 82 73 72 96 98 95 94 97 95 66 73 69 53 70 79 82 87
74 68 66 64 71 84 92 99 98 98 97 82 97 95 77 73 73 76 73 67 73 73 82 99 100 99 99 98 94 89 84 93 97 95 93 77 69 73 79 72 68 85 92 88
69 69 74 83 86 90 83 92 92 97 96 93 71 75 78 92 93 90 80 70 68 76 99 99 94 96 90 96 98 72 81 79 91 95 95 97 72 68 64 55 78 86 85 91
77 68 73 83 88 81 80 95 89 94 99 90 93 99 95 83 88 95 87 97 98 82 98 97 96 86 69 89 92 94 97 97 93 95 94 82 71 64 49 72 75 88 87 91
80 79 76 84 81 74 83 94 63 87 92 93 84 78 80 88 93 90 95 99 98 99 97 94 93 96 76 82 85 88 85 90 95 92 96 91 71 70 67 77 94 95 95 98
69 76 76 80 80 74 86 98 66 81 88 96 96 92 85 82 88 81 91 82 92 85 95 98 98 97 92 78 85 69 85 83 86 80 84 93 90 84 75 73 82 92 92 98
88 54 65 72 77 74 80 74 71 90 99 99 100 92 78 82 80 86 91 88 72 80 72 94 97 96 93 91 89 87 80 74 88 80 93 96 96 85 76 72 72 79 87 92
93 72 49 52 60 70 78 76 79 88 100 99 84 90 99 86 88 88 96 78 69 70 74 98 98 98 86 90 84 85 80 78 90 93 96 98 98 86 79 77 76 78 86 88
88 75 62 47 55 62 76 90 98 99 96 99 92 90 92 98 100 100 98 98 85 91 97 98 92 90 87 91 88 96 79 89 87 84 77 76 85 93 84 77 80 87 92 100
85 81 64 54 51 71 98 98 96 94 99 99 98 97 96 100 100 100 100 97 77 92 74 86 80 72 78 97 96 86 90 75 66 75 81 72 88 91 84 80 84 89 89 88
98 91 83 72 82 93 99 94 94 84 99 100 98 98 99 100 99 97 81 67 56 46 62 75 80 74 84 97 97 97 93 85 77 77 75 100 99 100 92 84 89 90 88 89
98 97 96 98 98 99 99 90 99 98 100 97 89 92 84 91 90 86 66 54 52 55 62 65 73 69 81 96 97 100 96 91 88 81 74 76 92 95 91 90 95 95 92 91
99 99 99 99 99 98 98 98 100 100 99 82 79 87 90 64 69 63 58 53 85 68 79 73 72 94 83 83 95 100 93 82 86 82 81 91 91 93 90 94 97 92 95 94
99 99 99 99 96 100 100 100 100 100 99 89 87 77 88 71 77 78 73 65 85 85 86 68 94 97 92 88 87 85 84 78 82 90 100 100 100 93 92 94 92 86 89 92
95 94 99 100 98 95 80 80 73 77 83 82 77 78 90 67 83 92 75 88 90 84 87 78 94 95 94 96 88 83 80 77 80 77 76 86 89 92 93 95 94 91 90 91
83 89 95 99 89 69 70 88 80 75 78 85 85 73 72 72 54 81 79 79 87 85 89 86 91 90 94 93 86 82 78 80 80 80 80 91 91 89 90 94 97 95 92 88
76 62 57 61 73 80 77 86 83 93 91 78 76 91 69 59 58 86 88 87 93 86 91 89 91 92 94 88 81 78 80 82 81 84 87 91 93 94 88 94 96 96 96 93
55 69 94 88 95 90 93 94 96 98 86 72 68 87 93 76 94 98 89 96 88 96 97 88 94 95 90 83 78 74 77 82 84 82 87 93 96 96 96 97 96 96 96 96
72 76 99 94 98 100 100 98 99 91 78 54 66 78 68 93 88 93 89 89 95 91 91 94 95 98 87 81 78 76 79 87 85 82 83 87 93 97 96 97 96 96 96 96
84 90 92 94 96 99 99 99 98 79 64 56 57 92 91 96 89 86 86 85 91 90 96 98 100 97 89 85 84 85 86 90 89 83 83 86 94 96 96 96 96 96 96 95
89 98 99 99 99 99 99 92 79 63 57 92 90 85 87 91 92 93 82 97 94 98 99 100 84 85 92 97 97 93 94 97 97 89 84 94 97 98 98 96 96 96 96 96